[[{"header":{"parameterUnit":"m.s-1","parameterCategory":1,"la1":31.0,"la2":29.5877,"lo1":-88.7671,"lo2":-86.6584,"dy":0.0162,"dx":0.0185,"nx":115,"ny":88,"refTime":"2026-05-05T12:00:00:Z","depth":0,"parameterNumber":2,"parameterNumberName":"U-component_of_WINDS"},"data":[0.0,0.0,0.0,0.0,0.0,0.0,0.0,0.0,0.0,0.0,0.0,0.0,0.0,0.0,0.0,0.0,0.0,0.0,0.0,0.0,0.0,0.0,0.0,0.0,0.0,0.0,0.0,0.0,0.0,0.0,0.0,0.0,0.0,0.0,0.0,0.0,0.0,0.0,0.0,0.0,0.0,0.0,0.0,0.0,0.0,0.0,0.0,0.0,0.0,0.0,0.0,0.0,0.0,0.0,0.0,0.0,0.0,0.0,0.0,0.0,0.0,0.0,0.0,0.0,0.0,0.0,0.0,0.0,0.0,0.0,0.0,0.0,0.0,0.0,0.0,0.0,0.0,0.0,0.0,0.0,0.0,0.0,0.0,0.0,0.0,0.0,0.0,0.0,0.0,0.0,0.0,0.0,0.0,0.0,0.0,0.0,0.0,0.0,0.0,0.0,0.0,0.0,0.0,0.0,0.0,0.0,0.0,0.0,0.0,0.0,0.0,0.0,0.0,0.0,0.0,0.0,0.0,0.0,0.0,0.0,0.0,0.0,0.0,0.0,0.0,0.0,0.0,0.0,0.0,0.0,0.0,0.0,0.0,0.0,0.0,0.0,0.0,0.0,0.0,0.0,0.0,0.0,0.0,0.0,0.0,0.0,0.0,0.0,0.0,0.0,0.0,0.0,0.0,0.0,0.0,0.0,0.0,0.0,0.0,0.0,0.0,0.0,0.0,0.0,0.0,0.0,0.0,0.0,0.0,0.0,0.0,0.0,0.0,0.0,0.0,0.0,0.0,0.0,0.0,0.0,0.0,0.0,0.0,0.0,0.0,0.0,0.0,0.0,0.0,0.0,0.0,0.0,0.0,0.0,0.0,0.0,0.0,0.0,0.0,0.0,0.0,0.0,0.0,0.0,0.0,0.0,0.0,0.0,0.0,0.0,0.0,0.0,0.0,0.0,0.0,0.0,0.0,0.0,0.0,0.0,0.0,0.0,0.0,0.0,0.0,0.0,0.0,0.0,0.0,0.0,0.0,0.0,0.0,0.0,0.0,0.0,0.0,0.0,0.0,0.0,0.0,0.0,0.0,0.0,0.0,0.0,0.0,0.0,0.0,0.0,0.0,0.0,0.0,0.0,0.0,0.0,0.0,0.0,0.0,0.0,0.0,0.0,0.0,0.0,0.0,0.0,0.0,0.0,0.0,0.0,0.0,0.0,0.0,0.0,0.0,0.0,0.0,0.0,0.0,0.0,0.0,0.0,0.0,0.0,0.0,0.0,0.0,0.0,0.0,0.0,0.0,0.0,0.0,0.0,0.0,0.0,0.0,0.0,0.0,0.0,0.0,0.0,0.0,0.0,0.0,0.0,0.0,0.0,0.0,0.0,0.0,0.0,0.0,0.0,0.0,0.0,0.0,0.0,0.0,0.0,0.0,0.0,0.0,0.0,0.0,0.0,0.0,0.0,0.0,0.0,0.0,0.0,0.0,0.0,0.0,0.0,0.0,0.0,0.0,0.0,0.0,0.0,0.0,0.0,0.0,0.0,0.0,0.0,0.0,0.0,0.0,0.0,0.0,0.0,0.0,0.0,0.0,0.0,0.0,0.0,0.0,0.0,0.0,0.0,0.0,0.0,0.0,0.0,0.0,0.0,0.0,0.0,0.0,0.0,0.0,0.0,0.0,0.0,0.0,0.0,0.0,0.0,0.0,0.0,0.0,0.0,0.0,0.0,0.0,0.0,0.0,0.0,0.0,0.0,0.0,0.0,0.0,0.0,0.0,0.0,0.0,0.0,0.0,0.0,0.0,0.0,0.0,0.0,0.0,0.0,0.0,0.0,0.0,0.0,0.0,0.0,0.0,0.0,0.0,0.0,0.0,0.0,0.0,0.0,0.0,0.0,0.0,0.0,0.0,0.0,0.0,0.0,0.0,0.0,0.0,0.0,0.0,0.0,0.0,0.0,0.0,0.0,0.0,0.0,0.0,0.0,0.0,0.0,0.0,0.0,0.0,0.0,0.0,0.0,0.0,0.0,0.0,0.0,0.0,0.0,0.0,0.0,0.0,0.0,0.0,0.0,0.0,0.0,0.0,0.0,0.0,0.0,0.0,0.0,0.0,0.0,0.0,0.0,0.0,0.0,0.0,0.0,0.0,0.0,0.0,0.0,0.0,0.0,0.0,0.0,0.0,0.0,0.0,0.0,0.0,0.0,0.0,0.0,0.0,0.0,0.0,0.0,0.0,0.0,0.0,0.0,0.0,0.0,0.0,0.0,0.0,0.0,0.0,0.0,0.0,0.0,0.0,0.0,0.0,0.0,0.0,0.0,0.0,0.0,0.0,0.0,0.0,0.0,0.0,0.0,0.0,0.0,0.0,0.0,0.0,0.0,0.0,0.0,0.0,0.0,0.0,0.0,0.0,0.0,0.0,0.0,0.0,0.0,0.0,0.0,0.0,0.0,0.0,0.0,0.0,0.0,0.0,0.0,0.0,0.0,0.0,0.0,0.0,0.0,0.0,0.0,0.0,0.0,0.0,0.0,0.0,0.0,0.0,0.0,0.0,0.0,0.0,0.0,0.0,0.0,0.0,0.0,0.0,0.0,0.0,0.0,0.0,0.0,0.0,0.0,0.0,0.0,0.0,0.0,0.0,0.0,0.0,0.0,0.0,0.0,0.0,0.0,0.0,0.0,0.0,0.0,0.0,0.0,0.0,0.0,0.0,0.0,0.0,0.0,0.0,0.0,0.0,0.0,0.0,0.0,0.0,0.0,0.0,0.0,0.0,0.0,0.0,0.0,0.0,0.0,0.0,0.0,0.0,0.0,0.0,0.0,0.0,0.0,0.0,0.0,0.0,0.0,0.0,0.0,0.0,0.0,0.0,0.0,0.0,0.0,0.0,0.0,0.0,0.0,0.0,0.0,0.0,0.0,0.0,0.0,0.0,0.0,0.0,0.0,0.0,0.0,0.0,0.0,0.0,0.0,0.0,0.0,0.0,0.0,0.0,0.0,0.0,0.0,0.0,0.0,0.0,0.0,0.0,0.0,0.0,0.0,0.0,0.0,0.0,0.0,0.0,0.0,0.0,0.0,0.0,0.0,0.0,0.0,0.0,0.0,0.0,0.0,0.0,0.0,0.0,0.0,0.0,0.0,0.0,0.0,0.0,0.0,0.0,0.0,0.0,0.0,0.0,0.0,0.0,0.0,0.0,0.0,0.0,0.0,0.0,0.0,0.0,0.0,0.0,0.0,0.0,0.0,0.0,0.0,0.0,0.0,0.0,0.0,0.0,0.0,0.0,0.0,0.0,0.0,0.0,0.0,0.0,0.0,0.0,0.0,0.0,0.0,0.0,0.0,0.0,0.0,0.0,0.0,0.0,0.0,0.0,0.0,0.0,0.0,0.0,0.0,0.0,0.0,0.0,0.0,0.0,0.0,0.0,0.0,0.0,0.0,0.0,0.0,0.0,0.0,0.0,0.0,0.0,0.0,0.0,0.0,0.0,0.0,0.0,0.0,0.0,0.0,0.0,0.0,0.0,0.0,0.0,0.0,0.0,0.0,0.0,0.0,0.0,0.0,0.0,0.0,0.0,0.0,0.0,0.0,0.0,0.0,0.0,0.0,0.0,0.0,0.0,0.0,0.0,0.0,0.0,0.0,0.0,0.0,0.0,0.0,0.0,0.0,0.0,0.0,0.0,0.0,0.0,0.0,0.0,0.0,0.0,0.0,0.0,0.0,0.0,0.0,0.0,0.0,0.0,0.0,0.0,0.0,0.0,0.0,0.0,0.0,0.0,0.0,0.0,0.0,0.0,0.0,0.0,0.0,0.0,0.0,0.0,0.0,0.0,0.0,0.0,0.0,0.0,0.0,0.0,0.0,0.0,0.0,0.0,0.0,0.0,0.0,0.0,0.0,0.0,0.0,0.0,0.0,0.0,0.0,0.0,0.0,0.0,0.0,0.0,0.0,0.0,0.0,0.0,0.0,0.0,0.0,0.0,0.0,0.0,0.0,0.0,0.0,0.0,0.0,0.0,0.0,0.0,0.0,0.0,0.0,0.0,0.0,0.0,0.0,0.0,0.0,0.0,0.0,0.0,0.0,0.0,0.0,0.0,0.0,0.0,0.0,0.0,0.0,0.0,0.0,0.0,0.0,0.0,0.0,0.0,0.0,0.0,0.0,0.0,0.0,0.0,0.0,0.0,0.0,0.0,0.0,0.0,0.0,0.0,0.0,0.0,0.0,0.0,0.0,0.0,0.0,0.0,0.0,0.0,0.0,0.0,0.0,0.0,0.0,-5.0078,0.0,0.0,0.0,0.0,0.0,0.0,0.0,0.0,0.0,0.0,0.0,0.0,0.0,0.0,0.0,0.0,0.0,0.0,0.0,0.0,0.0,0.0,0.0,0.0,0.0,0.0,0.0,0.0,0.0,0.0,0.0,0.0,0.0,0.0,0.0,0.0,0.0,0.0,0.0,0.0,0.0,0.0,0.0,0.0,0.0,0.0,0.0,0.0,0.0,0.0,0.0,0.0,0.0,0.0,0.0,0.0,0.0,0.0,0.0,0.0,0.0,0.0,0.0,0.0,0.0,0.0,0.0,0.0,0.0,0.0,0.0,0.0,0.0,0.0,0.0,0.0,0.0,0.0,0.0,0.0,0.0,0.0,0.0,0.0,0.0,0.0,0.0,0.0,0.0,0.0,0.0,0.0,0.0,0.0,0.0,0.0,0.0,0.0,0.0,0.0,0.0,0.0,0.0,0.0,0.0,0.0,0.0,0.0,0.0,0.0,-5.4304,-5.4304,-5.3703,-5.2402,-5.0273,0.0,0.0,0.0,0.0,0.0,0.0,0.0,0.0,0.0,0.0,0.0,0.0,0.0,0.0,0.0,0.0,0.0,0.0,0.0,0.0,0.0,0.0,0.0,0.0,0.0,0.0,0.0,0.0,0.0,0.0,0.0,0.0,0.0,0.0,0.0,0.0,0.0,0.0,0.0,0.0,0.0,0.0,0.0,0.0,0.0,0.0,0.0,0.0,0.0,0.0,0.0,0.0,0.0,0.0,0.0,0.0,0.0,0.0,0.0,0.0,0.0,0.0,0.0,0.0,0.0,0.0,0.0,0.0,0.0,0.0,0.0,0.0,0.0,0.0,0.0,0.0,0.0,0.0,0.0,0.0,0.0,0.0,0.0,0.0,0.0,0.0,0.0,0.0,0.0,0.0,0.0,0.0,0.0,0.0,0.0,0.0,0.0,0.0,0.0,0.0,0.0,0.0,0.0,0.0,0.0,0.0,0.0,0.0,0.0,0.0,0.0,0.0,-5.4504,-5.3008,-5.0293,0.0,0.0,0.0,0.0,0.0,0.0,0.0,0.0,0.0,0.0,0.0,0.0,0.0,0.0,0.0,0.0,0.0,0.0,0.0,0.0,0.0,0.0,0.0,0.0,0.0,0.0,0.0,0.0,0.0,0.0,0.0,0.0,0.0,0.0,0.0,0.0,0.0,0.0,0.0,0.0,0.0,0.0,0.0,0.0,0.0,0.0,0.0,0.0,0.0,0.0,0.0,0.0,0.0,0.0,0.0,0.0,0.0,0.0,0.0,0.0,0.0,0.0,0.0,0.0,0.0,0.0,0.0,0.0,0.0,0.0,0.0,0.0,0.0,0.0,0.0,0.0,0.0,0.0,0.0,0.0,0.0,0.0,0.0,0.0,0.0,0.0,0.0,0.0,0.0,0.0,0.0,0.0,0.0,0.0,0.0,0.0,0.0,0.0,0.0,0.0,0.0,0.0,0.0,0.0,0.0,0.0,0.0,0.0,0.0,0.0,-5.4095,-5.4883,-5.507,0.0,-5.043,0.0,0.0,0.0,0.0,0.0,0.0,0.0,0.0,0.0,0.0,0.0,0.0,0.0,0.0,0.0,0.0,0.0,0.0,0.0,0.0,0.0,0.0,0.0,0.0,0.0,0.0,0.0,0.0,0.0,0.0,0.0,0.0,0.0,0.0,0.0,0.0,0.0,0.0,0.0,0.0,0.0,0.0,0.0,0.0,0.0,0.0,0.0,0.0,0.0,0.0,0.0,0.0,0.0,0.0,0.0,0.0,0.0,0.0,0.0,0.0,0.0,0.0,0.0,0.0,0.0,0.0,0.0,0.0,0.0,0.0,0.0,0.0,0.0,0.0,0.0,0.0,0.0,0.0,0.0,0.0,0.0,0.0,0.0,0.0,0.0,0.0,0.0,0.0,0.0,0.0,0.0,0.0,0.0,0.0,0.0,0.0,0.0,0.0,0.0,0.0,0.0,0.0,0.0,0.0,0.0,0.0,0.0,0.0,0.0,0.0,-5.4256,-5.5647,-5.3938,-5.2109,0.0,0.0,0.0,0.0,0.0,0.0,0.0,0.0,0.0,0.0,0.0,0.0,0.0,0.0,0.0,0.0,0.0,0.0,0.0,0.0,0.0,0.0,0.0,0.0,0.0,0.0,0.0,0.0,0.0,0.0,0.0,0.0,0.0,0.0,0.0,0.0,0.0,0.0,0.0,0.0,0.0,0.0,0.0,0.0,0.0,0.0,0.0,0.0,0.0,0.0,0.0,0.0,0.0,0.0,0.0,0.0,0.0,0.0,0.0,0.0,0.0,0.0,0.0,0.0,0.0,0.0,0.0,0.0,0.0,0.0,0.0,0.0,0.0,0.0,0.0,0.0,0.0,0.0,0.0,0.0,0.0,0.0,0.0,0.0,0.0,0.0,0.0,0.0,0.0,0.0,0.0,0.0,0.0,0.0,0.0,0.0,0.0,0.0,0.0,0.0,0.0,0.0,0.0,0.0,0.0,0.0,0.0,0.0,0.0,0.0,-5.3749,-5.4196,-5.5331,-5.3084,-5.1152,-4.9863,0.0,0.0,0.0,0.0,0.0,0.0,0.0,0.0,0.0,0.0,0.0,0.0,0.0,0.0,0.0,0.0,0.0,0.0,0.0,0.0,0.0,0.0,0.0,0.0,0.0,0.0,0.0,0.0,0.0,0.0,0.0,0.0,0.0,0.0,0.0,0.0,0.0,0.0,0.0,0.0,0.0,0.0,0.0,0.0,0.0,0.0,0.0,0.0,0.0,0.0,0.0,0.0,0.0,0.0,0.0,0.0,0.0,0.0,0.0,0.0,0.0,0.0,0.0,0.0,0.0,0.0,0.0,0.0,0.0,0.0,0.0,0.0,0.0,0.0,0.0,0.0,0.0,0.0,0.0,0.0,0.0,0.0,0.0,0.0,0.0,0.0,0.0,0.0,0.0,0.0,0.0,0.0,0.0,0.0,0.0,0.0,0.0,0.0,0.0,0.0,0.0,0.0,0.0,0.0,0.0,0.0,0.0,0.0,-5.3183,-5.3357,-5.3571,-5.3916,-5.3078,-5.1484,0.0,0.0,0.0,0.0,0.0,0.0,0.0,0.0,0.0,0.0,0.0,0.0,0.0,0.0,0.0,0.0,0.0,0.0,0.0,0.0,0.0,0.0,0.0,0.0,0.0,0.0,0.0,0.0,0.0,0.0,0.0,0.0,0.0,0.0,0.0,0.0,0.0,0.0,0.0,0.0,0.0,0.0,0.0,0.0,0.0,0.0,0.0,0.0,0.0,0.0,0.0,0.0,0.0,0.0,0.0,0.0,0.0,0.0,0.0,0.0,0.0,0.0,0.0,0.0,0.0,0.0,0.0,0.0,0.0,0.0,0.0,0.0,0.0,0.0,0.0,0.0,0.0,0.0,0.0,0.0,0.0,0.0,0.0,0.0,0.0,0.0,0.0,0.0,0.0,0.0,0.0,0.0,0.0,0.0,0.0,0.0,0.0,0.0,0.0,0.0,0.0,0.0,0.0,0.0,0.0,0.0,0.0,0.0,0.0,-5.2328,-5.31,-5.3604,-5.3735,-5.2045,-5.0664,0.0,0.0,0.0,0.0,0.0,0.0,0.0,0.0,0.0,0.0,0.0,0.0,0.0,0.0,0.0,0.0,0.0,0.0,0.0,0.0,0.0,0.0,0.0,0.0,0.0,0.0,0.0,0.0,0.0,0.0,0.0,0.0,0.0,0.0,0.0,0.0,0.0,0.0,0.0,0.0,0.0,0.0,0.0,0.0,0.0,0.0,0.0,0.0,0.0,0.0,0.0,0.0,0.0,0.0,0.0,0.0,0.0,0.0,0.0,0.0,0.0,0.0,0.0,0.0,0.0,0.0,0.0,0.0,0.0,0.0,0.0,0.0,0.0,0.0,0.0,0.0,0.0,0.0,0.0,0.0,0.0,0.0,0.0,0.0,0.0,0.0,0.0,0.0,0.0,0.0,0.0,0.0,0.0,0.0,0.0,0.0,0.0,0.0,0.0,0.0,0.0,0.0,0.0,0.0,0.0,0.0,0.0,0.0,0.0,-5.1885,0.0,-5.3662,-5.2857,-5.1395,-5.0058,0.0,0.0,0.0,0.0,0.0,0.0,0.0,0.0,0.0,0.0,0.0,0.0,0.0,0.0,0.0,0.0,0.0,0.0,0.0,0.0,0.0,0.0,0.0,0.0,0.0,0.0,0.0,0.0,0.0,0.0,0.0,0.0,0.0,0.0,0.0,0.0,0.0,0.0,0.0,0.0,0.0,0.0,0.0,0.0,0.0,0.0,0.0,0.0,0.0,0.0,0.0,0.0,0.0,0.0,0.0,0.0,0.0,0.0,0.0,0.0,0.0,0.0,0.0,0.0,0.0,0.0,0.0,0.0,0.0,0.0,0.0,0.0,0.0,0.0,0.0,0.0,0.0,0.0,0.0,0.0,0.0,0.0,0.0,0.0,0.0,0.0,0.0,0.0,0.0,0.0,0.0,0.0,0.0,0.0,0.0,0.0,0.0,0.0,0.0,0.0,0.0,0.0,0.0,0.0,0.0,0.0,0.0,0.0,-5.024,-5.1866,-5.3823,-5.3646,-5.1161,-5.1261,-4.9742,0.0,0.0,0.0,0.0,0.0,0.0,0.0,0.0,0.0,0.0,0.0,0.0,0.0,0.0,0.0,0.0,0.0,0.0,0.0,0.0,0.0,0.0,0.0,0.0,0.0,0.0,0.0,0.0,0.0,0.0,0.0,0.0,0.0,0.0,0.0,0.0,0.0,0.0,0.0,0.0,0.0,0.0,0.0,0.0,0.0,0.0,0.0,0.0,0.0,0.0,0.0,0.0,0.0,0.0,0.0,0.0,0.0,0.0,0.0,0.0,0.0,0.0,0.0,0.0,0.0,0.0,0.0,0.0,0.0,0.0,0.0,0.0,0.0,0.0,0.0,0.0,0.0,0.0,0.0,0.0,0.0,0.0,0.0,0.0,0.0,0.0,0.0,0.0,0.0,0.0,0.0,0.0,0.0,0.0,0.0,0.0,0.0,0.0,0.0,0.0,0.0,0.0,0.0,0.0,0.0,0.0,0.0,0.0,0.0,-5.1097,-5.2996,-5.3618,-5.2781,-5.134,-5.0016,0.0,0.0,0.0,0.0,0.0,0.0,0.0,0.0,0.0,0.0,0.0,0.0,0.0,0.0,0.0,0.0,0.0,0.0,0.0,0.0,0.0,0.0,0.0,0.0,0.0,0.0,0.0,0.0,0.0,0.0,0.0,0.0,0.0,0.0,0.0,0.0,0.0,0.0,0.0,0.0,0.0,0.0,0.0,0.0,0.0,0.0,0.0,0.0,0.0,0.0,0.0,0.0,0.0,0.0,0.0,0.0,0.0,0.0,0.0,0.0,0.0,0.0,0.0,0.0,0.0,0.0,0.0,0.0,0.0,0.0,0.0,0.0,0.0,0.0,0.0,0.0,0.0,0.0,0.0,0.0,0.0,0.0,0.0,0.0,0.0,0.0,0.0,0.0,0.0,0.0,0.0,0.0,0.0,0.0,0.0,0.0,0.0,0.0,0.0,0.0,0.0,0.0,0.0,0.0,0.0,0.0,0.0,0.0,0.0,-5.1212,-5.301,-5.3718,-5.3121,-5.1455,-5.0058,-4.8976,0.0,0.0,0.0,0.0,0.0,0.0,0.0,0.0,0.0,0.0,0.0,0.0,0.0,0.0,0.0,0.0,0.0,0.0,0.0,0.0,0.0,0.0,0.0,0.0,0.0,0.0,0.0,0.0,0.0,0.0,0.0,0.0,0.0,0.0,0.0,0.0,0.0,0.0,0.0,0.0,0.0,0.0,0.0,0.0,0.0,0.0,0.0,0.0,0.0,0.0,0.0,0.0,0.0,0.0,0.0,0.0,0.0,0.0,0.0,0.0,0.0,0.0,0.0,0.0,0.0,0.0,0.0,0.0,0.0,0.0,0.0,0.0,0.0,0.0,0.0,0.0,0.0,0.0,0.0,0.0,0.0,0.0,0.0,0.0,0.0,0.0,0.0,0.0,0.0,0.0,0.0,0.0,0.0,0.0,0.0,0.0,0.0,0.0,0.0,0.0,0.0,0.0,0.0,0.0,0.0,0.0,0.0,0.0,-5.2058,-5.3795,-5.4003,-5.2619,-5.167,-5.0018,0.0,0.0,0.0,0.0,0.0,0.0,0.0,0.0,0.0,0.0,0.0,0.0,0.0,0.0,0.0,0.0,0.0,0.0,0.0,0.0,0.0,0.0,0.0,0.0,0.0,0.0,0.0,0.0,0.0,0.0,0.0,0.0,0.0,0.0,0.0,0.0,0.0,0.0,0.0,0.0,0.0,0.0,0.0,0.0,0.0,0.0,0.0,0.0,0.0,0.0,0.0,0.0,0.0,0.0,0.0,0.0,0.0,0.0,0.0,0.0,0.0,0.0,0.0,0.0,0.0,0.0,0.0,0.0,0.0,0.0,0.0,0.0,0.0,0.0,0.0,0.0,0.0,0.0,0.0,0.0,0.0,0.0,0.0,0.0,0.0,0.0,0.0,0.0,0.0,0.0,0.0,0.0,0.0,0.0,0.0,0.0,0.0,0.0,0.0,0.0,0.0,0.0,0.0,0.0,0.0,0.0,0.0,0.0,0.0,-5.3731,-5.4293,-5.4763,-5.5105,-5.259,-5.0857,0.0,0.0,0.0,0.0,0.0,0.0,0.0,0.0,0.0,0.0,0.0,0.0,0.0,0.0,0.0,0.0,0.0,0.0,0.0,0.0,0.0,0.0,0.0,0.0,0.0,0.0,0.0,0.0,0.0,0.0,0.0,0.0,0.0,0.0,0.0,0.0,0.0,0.0,0.0,0.0,0.0,0.0,0.0,0.0,0.0,0.0,0.0,0.0,0.0,0.0,0.0,0.0,0.0,0.0,0.0,0.0,0.0,0.0,0.0,0.0,0.0,0.0,0.0,0.0,0.0,0.0,0.0,0.0,0.0,0.0,0.0,0.0,0.0,0.0,0.0,0.0,0.0,0.0,0.0,0.0,0.0,0.0,0.0,0.0,0.0,0.0,0.0,0.0,0.0,0.0,0.0,0.0,0.0,0.0,0.0,0.0,0.0,0.0,0.0,0.0,0.0,0.0,0.0,0.0,0.0,0.0,0.0,0.0,-5.1884,-5.3923,-5.4626,-5.5379,-5.6167,-5.3622,-5.1699,0.0,0.0,0.0,0.0,0.0,0.0,0.0,0.0,0.0,0.0,0.0,0.0,0.0,0.0,0.0,0.0,0.0,0.0,0.0,0.0,0.0,0.0,0.0,0.0,0.0,0.0,0.0,0.0,0.0,0.0,0.0,0.0,0.0,0.0,0.0,0.0,0.0,0.0,0.0,0.0,0.0,0.0,0.0,0.0,0.0,0.0,0.0,0.0,0.0,0.0,0.0,0.0,0.0,0.0,0.0,0.0,0.0,0.0,0.0,0.0,0.0,0.0,0.0,0.0,0.0,0.0,0.0,0.0,0.0,0.0,0.0,0.0,0.0,0.0,0.0,0.0,0.0,0.0,0.0,0.0,0.0,0.0,0.0,0.0,0.0,0.0,0.0,0.0,0.0,0.0,0.0,0.0,0.0,0.0,0.0,0.0,0.0,0.0,0.0,0.0,0.0,0.0,0.0,0.0,0.0,0.0,0.0,0.0,-5.2471,-5.3451,-5.4914,-5.5863,-5.6136,-5.4424,-5.2408,0.0,0.0,0.0,0.0,0.0,0.0,0.0,0.0,0.0,0.0,0.0,0.0,0.0,0.0,0.0,0.0,0.0,0.0,0.0,0.0,0.0,0.0,0.0,0.0,0.0,0.0,0.0,0.0,0.0,0.0,0.0,0.0,0.0,0.0,0.0,0.0,0.0,0.0,0.0,0.0,0.0,0.0,0.0,0.0,0.0,0.0,0.0,0.0,0.0,0.0,0.0,0.0,0.0,0.0,0.0,0.0,0.0,0.0,0.0,0.0,0.0,0.0,0.0,0.0,0.0,0.0,0.0,0.0,0.0,0.0,0.0,0.0,0.0,0.0,0.0,0.0,0.0,0.0,0.0,0.0,0.0,0.0,0.0,0.0,0.0,0.0,0.0,0.0,0.0,0.0,0.0,0.0,0.0,0.0,0.0,0.0,0.0,0.0,0.0,0.0,0.0,0.0,0.0,0.0,0.0,0.0,0.0,0.0,-5.3017,-5.5115,-5.5511,-5.5863,-5.6186,-5.3841,-5.2096,0.0,0.0,0.0,0.0,0.0,0.0,0.0,0.0,0.0,0.0,0.0,0.0,0.0,0.0,0.0,0.0,0.0,0.0,0.0,0.0,0.0,0.0,0.0,0.0,0.0,0.0,0.0,0.0,0.0,0.0,0.0,0.0,0.0,0.0,0.0,0.0,0.0,0.0,0.0,0.0,0.0,0.0,0.0,0.0,0.0,0.0,0.0,0.0,-4.7121,0.0,0.0,0.0,0.0,0.0,0.0,0.0,0.0,0.0,0.0,0.0,0.0,0.0,0.0,0.0,0.0,0.0,0.0,0.0,0.0,0.0,0.0,0.0,0.0,0.0,0.0,0.0,0.0,0.0,0.0,0.0,0.0,0.0,0.0,0.0,0.0,0.0,0.0,0.0,0.0,0.0,0.0,0.0,0.0,0.0,0.0,0.0,0.0,0.0,0.0,0.0,0.0,0.0,0.0,0.0,0.0,0.0,0.0,0.0,-5.3403,-5.5085,-5.5511,-5.5863,-5.6097,-5.4074,-5.2412,0.0,0.0,0.0,0.0,0.0,0.0,0.0,0.0,0.0,0.0,0.0,0.0,0.0,0.0,0.0,0.0,0.0,0.0,0.0,0.0,0.0,0.0,0.0,0.0,0.0,0.0,0.0,0.0,0.0,0.0,0.0,0.0,0.0,0.0,0.0,0.0,0.0,0.0,0.0,0.0,0.0,0.0,0.0,0.0,0.0,0.0,0.0,0.0,0.0,0.0,0.0,0.0,0.0,0.0,0.0,0.0,0.0,0.0,0.0,0.0,0.0,0.0,0.0,0.0,0.0,0.0,0.0,0.0,0.0,0.0,0.0,0.0,0.0,0.0,0.0,0.0,0.0,0.0,0.0,0.0,0.0,0.0,0.0,0.0,0.0,0.0,0.0,0.0,0.0,0.0,0.0,0.0,0.0,0.0,0.0,0.0,0.0,0.0,0.0,0.0,0.0,0.0,0.0,0.0,0.0,0.0,0.0,-5.1529,-5.3427,-5.4662,-5.5338,-5.5844,-5.6108,-5.4497,-5.2894,-5.1423,0.0,0.0,0.0,0.0,0.0,0.0,0.0,0.0,0.0,0.0,0.0,0.0,0.0,0.0,0.0,0.0,0.0,0.0,0.0,0.0,0.0,0.0,0.0,0.0,0.0,0.0,0.0,0.0,0.0,0.0,0.0,0.0,0.0,0.0,0.0,0.0,0.0,0.0,-4.637,-4.7819,0.0,0.0,0.0,0.0,0.0,0.0,0.0,0.0,-4.7462,0.0,0.0,0.0,0.0,0.0,0.0,0.0,0.0,0.0,0.0,0.0,0.0,0.0,0.0,0.0,0.0,0.0,0.0,0.0,0.0,0.0,0.0,0.0,0.0,0.0,0.0,0.0,0.0,0.0,0.0,0.0,0.0,0.0,0.0,0.0,0.0,0.0,0.0,0.0,0.0,0.0,0.0,0.0,0.0,0.0,0.0,0.0,0.0,0.0,0.0,0.0,0.0,0.0,0.0,0.0,0.0,-5.1355,-5.1276,-5.2593,-5.5423,-5.5626,-5.5779,-5.5905,-5.4413,-5.2853,-5.1282,0.0,0.0,0.0,0.0,0.0,0.0,0.0,0.0,0.0,0.0,0.0,0.0,0.0,0.0,0.0,0.0,0.0,0.0,0.0,0.0,0.0,0.0,0.0,0.0,0.0,0.0,0.0,0.0,0.0,0.0,0.0,0.0,0.0,0.0,0.0,0.0,0.0,0.0,0.0,-4.8205,-4.9258,0.0,0.0,0.0,0.0,0.0,0.0,0.0,0.0,-4.761,0.0,0.0,0.0,0.0,0.0,0.0,0.0,0.0,0.0,0.0,0.0,0.0,0.0,0.0,0.0,0.0,0.0,0.0,0.0,0.0,0.0,0.0,0.0,0.0,0.0,0.0,0.0,0.0,0.0,0.0,0.0,0.0,0.0,0.0,0.0,0.0,0.0,0.0,0.0,0.0,0.0,0.0,0.0,0.0,0.0,0.0,0.0,0.0,0.0,0.0,0.0,0.0,0.0,0.0,0.0,-5.0704,-5.2054,-5.3702,-5.5605,-5.5684,-5.5567,-5.5257,-5.3661,-5.2092,0.0,0.0,0.0,0.0,0.0,0.0,0.0,0.0,0.0,0.0,0.0,0.0,0.0,0.0,0.0,0.0,0.0,0.0,0.0,0.0,0.0,0.0,0.0,0.0,0.0,0.0,0.0,0.0,0.0,0.0,0.0,0.0,0.0,0.0,0.0,0.0,0.0,0.0,0.0,0.0,-4.8785,-4.9625,-5.0061,0.0,0.0,0.0,0.0,0.0,0.0,-4.7417,-4.7344,0.0,0.0,0.0,0.0,0.0,0.0,0.0,0.0,0.0,0.0,0.0,0.0,0.0,0.0,0.0,0.0,0.0,0.0,0.0,0.0,0.0,0.0,0.0,0.0,0.0,0.0,0.0,0.0,0.0,0.0,0.0,0.0,0.0,0.0,0.0,0.0,0.0,0.0,0.0,0.0,0.0,0.0,0.0,0.0,0.0,0.0,0.0,0.0,0.0,0.0,0.0,0.0,0.0,0.0,0.0,-4.9771,-5.2386,-5.432,-5.5393,-5.5453,-5.5123,-5.4407,-5.2899,-5.1366,0.0,0.0,0.0,0.0,0.0,0.0,0.0,0.0,0.0,0.0,0.0,0.0,0.0,0.0,0.0,0.0,0.0,0.0,0.0,0.0,0.0,0.0,0.0,0.0,0.0,0.0,0.0,0.0,0.0,0.0,0.0,0.0,0.0,0.0,0.0,0.0,0.0,0.0,0.0,0.0,0.0,-5.0115,-4.949,-4.9413,0.0,0.0,0.0,0.0,-4.7301,-4.7434,0.0,0.0,0.0,0.0,0.0,0.0,0.0,0.0,0.0,0.0,0.0,0.0,0.0,0.0,0.0,0.0,0.0,0.0,0.0,0.0,0.0,0.0,0.0,0.0,0.0,0.0,0.0,0.0,0.0,0.0,0.0,0.0,0.0,0.0,0.0,0.0,0.0,0.0,0.0,0.0,0.0,0.0,0.0,0.0,0.0,0.0,0.0,0.0,0.0,0.0,0.0,0.0,0.0,0.0,0.0,0.0,-4.996,-5.0808,-5.2346,-5.4498,-5.4626,-5.4223,-5.3388,-5.2547,-5.1315,0.0,0.0,0.0,0.0,0.0,0.0,0.0,0.0,0.0,0.0,0.0,0.0,0.0,0.0,0.0,0.0,0.0,0.0,0.0,0.0,0.0,0.0,0.0,0.0,0.0,0.0,0.0,0.0,0.0,0.0,0.0,0.0,0.0,0.0,0.0,0.0,0.0,0.0,0.0,0.0,0.0,-5.0726,-4.9567,-4.9413,-4.9336,0.0,0.0,-4.7961,-4.7969,-4.8728,0.0,0.0,0.0,0.0,0.0,0.0,0.0,0.0,0.0,0.0,0.0,0.0,0.0,0.0,0.0,0.0,0.0,0.0,0.0,0.0,0.0,0.0,0.0,0.0,0.0,0.0,0.0,0.0,0.0,0.0,0.0,0.0,0.0,0.0,0.0,0.0,0.0,0.0,0.0,0.0,0.0,0.0,0.0,0.0,0.0,0.0,0.0,0.0,0.0,0.0,0.0,0.0,0.0,0.0,0.0,-4.8124,-4.943,-5.1014,-5.2444,-5.3701,-5.376,-5.3356,-5.2491,-5.1249,-4.9991,0.0,0.0,0.0,0.0,0.0,0.0,0.0,0.0,0.0,0.0,0.0,0.0,0.0,0.0,0.0,0.0,0.0,0.0,0.0,0.0,0.0,0.0,0.0,0.0,0.0,0.0,0.0,0.0,0.0,0.0,0.0,0.0,0.0,0.0,0.0,0.0,0.0,0.0,0.0,0.0,0.0,0.0,-5.0135,-5.0144,0.0,0.0,0.0,-4.8682,-4.8182,0.0,0.0,0.0,0.0,0.0,0.0,0.0,0.0,0.0,0.0,0.0,0.0,0.0,0.0,0.0,0.0,0.0,0.0,0.0,0.0,0.0,0.0,0.0,0.0,0.0,0.0,0.0,0.0,0.0,0.0,0.0,0.0,0.0,0.0,0.0,0.0,0.0,0.0,0.0,0.0,0.0,0.0,0.0,0.0,0.0,0.0,0.0,0.0,0.0,0.0,0.0,0.0,0.0,0.0,0.0,0.0,0.0,-4.9037,-5.1159,-5.2471,-5.2865,-5.2895,-5.2462,-5.1625,-5.0183,0.0,0.0,0.0,0.0,0.0,0.0,0.0,0.0,0.0,0.0,0.0,0.0,0.0,0.0,0.0,0.0,0.0,0.0,0.0,0.0,0.0,0.0,0.0,0.0,0.0,0.0,0.0,-4.2393,0.0,0.0,0.0,0.0,0.0,0.0,0.0,0.0,0.0,0.0,0.0,0.0,0.0,0.0,-4.9875,-5.0308,-5.0577,-5.0462,0.0,0.0,-4.9017,-4.8384,-4.8181,-4.7641,0.0,0.0,0.0,0.0,0.0,0.0,0.0,0.0,0.0,0.0,0.0,0.0,0.0,0.0,0.0,0.0,0.0,0.0,0.0,0.0,0.0,0.0,0.0,0.0,0.0,0.0,0.0,0.0,0.0,0.0,0.0,0.0,0.0,0.0,0.0,0.0,0.0,0.0,0.0,0.0,0.0,0.0,0.0,0.0,0.0,0.0,0.0,0.0,0.0,0.0,0.0,0.0,0.0,0.0,-4.8253,-4.9356,-5.0704,-5.1595,-5.1971,-5.2,-5.1587,-5.0798,-4.9885,-4.8625,0.0,0.0,0.0,0.0,0.0,0.0,0.0,0.0,0.0,0.0,0.0,0.0,0.0,0.0,0.0,0.0,0.0,0.0,0.0,0.0,0.0,0.0,0.0,0.0,0.0,0.0,0.0,0.0,0.0,0.0,0.0,0.0,0.0,0.0,0.0,0.0,0.0,0.0,0.0,0.0,0.0,-5.0337,-4.9586,-5.0164,-5.0673,0.0,-4.9603,-4.8807,-4.8762,-4.9066,-4.857,-4.6216,0.0,0.0,0.0,0.0,0.0,0.0,0.0,0.0,0.0,0.0,0.0,0.0,0.0,0.0,0.0,0.0,0.0,0.0,0.0,0.0,0.0,0.0,0.0,0.0,0.0,0.0,0.0,0.0,-5.0644,0.0,0.0,0.0,0.0,0.0,0.0,0.0,0.0,0.0,0.0,0.0,0.0,0.0,0.0,0.0,0.0,0.0,0.0,0.0,0.0,0.0,0.0,0.0,0.0,-4.8135,-4.8615,-5.0141,-5.0881,-5.0795,-5.1045,-5.0641,-4.954,-4.8922,-4.7817,0.0,0.0,0.0,0.0,0.0,0.0,0.0,0.0,0.0,0.0,0.0,0.0,0.0,0.0,0.0,0.0,0.0,0.0,0.0,0.0,0.0,0.0,0.0,0.0,0.0,0.0,0.0,0.0,-4.4432,-4.4509,-4.5056,0.0,0.0,0.0,0.0,0.0,0.0,0.0,0.0,0.0,0.0,-4.9259,-4.9765,-5.0314,0.0,0.0,-5.0142,-4.9782,-4.9254,-4.8523,-4.7513,-4.6032,-4.5155,0.0,0.0,0.0,0.0,0.0,0.0,0.0,0.0,0.0,0.0,0.0,0.0,0.0,0.0,0.0,0.0,0.0,0.0,0.0,0.0,0.0,0.0,0.0,0.0,0.0,0.0,0.0,0.0,0.0,0.0,0.0,0.0,0.0,0.0,0.0,0.0,0.0,0.0,0.0,0.0,0.0,0.0,0.0,0.0,0.0,0.0,0.0,0.0,0.0,0.0,0.0,0.0,-4.8096,-4.8096,-4.97,-5.0265,-4.9761,-4.9908,-4.9488,-4.8483,-4.7869,-4.6954,0.0,0.0,0.0,0.0,0.0,0.0,0.0,0.0,0.0,0.0,0.0,0.0,0.0,0.0,0.0,0.0,0.0,0.0,0.0,0.0,0.0,0.0,0.0,0.0,0.0,0.0,0.0,0.0,-4.5056,-4.4886,-4.5399,0.0,0.0,0.0,0.0,0.0,0.0,0.0,0.0,0.0,0.0,-4.8635,-5.0076,-5.0504,-5.0554,-5.0159,-5.0237,-4.9988,-4.9037,-4.8072,-4.7016,-4.569,0.0,0.0,0.0,0.0,0.0,0.0,0.0,0.0,0.0,0.0,0.0,0.0,0.0,0.0,0.0,0.0,0.0,0.0,0.0,0.0,0.0,0.0,0.0,0.0,0.0,0.0,0.0,-4.9952,0.0,0.0,-4.8394,0.0,0.0,0.0,0.0,0.0,0.0,0.0,0.0,0.0,0.0,0.0,0.0,0.0,0.0,0.0,0.0,0.0,0.0,0.0,0.0,0.0,0.0,-4.8086,-4.8125,-4.9406,-4.9716,-4.896,-4.8541,-4.813,-4.7613,-4.6797,-4.6105,-4.5568,0.0,0.0,0.0,0.0,0.0,0.0,0.0,0.0,0.0,0.0,0.0,0.0,0.0,0.0,0.0,0.0,0.0,0.0,0.0,0.0,0.0,0.0,0.0,0.0,0.0,0.0,-4.5566,-4.5566,-4.5419,0.0,0.0,0.0,0.0,0.0,0.0,0.0,0.0,0.0,-4.7818,-4.8096,-4.8731,-5.0394,-5.0673,-5.0523,-5.0135,-4.9773,-4.9133,-4.7959,-4.8029,-4.7481,0.0,0.0,0.0,0.0,0.0,0.0,0.0,0.0,0.0,0.0,0.0,0.0,0.0,0.0,0.0,0.0,0.0,0.0,0.0,0.0,0.0,0.0,0.0,0.0,0.0,0.0,0.0,-5.1202,-5.0594,0.0,0.0,0.0,0.0,0.0,0.0,0.0,0.0,0.0,0.0,0.0,-4.8115,-4.8413,0.0,0.0,0.0,0.0,0.0,0.0,0.0,0.0,0.0,0.0,0.0,0.0,-4.7548,-4.8077,-4.8305,-4.8464,-4.849,-4.7859,-4.7023,-4.6036,-4.5986,-4.5374,-4.4102,0.0,0.0,0.0,0.0,0.0,0.0,0.0,0.0,0.0,0.0,0.0,0.0,0.0,0.0,0.0,0.0,0.0,0.0,0.0,0.0,0.0,0.0,0.0,0.0,0.0,-4.5282,0.0,0.0,0.0,0.0,0.0,0.0,0.0,0.0,0.0,0.0,-4.5573,-4.6245,-4.7184,-4.8036,-4.8674,-4.9005,-4.9531,-4.976,0.0,0.0,0.0,0.0,0.0,0.0,0.0,0.0,0.0,0.0,0.0,0.0,0.0,0.0,-4.4087,-4.3057,-4.2438,-4.2112,-4.2112,0.0,0.0,0.0,0.0,0.0,0.0,0.0,0.0,0.0,0.0,0.0,0.0,0.0,0.0,-5.2064,-5.1747,-5.0627,0.0,0.0,0.0,0.0,0.0,0.0,0.0,0.0,-4.949,-4.9817,-4.9029,-4.9279,-4.9106,-4.8548,-4.8029,-4.7182,0.0,0.0,0.0,0.0,0.0,0.0,0.0,0.0,-4.6954,-4.7442,-4.731,-4.7227,-4.723,-4.6596,-4.5772,-4.4836,-4.5176,-4.4731,-4.3347,-4.2465,-4.1732,0.0,0.0,0.0,0.0,0.0,0.0,0.0,0.0,0.0,0.0,0.0,0.0,0.0,0.0,0.0,0.0,0.0,0.0,0.0,0.0,0.0,0.0,0.0,-4.4968,0.0,0.0,0.0,0.0,0.0,0.0,0.0,0.0,0.0,-4.5035,-4.5584,-4.6326,-4.7411,-4.8159,-4.8669,-4.8829,0.0,0.0,0.0,0.0,0.0,0.0,0.0,-4.693,-4.634,-4.6099,-4.5751,-4.5198,-4.4721,-4.4177,-4.3508,0.0,0.0,-4.3295,-4.2878,-4.2675,-4.2675,-4.2286,-4.1709,-4.0966,-4.023,-3.9215,0.0,0.0,0.0,0.0,-5.4919,0.0,0.0,0.0,-5.2678,-5.274,0.0,-5.1598,0.0,0.0,0.0,0.0,-4.7144,-4.9452,0.0,0.0,-5.1019,-5.1452,-5.0654,-4.9837,-4.9452,-4.9433,-4.9394,-4.8529,-4.6951,-4.6077,-4.5624,0.0,0.0,0.0,0.0,0.0,-4.6271,-4.6306,-4.6374,-4.6059,-4.5367,-4.4914,-4.4438,-4.4026,-4.4383,-4.4169,-4.3365,-4.3265,-4.2511,-4.0972,-4.1122,0.0,0.0,0.0,0.0,0.0,0.0,0.0,0.0,0.0,0.0,0.0,0.0,0.0,0.0,0.0,0.0,0.0,0.0,0.0,0.0,-4.4345,0.0,0.0,0.0,0.0,0.0,0.0,0.0,0.0,0.0,-4.3924,-4.5034,-4.5246,-4.6094,-4.8364,0.0,0.0,0.0,0.0,-4.9311,-4.8911,-4.888,-4.8466,-4.7334,-4.7755,-4.7719,-4.6195,0.0,0.0,-4.5583,-4.4888,-4.4281,-4.3521,-4.3944,-4.453,-4.4462,-4.3809,-4.3375,-4.3325,-4.2216,-4.1009,-4.026,-3.9479,-3.8455,-5.8843,0.0,0.0,0.0,0.0,-5.5234,-5.5631,-5.7599,-5.5556,-5.4805,-5.4891,-5.2608,0.0,0.0,0.0,0.0,0.0,0.0,-4.9625,-4.9452,-5.0529,-5.0914,-5.0683,-5.0442,-5.0327,-5.0308,-4.9711,-4.8836,-4.775,-4.6646,-4.5937,-4.5586,0.0,0.0,0.0,0.0,-4.5605,-4.5868,-4.5142,-4.4907,-4.5292,-4.4341,-4.3787,-4.3664,-4.3742,-4.3696,-4.3439,-4.3126,-4.2735,-4.2249,-4.1418,0.0,0.0,0.0,0.0,0.0,0.0,0.0,0.0,0.0,0.0,0.0,0.0,0.0,0.0,0.0,0.0,0.0,0.0,0.0,-4.4152,-4.3983,-4.3567,0.0,0.0,0.0,0.0,0.0,0.0,0.0,0.0,0.0,-4.4736,-4.5591,-4.6263,0.0,0.0,-4.8396,-4.7571,-4.8135,-4.8604,-4.8477,-4.8477,0.0,-4.8013,-4.7663,-4.7278,-4.6819,-4.6332,-4.5616,-4.46,-4.3979,-4.3383,-4.2749,-4.2777,-4.2946,-4.299,-4.3234,-4.3358,-4.328,-4.2227,-4.1006,-4.0227,-3.9034,-3.777,-5.9947,-5.9393,-5.7687,-5.7525,-5.825,-5.6792,-5.7225,-5.8915,-5.703,-5.6395,-5.6607,-5.4376,-5.2664,-5.1337,-4.9817,0.0,0.0,0.0,-4.9913,-4.9933,-5.0462,-5.0683,-5.0683,-5.0683,-5.0683,-5.0644,-4.968,-4.8746,-4.7873,-4.6694,-4.578,-4.5211,0.0,-4.5088,-4.4896,-4.4757,-4.4787,-4.5054,-4.4246,-4.4043,-4.4575,-4.3872,-4.3479,-4.3479,-4.3479,-4.3479,-4.3496,-4.3217,-4.2939,-4.2625,-4.196,-4.1528,0.0,0.0,0.0,0.0,0.0,0.0,0.0,0.0,0.0,0.0,0.0,-4.2914,-4.1538,0.0,0.0,0.0,-4.22,-4.3039,-4.408,-4.3793,0.0,0.0,0.0,0.0,0.0,0.0,0.0,-4.4506,-4.3924,-4.3791,-4.4617,-4.5338,-4.5855,-4.6052,-4.7295,-4.7876,-4.7022,0.0,-4.8324,-4.8324,-4.8324,-4.8196,-4.7884,-4.7424,-4.6984,-4.6654,-4.5723,-4.4815,-4.4201,-4.3599,-4.3011,-4.2454,-4.2303,-4.2303,-4.2303,-4.2439,-4.2632,-4.2868,-4.203,-4.0906,-3.9853,-3.8622,-3.745,-6.08,-6.0666,-5.9146,-5.8511,-5.8492,-5.8434,-5.8396,-5.8338,-5.7473,-5.7511,-5.8069,-5.6357,-5.5126,-5.4145,-5.1847,0.0,-4.9529,-5.0346,-5.0693,-5.0683,-5.0683,-5.0683,-5.0683,-5.0683,-5.0654,-5.0567,-4.9425,-4.8411,-4.7472,-4.6316,-4.5345,-4.4572,-4.4514,-4.4514,-4.4527,-4.419,-4.4001,-4.3955,-4.3681,-4.3496,-4.3496,-4.3479,-4.3479,-4.3479,-4.3479,-4.3479,-4.3479,-4.3496,-4.3167,-4.2468,-4.2628,-4.2066,-4.0574,0.0,0.0,0.0,0.0,0.0,0.0,0.0,0.0,0.0,0.0,0.0,0.0,0.0,0.0,0.0,-4.2213,0.0,-4.3423,-4.3717,0.0,0.0,0.0,-4.3537,-4.2503,-4.3039,-4.3479,-4.3479,0.0,0.0,-4.4507,-4.4599,-4.5031,-4.6113,-4.6685,-4.7114,-4.7419,-4.7756,-4.8104,-4.8012,-4.8104,-4.7828,-4.7113,-4.6874,-4.6544,-4.5902,-4.5307,-4.461,-4.3957,-4.343,-4.2861,-4.213,-4.2127,-4.2066,-4.2127,-4.1542,-4.1339,-4.1965,-4.1463,-4.0525,-3.9124,-3.8166,-3.7238,-6.08,-6.0762,-6.0377,-6.0204,-6.0146,-5.9492,-5.9204,-5.9146,-5.8338,-5.7742,-5.7203,-5.553,-5.3953,-5.2481,-5.1895,-5.1164,-5.0414,-5.0616,-5.0683,-5.0683,-5.0683,-5.0683,-5.0683,-5.0683,-5.0337,-4.9692,-4.9157,-4.8113,-4.6611,-4.5795,-4.4965,-4.4188,-4.3899,-4.3899,-4.4132,-4.4043,-4.3881,-4.3631,-4.3548,-4.3479,-4.3479,-4.3479,-4.3479,-4.3479,-4.3479,-4.3479,-4.3479,-4.3479,-4.3406,-4.3221,-4.2717,-4.2235,-4.183,-4.0742,0.0,0.0,0.0,0.0,0.0,0.0,0.0,0.0,0.0,-4.2437,-4.0357,0.0,-4.2047,0.0,-4.137,-4.1939,-4.3332,-4.303,0.0,0.0,-4.3453,-4.3507,-4.3239,-4.3386,-4.3479,-4.3479,-4.3479,-4.3588,-4.3754,-4.3773,-4.388,-4.4202,-4.5367,-4.5993,-4.5529,-4.6029,-4.6471,-4.6507,-4.6544,-4.6397,-4.6195,-4.5663,-4.5241,-4.5021,-4.4363,-4.3521,-4.2548,-4.2251,-4.1822,-4.0864,-4.0595,-4.062,-4.0671,-4.0468,-4.0451,-4.0535,-3.9979,-3.9188,-3.8248,-3.7449,-3.6615,-6.08,-6.08,-6.08,-6.08,-6.0742,-5.9877,-5.9511,-5.9415,-5.8242,-5.7464,-5.6887,-5.5252,-5.3741,-5.2472,-5.2077,-5.1452,-5.0712,-5.0683,-5.0683,-5.0683,-5.0683,-5.0683,-5.0683,-5.0683,-5.024,-4.9385,-4.8506,-4.7415,-4.6063,-4.5021,-4.4267,-4.3791,-4.3597,-4.3597,-4.3756,-4.3772,-4.3695,-4.3496,-4.3479,-4.3479,-4.3479,-4.3479,-4.3479,-4.3479,-4.3479,-4.3479,-4.3479,-4.3479,-4.3332,-4.2983,-4.2543,-4.2139,-4.1791,-4.0928,-4.0065,0.0,0.0,0.0,0.0,0.0,0.0,0.0,0.0,0.0,0.0,0.0,-4.2121,-4.1664,-4.1956,-4.2543,-4.3423,-4.3111,-4.3002,-4.3442,-4.3479,-4.3479,-4.3479,-4.3479,-4.3479,-4.3479,-4.3479,-4.3479,-4.3479,-4.3479,-4.3479,-4.3479,-4.4268,-4.48,-4.48,-4.5388,-4.5902,-4.5902,-4.5902,-4.5755,-4.5443,-4.469,-4.4176,-4.414,-4.3791,-4.3123,-4.2021,-4.181,-4.1442,-4.036,-4.0113,-4.0113,-4.0113,-4.0113,-4.0113,-3.9978,-3.9447,-3.869,-3.795,-3.7456,-3.6828,-6.08,-6.08,-6.08,-6.0742,-6.0569,-5.9704,-5.9338,-5.9242,-5.7676,-5.6926,-5.6753,-5.5184,-5.403,-5.3135,-5.2288,-5.1471,-5.0712,-5.0683,-5.0683,-5.0683,-5.0683,-5.0683,-5.0683,-5.0683,-5.0183,-4.9183,-4.7824,-4.6622,-4.5636,-4.4249,-4.3548,-4.3496,-4.3479,-4.3479,-4.3479,-4.3479,-4.3479,-4.3479,-4.3479,-4.3479,-4.3479,-4.3479,-4.3479,-4.3479,-4.3479,-4.3479,-4.3479,-4.3479,-4.3167,-4.2488,-4.2451,-4.2139,-4.1442,-4.1297,-4.0891,0.0,-4.0708,0.0,0.0,0.0,0.0,0.0,0.0,0.0,0.0,-4.2396,-4.2451,-4.2451,-4.3094,-4.3479,-4.3479,-4.3479,-4.3479,-4.3479,-4.3479,-4.3479,-4.3479,-4.3479,-4.3479,-4.3479,-4.3479,-4.3479,-4.3479,-4.3479,-4.3479,-4.3479,-4.357,-4.3846,-4.4415,-4.5076,-4.5461,-4.559,-4.559,-4.5186,-4.4635,-4.3975,-4.3552,-4.3516,-4.3497,-4.3105,-4.1982,-4.181,-4.1442,-4.041,-4.0113,-4.0113,-4.0113,-4.0113,-4.0113,-4.007,-3.9447,-3.869,-3.8007,-3.7648,-3.7175,-6.08,-6.08,-6.08,-6.0396,-5.9685,-5.8858,-5.8531,-5.8454,-5.7434,-5.6618,-5.5876,-5.4914,-5.401,-5.3164,-5.2269,-5.1452,-5.0702,-5.0683,-5.0683,-5.0683,-5.0683,-5.0683,-5.0683,-5.0683,-4.9856,-4.8375,-4.7764,-4.6586,-4.4838,-4.421,-4.3756,-4.3496,-4.3479,-4.3479,-4.3479,0.0,0.0,0.0,-4.3479,-4.3479,-4.3479,-4.3479,-4.3479,-4.3479,-4.3479,0.0,-4.3479,-4.3479,-4.3441,-4.3294,-4.3294,0.0,0.0,0.0,0.0,0.0,0.0,0.0,0.0,0.0,0.0,0.0,-4.2158,-4.2158,-4.2304,-4.2892,-4.3276,-4.3294,-4.3423,-4.3479,-4.3479,-4.3479,-4.3479,-4.3479,-4.3479,-4.3479,-4.3479,-4.3479,-4.3479,-4.3479,-4.3479,-4.3479,-4.3479,-4.3479,-4.3479,-4.3479,-4.3479,-4.3552,-4.3699,-4.392,-4.3975,-4.3938,-4.4084,-4.3938,-4.3753,-4.3606,-4.3479,-4.3479,-4.3479,-4.3032,-4.2065,-4.181,-4.142,-4.0311,-4.0113,-4.0113,-4.0113,-4.0113,-4.0087,-4.0113,-3.9437,-3.869,-3.795,-3.7279,-3.6569,-6.08,-6.08,-6.08,-6.0281,0.0,-5.8646,-5.805,-5.7588,-5.6722,-5.6118,-5.5607,-5.4395,-5.3606,-5.3126,-5.1875,-5.1087,-5.0683,-5.0683,-5.0683,-5.0683,-5.0683,-5.0683,-5.0693,-5.026,-4.9375,-4.8087,-4.7148,-4.5994,-4.4623,-4.4035,-4.3679,-4.3496,-4.3479,-4.3479,-4.3479,-4.3479,-4.3479,-4.3479,-4.3479,-4.3479,-4.3479,-4.3479,-4.3479,-4.3479,-4.3479,0.0,0.0,0.0,0.0,0.0,0.0,0.0,0.0,0.0,0.0,-4.2304,-4.2286,-4.2103,-4.1735,-4.2066,-4.2451,-4.2855,-4.2873,-4.2892,-4.2892,-4.3276,-4.3479,-4.3479,-4.3479,-4.3479,-4.3479,-4.3479,-4.3479,-4.3479,-4.3479,-4.3479,-4.3479,-4.3479,-4.3479,-4.3479,-4.3479,-4.3479,-4.3479,-4.3479,-4.3479,-4.3479,-4.3479,-4.3479,-4.3479,-4.3479,-4.3479,-4.3479,-4.3479,-4.3479,-4.3479,-4.3479,-4.3479,-4.3479,-4.3479,-4.3032,-4.2,-4.181,-4.1442,-4.0385,-4.0113,-4.0113,-4.0113,-4.0113,-3.9978,-3.9558,-3.8897,-3.8117,-3.7381,-3.6873,-3.6399,-6.08,-6.0781,-6.0646,-6.0089,-5.9223,-5.8415,-5.7588,-5.6733,-5.6011,0.0,0.0,-5.3857,-5.3126,-5.2856,-5.1375,-5.0683,-5.0683,-5.0683,-5.0683,-5.0683,-5.0683,-5.0683,-5.0654,-4.9798,-4.8933,-4.8058,-4.6672,-4.5521,-4.4585,-4.3974,-4.3614,-4.3496,-4.3479,-4.3479,-4.3479,-4.3479,-4.3479,-4.3479,-4.3479,-4.3479,-4.3479,-4.3479,-4.3479,-4.3479,-4.3479,-4.3479,-4.3479,-4.3479,-4.3203,-4.2543,-4.2506,-4.2525,-4.2506,-4.2506,-4.28,-4.3441,-4.3479,-4.3479,-4.3479,-4.3479,-4.3479,-4.3479,-4.3479,-4.3479,-4.3479,-4.3479,-4.3479,-4.3479,-4.3479,-4.3479,-4.3479,-4.3479,-4.3479,-4.3479,-4.3479,-4.3479,-4.3479,-4.3479,-4.3479,-4.3479,-4.3479,-4.3479,-4.3479,-4.3479,-4.3479,-4.3479,-4.3479,-4.3479,-4.3479,-4.3479,-4.3479,-4.3479,-4.3479,-4.3479,-4.3479,-4.3479,-4.3479,-4.3479,-4.3479,-4.3087,-4.2144,-4.181,-4.137,-4.0286,-4.0096,-4.0113,-4.0113,-4.0113,-3.9825,-3.9059,-3.8302,-3.7557,-3.6828,-3.6492,-3.6196,-6.08,-6.0723,-5.9992,-5.9204,-5.8415,-5.755,-5.6676,-5.5876,-5.5752,-5.5318,-5.4587,-5.3626,-5.2788,-5.2019,-5.1106,-5.0683,-5.0683,-5.0683,-5.0683,-5.0683,-5.0683,-5.0683,-5.0654,-4.9817,-4.8952,-4.8077,-4.7185,-4.6001,-4.4707,-4.4474,-4.414,-4.3582,-4.3479,-4.3479,-4.3479,-4.3479,-4.3479,-4.3479,-4.3479,-4.3479,-4.3479,-4.3479,-4.3479,-4.3479,-4.3479,-4.3479,-4.3479,-4.3479,-4.346,-4.3332,-4.3349,-4.3331,-4.3332,-4.3296,-4.3386,-4.3496,-4.3479,-4.3479,-4.3479,-4.3479,-4.3479,-4.3479,-4.3479,-4.3479,-4.3479,-4.3479,-4.3479,-4.3479,-4.3479,-4.3479,-4.3479,-4.3479,-4.3479,-4.3479,-4.3479,-4.3479,-4.3479,-4.3479,-4.3479,-4.3479,-4.3479,-4.3479,-4.3479,-4.3479,-4.3479,-4.3479,-4.3479,-4.3479,-4.3479,-4.3479,-4.3479,-4.3479,-4.3479,-4.3479,-4.3479,-4.3479,-4.3479,-4.3479,-4.3479,-4.3123,-4.2,-4.181,-4.1375,-4.0286,-4.0096,-4.0113,-4.0113,-4.0113,-3.9731,-3.9005,-3.8246,-3.7528,-3.6707,-3.6117,-3.5668,-6.08,-6.0685,-5.9877,-5.905,-5.8204,-5.6876,-5.6069,-5.5703,-5.5684,-5.5241,-5.4434,-5.3587,-5.2712,-5.1865,-5.1048,-5.0683,-5.0683,-5.0683,-5.0683,-5.0683,-5.0683,-5.0683,-5.0577,-4.9317,-4.8385,-4.7745,-4.6323,-4.5173,-4.4308,-4.4095,-4.3823,-4.3513,-4.3479,-4.3479,-4.3479,-4.3479,-4.3479,-4.3479,-4.3479,-4.3479,-4.3479,-4.3479,-4.3479,-4.3479,-4.3479,-4.3479,-4.3479,-4.3479,-4.3479,-4.3479,-4.3479,-4.3479,-4.3479,-4.3479,-4.3479,-4.3479,-4.3479,-4.3479,-4.3479,-4.3479,-4.3479,-4.3479,-4.3479,-4.3479,-4.3479,-4.3479,-4.3479,-4.3479,-4.3479,-4.3479,-4.3479,-4.3479,-4.3479,-4.3479,-4.3479,-4.3479,-4.3479,-4.3479,-4.3479,-4.3479,-4.3479,-4.3479,-4.3479,-4.3479,-4.3479,-4.3479,-4.3479,-4.3479,-4.3479,-4.3479,-4.3479,-4.3479,-4.3479,-4.3479,-4.3479,-4.3479,-4.3479,-4.3479,-4.3479,-4.3032,-4.2062,-4.181,-4.1308,-4.036,-4.0113,-4.0113,-4.0113,-4.0113,-3.9584,-3.8541,-3.8092,-3.7397,-3.6352,-3.5701,-3.5522,-6.0685,-6.0435,-5.9588,-5.8646,-5.7607,-5.628,-5.5684,-5.5684,-5.5684,-5.5145,-5.4184,-5.3491,-5.2626,-5.1606,-5.0952,-5.0683,-5.0683,-5.0683,-5.0683,-5.0683,-5.0683,-5.0596,-5.026,-4.8798,-4.7827,-4.719,-4.5532,-4.4468,-4.4013,-4.3742,-4.3563,-4.3496,-4.3479,-4.3479,-4.3479,-4.3479,-4.3479,-4.3479,-4.3479,-4.3479,-4.3479,-4.3479,-4.3479,-4.3479,-4.3479,-4.3479,-4.3479,-4.3479,-4.3479,-4.3479,-4.3479,-4.3479,-4.3479,-4.3479,-4.3479,-4.3479,-4.3479,-4.3479,-4.3479,-4.3479,-4.3479,-4.3479,-4.3479,-4.3479,-4.3479,-4.3479,-4.3479,-4.3479,-4.3479,-4.3479,-4.3479,-4.3479,-4.3479,-4.3479,-4.3479,-4.3479,-4.3479,-4.3479,-4.3479,-4.3479,-4.3479,-4.3479,-4.3479,-4.3479,-4.3479,-4.3479,-4.3479,-4.3479,-4.3479,-4.3479,-4.3479,-4.3462,-4.341,-4.3375,-4.3444,-4.3357,-4.3375,-4.3444,-4.3356,-4.2847,-4.2062,-4.1707,-4.1241,-4.0336,-4.0113,-4.0113,-4.0113,-4.0113,-3.948,-3.829,-3.7851,-3.734,-3.591,-3.5554,-3.5489,-6.0339,-5.9569,-5.8781,-5.7434,-5.603,-5.578,-5.5684,-5.5684,-5.5684,-5.478,-5.3414,-5.3222,-5.2318,-5.0943,-5.075,-5.0683,-5.0683,-5.0683,-5.0683,-5.0683,-5.0683,-5.0289,-4.9529,-4.8538,-4.752,-4.6446,-4.5441,-4.4612,-4.4001,-4.394,-4.3788,-4.3512,-4.3479,-4.3479,-4.3479,-4.3479,-4.3479,-4.3479,-4.3479,-4.3479,-4.3479,-4.3479,-4.3479,-4.3479,-4.3479,-4.3479,-4.3479,-4.3479,-4.3479,-4.3479,-4.3479,-4.3479,-4.3479,-4.3479,-4.3479,-4.3479,-4.3479,-4.3479,-4.3479,-4.3479,-4.3479,-4.3479,-4.3479,-4.3479,-4.3479,-4.3479,-4.3479,-4.3479,-4.3479,-4.3479,-4.3479,-4.3479,-4.3479,-4.3479,-4.3479,-4.3479,-4.3479,-4.3479,-4.3479,-4.3479,-4.3479,-4.3479,-4.3479,-4.3479,-4.3479,-4.3479,-4.3479,-4.3479,-4.3479,-4.3479,-4.3444,-4.3392,-4.3087,-4.3014,-4.3268,-4.305,-4.3014,-4.3303,-4.3087,-4.2539,-4.1895,-4.1313,-4.0756,-4.0328,-4.0113,-4.0113,-4.0113,-4.0045,-3.9558,-3.8374,-3.7793,-3.7294,-3.5958,-3.5489,-3.5489,-6.0281,-5.9435,-5.8646,-5.728,-5.5799,-5.5684,-5.5684,-5.5684,-5.5684,-5.4761,-5.3299,-5.3203,-5.2279,-5.0702,-5.0683,-5.0683,-5.0683,-5.0683,-5.0683,-5.0683,-5.0683,-5.024,-4.9365,-4.8295,-4.7163,-4.5969,-4.4951,-4.4209,-4.3772,-4.3728,-4.3629,-4.3513,-4.3479,-4.3479,-4.3479,-4.3479,-4.3479,-4.3479,-4.3479,-4.3479,-4.3479,-4.3479,-4.3479,-4.3479,-4.3479,-4.3479,-4.3479,-4.3479,-4.3479,-4.3479,-4.3479,-4.3479,-4.3479,-4.3479,-4.3479,-4.3479,-4.3479,-4.3479,-4.3479,-4.3479,-4.3479,-4.3479,-4.3479,-4.3479,-4.3479,-4.3479,-4.3479,-4.3479,-4.3479,-4.3479,-4.3479,-4.3479,-4.3479,-4.3479,-4.3479,-4.3479,-4.3479,-4.3479,-4.3479,-4.3479,-4.3479,-4.3479,-4.3479,-4.3479,-4.3479,-4.3479,-4.3479,-4.3479,-4.3479,-4.3479,-4.3357,-4.3032,-4.2541,-4.2462,-4.2865,-4.2883,-4.2693,-4.256,-4.2637,-4.244,-4.149,-4.1133,-4.0726,-4.0196,-4.0121,-4.0113,-4.0113,-4.0045,-3.9705,-3.8596,-3.744,-3.6753,-3.5716,-3.5504,-3.5489,-5.9954,-5.9069,-5.805,-5.6857,-5.5722,-5.5684,-5.5684,-5.5645,-5.5472,-5.4549,-5.3241,-5.2953,-5.2049,-5.0818,-5.0683,-5.0683,-5.0683,-5.0683,-5.0683,-5.0673,-5.0462,-4.9894,-4.899,-4.7807,-4.6616,-4.548,-4.4485,-4.3833,-4.3531,-4.3479,-4.3479,-4.3479,-4.3479,-4.3479,-4.3479,-4.3479,-4.3479,-4.3479,-4.3479,-4.3479,-4.3479,-4.3479,-4.3479,-4.3479,-4.3479,-4.3479,-4.3479,-4.3479,-4.3479,-4.3479,-4.3479,-4.3479,-4.3479,-4.3479,-4.3479,-4.3479,-4.3479,-4.3479,-4.3479,-4.3479,-4.3479,-4.3479,-4.3479,-4.3479,-4.3479,-4.3479,-4.3479,-4.3479,-4.3479,-4.3479,-4.3479,-4.3479,-4.3479,-4.3479,-4.3479,-4.3479,-4.3479,-4.3479,-4.3479,-4.3479,-4.3479,-4.3479,-4.3479,-4.3479,-4.3479,-4.3479,-4.3479,-4.3479,-4.3479,-4.3479,-4.3322,-4.277,-4.2185,-4.2038,-4.238,-4.2203,-4.2021,-4.2,-4.2101,-4.181,-4.1018,-4.0874,-4.0655,-4.0146,-4.0096,-4.0113,-4.0113,-4.0045,-3.9705,-3.869,-3.7584,-3.6477,-3.5651,-3.5522,-3.5489,-5.9088,-5.8165,-5.653,-5.5838,-5.5684,-5.5684,-5.5684,-5.5645,-5.4914,-5.4049,-5.3164,-5.2365,-5.1491,-5.0712,-5.0683,-5.0683,-5.0683,-5.0683,-5.0683,-5.0616,-4.9875,-4.9009,-4.8106,-4.6927,-4.5767,-4.4787,-4.4221,-4.3804,-4.3496,-4.3479,-4.3479,-4.3479,-4.3479,-4.3479,-4.3479,-4.3479,-4.3479,-4.3479,-4.3479,-4.3479,-4.3479,-4.3479,-4.3479,-4.3479,-4.3479,-4.3479,-4.3479,-4.3479,-4.3479,-4.3479,-4.3479,-4.3479,-4.3479,-4.3479,-4.3479,-4.3479,-4.3479,-4.3479,-4.3479,-4.3479,-4.3479,-4.3479,-4.3479,-4.3479,-4.3479,-4.3479,-4.3479,-4.3479,-4.3479,-4.3479,-4.3479,-4.3479,-4.3479,-4.3479,-4.3479,-4.3479,-4.3479,-4.3479,-4.3479,-4.3479,-4.3479,-4.3479,-4.3479,-4.3479,-4.3479,-4.3479,-4.3479,-4.3479,-4.3479,-4.3479,-4.325,-4.2752,-4.2223,-4.1832,-4.181,-4.1599,-4.1468,-4.1402,-4.1268,-4.1041,-4.0803,-4.0552,-4.0286,-4.0121,-4.0096,-4.0113,-4.0113,-3.9825,-3.9305,-3.8469,-3.7541,-3.6554,-3.5668,-3.5522,-3.5489,-5.8704,-5.7376,-5.6203,-5.5684,-5.5684,-5.5684,-5.5684,-5.5607,-5.4857,-5.401,-5.3145,-5.2269,-5.1452,-5.0683,-5.0683,-5.0683,-5.0683,-5.0683,-5.0683,-5.0596,-4.9798,-4.8933,-4.802,-4.6664,-4.5496,-4.464,-4.3974,-4.3612,-4.3513,-4.3479,-4.3479,-4.3479,-4.3479,-4.3479,-4.3479,-4.3479,-4.3479,-4.3479,-4.3479,-4.3479,-4.3479,-4.3479,-4.3479,-4.3479,-4.3479,-4.3479,-4.3479,-4.3479,-4.3479,-4.3479,-4.3479,-4.3479,-4.3479,-4.3479,-4.3479,-4.3479,-4.3479,-4.3479,-4.3479,-4.3479,-4.3479,-4.3479,-4.3479,-4.3479,-4.3479,-4.3479,-4.3479,-4.3479,-4.3479,-4.3479,-4.3479,-4.3479,-4.3479,-4.3479,-4.3479,-4.3479,-4.3479,-4.3479,-4.3479,-4.3479,-4.3479,-4.3479,-4.3479,-4.3479,-4.3479,-4.3479,-4.3479,-4.3479,-4.3479,-4.3479,-4.3322,-4.277,-4.2183,-4.1664,-4.1246,-4.1087,-4.0949,-4.0803,-4.0655,-4.0648,-4.0473,-4.036,-4.0121,-4.0096,-4.0113,-4.0113,-4.0113,-4.0045,-3.9411,-3.8358,-3.7411,-3.6753,-3.5765,-3.5619,-3.5522,-5.7877,-5.6599,-5.5934,-5.5684,-5.5684,-5.5684,-5.5549,-5.5241,-5.4434,-5.3606,-5.2741,-5.1895,-5.1202,-5.077,-5.0683,-5.0683,-5.0683,-5.0683,-5.0567,-5.0221,-4.9375,-4.8548,-4.7597,-4.626,-4.5224,-4.4576,-4.3836,-4.3479,-4.3479,-4.3479,-4.3479,-4.3479,-4.3479,-4.3479,-4.3479,-4.3479,-4.3479,-4.3479,-4.3479,-4.3479,-4.3479,-4.3479,-4.3479,-4.3479,-4.3479,-4.3479,-4.3479,-4.3479,-4.3479,-4.3479,-4.3479,-4.3479,-4.3479,-4.3479,-4.3479,-4.3479,-4.3479,-4.3479,-4.3479,-4.3479,-4.3479,-4.3479,-4.3479,-4.3479,-4.3479,-4.3479,-4.3479,-4.3479,-4.3479,-4.3479,-4.3479,-4.3479,-4.3479,-4.3479,-4.3479,-4.3479,-4.3479,-4.3479,-4.3479,-4.3479,-4.3479,-4.3479,-4.3479,-4.3479,-4.3479,-4.3479,-4.3479,-4.3479,-4.3479,-4.3479,-4.3303,-4.2788,-4.2183,-4.1599,-4.1087,-4.078,-4.0601,-4.0449,-4.0417,-4.036,-4.0286,-4.0171,-4.0113,-4.0113,-4.0113,-4.0113,-4.0113,-4.0113,-3.9411,-3.8358,-3.7761,-3.7189,-3.6399,-3.5668,-3.5587,-5.6569,-5.5799,-5.5684,-5.5684,-5.5684,-5.5684,-5.5241,-5.453,-5.3664,-5.2846,-5.2019,-5.1125,-5.0789,-5.0683,-5.0683,-5.0683,-5.0683,-5.0683,-5.0327,-4.9606,-4.8644,-4.7817,-4.7039,-4.5744,-4.4895,-4.4474,-4.382,-4.3496,-4.3479,-4.3479,-4.3479,-4.3479,-4.3479,-4.3479,-4.3479,-4.3479,-4.3479,-4.3479,-4.3479,-4.3479,-4.3479,-4.3479,-4.3479,-4.3479,-4.3479,-4.3479,-4.3479,-4.3479,-4.3479,-4.3479,-4.3479,-4.3479,-4.3479,-4.3479,-4.3479,-4.3479,-4.3479,-4.3479,-4.3479,-4.3479,-4.3479,-4.3479,-4.3479,-4.3479,-4.3479,-4.3479,-4.3479,-4.3479,-4.3479,-4.3479,-4.3479,-4.3479,-4.3479,-4.3479,-4.3479,-4.3479,-4.3479,-4.3479,-4.3479,-4.3479,-4.3479,-4.3479,-4.3479,-4.3479,-4.3479,-4.3479,-4.3479,-4.3479,-4.3479,-4.3479,-4.3268,-4.2827,-4.2362,-4.1853,-4.1173,-4.0546,-4.0336,-4.0171,-4.0196,-4.0171,-4.0196,-4.0113,-4.0113,-4.0113,-4.0113,-4.0113,-4.0113,-4.0045,-3.9705,-3.8843,-3.8274,-3.7544,-3.6692,-3.5975,-3.5619,-5.703,-5.5761,-5.5684,-5.5684,-5.5684,-5.5684,-5.5241,-5.4434,-5.3587,-5.2722,-5.1875,-5.1048,-5.0683,-5.0683,-5.0683,-5.0683,-5.0683,-5.0693,-5.0539,-5.0077,-4.8798,-4.7981,-4.7377,-4.567,-4.4414,-4.3899,-4.3614,-4.3479,-4.3479,-4.3479,-4.3479,-4.3479,-4.3479,-4.3479,-4.3479,-4.3479,-4.3479,-4.3479,-4.3479,-4.3479,-4.3479,-4.3479,-4.3479,-4.3479,-4.3479,-4.3479,-4.3479,-4.3479,-4.3479,-4.3479,-4.3479,-4.3479,-4.3479,-4.3479,-4.3479,-4.3479,-4.3479,-4.3479,-4.3479,-4.3479,-4.3479,-4.3479,-4.3479,-4.3479,-4.3479,-4.3479,-4.3479,-4.3479,-4.3479,-4.3479,-4.3479,-4.3479,-4.3479,-4.3479,-4.3479,-4.3479,-4.3479,-4.3479,-4.3479,-4.3479,-4.3479,-4.3479,-4.3479,-4.3479,-4.3497,-4.3462,-4.3462,-4.3479,-4.3479,-4.3462,-4.3479,-4.3232,-4.2733,-4.2302,-4.1849,-4.1331,-4.0961,-4.0618,-4.0434,-4.0171,-4.0121,-4.0113,-4.0113,-4.0113,-4.0113,-4.0113,-4.0113,-3.9969,-3.9679,-3.9102,-3.8374,-3.7587,-3.6768,-3.6196,-3.5686,-5.6703,-5.5722,-5.5684,-5.5684,-5.5684,-5.5684,-5.5241,-5.4434,-5.3587,-5.2702,-5.1865,-5.1068,-5.0683,-5.0683,-5.0683,-5.0683,-5.0683,-5.0683,-5.0683,-5.05,-4.9279,-4.8317,-4.7521,-4.5584,-4.4392,-4.3931,-4.3631,-4.3496,-4.3479,-4.3479,-4.3479,-4.3479,-4.3479,-4.3479,-4.3479,-4.3479,-4.3479,-4.3479,-4.3479,-4.3479,-4.3479,-4.3479,-4.3479,-4.3479,-4.3479,-4.3479,-4.3479,-4.3479,-4.3479,-4.3479,-4.3479,-4.3479,-4.3479,-4.3479,-4.3479,-4.3479,-4.3479,-4.3479,-4.3479,-4.3479,-4.3479,-4.3479,-4.3479,-4.3479,-4.3479,-4.3479,-4.3479,-4.3479,-4.3479,-4.3479,-4.3479,-4.3479,-4.3479,-4.3479,-4.3479,-4.3479,-4.3479,-4.3479,-4.3479,-4.3479,-4.3479,-4.3479,-4.3479,-4.3479,-4.3392,-4.3286,-4.3375,-4.3375,-4.3339,-4.3375,-4.3427,-4.3356,-4.294,-4.2674,-4.2616,-4.2162,-4.1643,-4.1218,-4.0814,-4.0441,-4.0179,-4.0121,-4.0113,-4.0113,-4.0113,-4.0113,-4.0113,-4.0113,-3.9876,-3.9146,-3.8569,-3.779,-3.704,-3.6101,-3.5587,-5.5761,-5.5684,-5.5684,-5.5684,-5.5684,-5.5684,-5.5184,-5.4318,-5.3568,-5.2635,-5.175,-5.101,-5.0683,-5.0683,-5.0683,-5.0683,-5.0683,-5.0683,-5.0683,-5.0452,-4.9644,-4.8481,-4.6685,-4.5245,-4.4546,-4.4337,-4.3791,-4.3513,-4.3479,-4.3479,-4.3479,-4.3479,-4.3479,-4.3479,-4.3479,-4.3479,-4.3479,-4.3479,-4.3479,-4.3479,-4.3479,-4.3479,-4.3479,-4.3479,-4.3479,-4.3479,-4.3479,-4.3479,-4.3479,-4.3479,-4.3479,-4.3479,-4.3479,-4.3479,-4.3479,-4.3479,-4.3479,-4.3479,-4.3479,-4.3479,-4.3479,-4.3479,-4.3479,-4.3479,-4.3479,-4.3479,-4.3479,-4.3479,-4.3479,-4.3479,-4.3479,-4.3479,-4.3479,-4.3479,-4.3479,-4.3479,-4.3479,-4.3479,-4.3479,-4.3497,-4.3479,-4.3462,-4.3427,-4.3391,-4.3069,-4.2958,-4.3087,-4.2958,-4.2995,-4.3105,-4.3392,-4.3286,-4.3069,-4.3032,-4.2958,-4.2809,-4.2289,-4.1853,-4.1353,-4.0838,-4.036,-4.0204,-4.0113,-4.0113,-4.0113,-4.0113,-4.0113,-4.0113,-4.0113,-3.9756,-3.9049,-3.8206,-3.7265,-3.6352,-3.5587,-5.6272,-5.5703,-5.5684,-5.5684,-5.5684,-5.5684,-5.4857,-5.3626,-5.3337,-5.2414,-5.1221,-5.0827,-5.0683,-5.0683,-5.0683,-5.0683,-5.0683,-5.0683,-5.0683,-5.0548,-4.9817,-4.7943,-4.5938,-4.4957,-4.446,-4.4146,-4.3742,-4.3479,-4.3479,-4.3479,-4.3479,-4.3479,-4.3479,-4.3479,-4.3479,-4.3479,-4.3479,-4.3479,-4.3479,-4.3479,-4.3479,-4.3479,-4.3479,-4.3479,-4.3479,-4.3479,-4.3479,-4.3479,-4.3479,-4.3479,-4.3479,-4.3479,-4.3479,-4.3479,-4.3479,-4.3479,-4.3479,-4.3479,-4.3479,-4.3479,-4.3479,-4.3479,-4.3479,-4.3479,-4.3479,-4.3479,-4.3479,-4.3479,-4.3479,-4.3479,-4.3479,-4.3479,-4.3479,-4.3479,-4.3479,-4.3479,-4.3479,-4.3479,-4.3479,-4.3462,-4.316,-4.3142,-4.3142,-4.281,-4.2424,-4.2539,-4.2482,-4.2444,-4.2578,-4.2807,-4.3087,-4.341,-4.3356,-4.3339,-4.3286,-4.3196,-4.2922,-4.2482,-4.1955,-4.1331,-4.0791,-4.036,-4.0221,-4.0113,-4.0113,-4.0113,-4.0113,-4.0113,-4.0113,-4.0113,-3.9092,-3.8064,-3.7442,-3.6631,-3.5846,-5.6145,-5.5703,-5.5684,-5.5684,-5.5684,-5.5684,-5.4953,-5.3837,-5.3318,-5.2472,-5.1337,-5.0818,-5.0683,-5.0683,-5.0683,-5.0683,-5.0683,-5.0683,-5.0683,-5.0462,-4.9413,-4.7742,-4.6065,-4.5107,-4.4455,-4.4219,-4.3726,-4.3513,-4.3479,-4.3479,-4.3479,-4.3479,-4.3479,-4.3479,-4.3479,-4.3479,-4.3479,-4.3479,-4.3479,-4.3479,-4.3479,-4.3479,-4.3479,-4.3479,-4.3479,-4.3479,-4.3479,-4.3479,-4.3479,-4.3479,-4.3479,-4.3479,-4.3479,-4.3479,-4.3479,-4.3479,-4.3479,-4.3479,-4.3479,-4.3479,-4.3479,-4.3479,-4.3479,-4.3479,-4.3479,-4.3479,-4.3479,-4.3479,-4.3479,-4.3479,-4.3479,-4.3479,-4.3479,-4.3479,-4.3479,-4.3479,-4.3479,-4.3479,-4.3375,-4.3178,-4.292,-4.2637,-4.281,-4.2165,-4.1955,-4.1952,-4.1916,-4.2038,-4.2241,-4.2518,-4.2845,-4.3214,-4.3462,-4.3444,-4.341,-4.3356,-4.316,-4.2771,-4.2038,-4.1508,-4.0885,-4.036,-4.0229,-4.0113,-4.0113,-4.0113,-4.0113,-4.0113,-4.0113,-3.9756,-3.8789,-3.8149,-3.7573,-3.6874,-3.6086,-5.5684,-5.5684,-5.5684,-5.5684,-5.5684,-5.5684,-5.5126,-5.426,-5.351,-5.2626,-5.1664,-5.0971,-5.0702,-5.0683,-5.0683,-5.0683,-5.0683,-5.0683,-5.0433,-4.9894,-4.8856,-4.7482,-4.6301,-4.5119,-4.4612,-4.4433,-4.3855,-4.3548,-4.3479,-4.3479,-4.3479,-4.3479,-4.3479,-4.3479,-4.3479,-4.3479,-4.3479,-4.3479,-4.3479,-4.3479,-4.3479,-4.3479,-4.3479,-4.3479,-4.3479,-4.3479,-4.3479,-4.3479,-4.3479,-4.3479,-4.3479,-4.3479,-4.3479,-4.3479,-4.3479,-4.3479,-4.3479,-4.3479,-4.3479,-4.3479,-4.3479,-4.3479,-4.3479,-4.3479,-4.3479,-4.3479,-4.3479,-4.3479,-4.3479,-4.3479,-4.3479,-4.3479,-4.3479,-4.3479,-4.3479,-4.3479,-4.3479,-4.3479,-4.3286,-4.2788,-4.2674,-4.2304,-4.1979,-4.1664,-4.1446,-4.1415,-4.1353,-4.1397,-4.1743,-4.2118,-4.2598,-4.316,-4.3339,-4.3479,-4.3479,-4.3462,-4.3249,-4.2885,-4.1982,-4.1286,-4.0594,-4.0196,-4.0146,-4.0113,-4.0113,-4.0113,-4.0113,-4.0113,-4.0113,-3.9825,-3.9156,-3.8541,-3.7905,-3.7054,-3.6228,-5.5684,-5.5684,-5.5684,-5.5684,-5.5684,-5.5665,-5.4857,-5.351,-5.3299,-5.2395,-5.1183,-5.077,-5.0702,-5.0683,-5.0683,-5.0683,-5.0683,-5.0606,-5.0048,-4.8644,-4.8394,-4.7059,-4.5804,-4.4838,-4.4624,-4.4425,-4.3855,-4.3513,-4.3479,-4.3479,-4.3479,-4.3479,-4.3479,-4.3479,-4.3479,-4.3479,-4.3479,-4.3479,-4.3479,-4.3479,-4.3479,-4.3479,-4.3479,-4.3479,-4.3479,-4.3479,-4.3479,-4.3479,-4.3479,-4.3479,-4.3479,-4.3479,-4.3479,-4.3479,-4.3479,-4.3479,-4.3479,-4.3479,-4.3479,-4.3479,-4.3479,-4.3479,-4.3479,-4.3479,-4.3479,-4.3479,-4.3479,-4.3479,-4.3479,-4.3479,-4.3479,-4.3479,-4.3479,-4.3479,-4.3479,-4.3479,-4.3479,-4.3479,-4.325,-4.2751,-4.2282,-4.1937,-4.1729,-4.0914,-4.0744,-4.0821,-4.0838,-4.0744,-4.1168,-4.1703,-4.2342,-4.2958,-4.3321,-4.3462,-4.3444,-4.3321,-4.2885,-4.2563,-4.1754,-4.1105,-4.041,-4.0113,-4.0113,-4.0113,-4.0113,-4.0113,-4.0113,-4.0113,-4.0113,-3.9808,-3.9463,-3.8707,-3.7917,-3.7128,-3.6368,-5.5684,-5.5684,-5.5684,-5.5684,-5.5684,-5.5665,-5.4741,-5.3414,-5.3203,-5.2279,-5.0952,-5.0683,-5.0683,-5.0683,-5.0683,-5.0683,-5.0683,-5.0654,-4.976,-4.8471,-4.8038,-4.7089,-4.5569,-4.483,-4.4514,-4.428,-4.3775,-4.3513,-4.3479,-4.3479,-4.3479,-4.3479,-4.3479,-4.3479,-4.3479,-4.3479,-4.3479,-4.3479,-4.3479,-4.3479,-4.3479,-4.3479,-4.3479,-4.3479,-4.3479,-4.3479,-4.3479,-4.3479,-4.3479,-4.3479,-4.3479,-4.3479,-4.3479,-4.3479,-4.3479,-4.3479,-4.3479,-4.3479,-4.3479,-4.3479,-4.3479,-4.3479,-4.3479,-4.3479,-4.3479,-4.3479,-4.3479,-4.3479,-4.3479,-4.3479,-4.3479,-4.3479,-4.3479,-4.3479,-4.3479,-4.3479,-4.3479,-4.3479,-4.316,-4.2501,-4.2018,-4.1508,-4.0984,-4.0392,-4.0286,-4.0466,-4.049,-4.0441,-4.099,-4.1552,-4.2118,-4.2694,-4.3214,-4.3444,-4.3427,-4.3087,-4.2446,-4.1961,-4.1296,-4.0774,-4.0279,-4.0146,-4.0113,-4.0113,-4.0113,-4.0113,-4.0113,-4.0113,-4.007,-3.9901,-3.9463,-3.869,-3.7917,-3.7128,-3.6399,-5.5684,-5.5684,-5.5684,-5.5684,-5.5684,-5.553,-5.4626,-5.3318,-5.3068,-5.2068,-5.0923,-5.0683,-5.0683,-5.0683,-5.0683,-5.0683,-5.0644,-5.0356,-4.9452,-4.8259,-4.7855,-4.681,-4.551,-4.4806,-4.435,-4.3943,-4.3647,-4.3496,-4.3479,-4.3479,-4.3479,-4.3479,-4.3479,-4.3479,-4.3479,-4.3479,-4.3479,-4.3479,-4.3479,-4.3479,-4.3479,-4.3479,-4.3479,-4.3479,-4.3479,-4.3479,-4.3479,-4.3479,-4.3479,-4.3479,-4.3479,-4.3479,-4.3479,-4.3479,-4.3479,-4.3479,-4.3479,-4.3479,-4.3479,-4.3479,-4.3479,-4.3479,-4.3479,-4.3479,-4.3479,-4.3479,-4.3479,-4.3479,-4.3479,-4.3479,-4.3479,-4.3479,-4.3479,-4.3479,-4.3479,-4.3479,-4.3479,-4.3444,-4.2847,-4.2124,-4.181,-4.1464,-4.0767,-4.0146,-4.0121,-4.0113,-4.0121,-4.0303,-4.0821,-4.1424,-4.2018,-4.2598,-4.3142,-4.3232,-4.3178,-4.2753,-4.2124,-4.149,-4.0874,-4.0546,-4.0154,-4.0146,-4.0113,-4.0113,-4.0113,-4.0113,-4.0113,-4.0113,-4.0045,-3.9952,-3.9463,-3.869,-3.7917,-3.7144,-3.6384,-5.5684,-5.5684,-5.5684,-5.5684,-5.5588,-5.5011,-5.4164,-5.3183,-5.2481,-5.1606,-5.0779,-5.0683,-5.0683,-5.0683,-5.0683,-5.0683,-5.0491,-5.001,-4.9106,-4.8029,-4.7452,-4.6349,-4.514,-4.472,-4.427,-4.3744,-4.3496,-4.3496,-4.3479,-4.3479,-4.3479,-4.3479,-4.3479,-4.3479,-4.3479,-4.3479,-4.3479,-4.3479,-4.3479,-4.3479,-4.3479,-4.3479,-4.3479,-4.3479,-4.3479,-4.3479,-4.3479,-4.3479,-4.3479,-4.3479,-4.3479,-4.3479,-4.3479,-4.3479,-4.3479,-4.3479,-4.3479,-4.3479,-4.3479,-4.3479,-4.3479,-4.3479,-4.3479,-4.3479,-4.3479,-4.3479,-4.3479,-4.3479,-4.3479,-4.3479,-4.3479,-4.3479,-4.3479,-4.3479,-4.3479,-4.3479,-4.3427,-4.3178,-4.2675,-4.1958,-4.1725,-4.142,-4.0642,-4.0113,-4.0113,-4.0113,-4.0113,-4.0279,-4.0648,-4.1291,-4.1979,-4.256,-4.3142,-4.3032,-4.2883,-4.2324,-4.1746,-4.1127,-4.0601,-4.0368,-4.0121,-4.0121,-4.0113,-4.0113,-4.0113,-4.0113,-4.0113,-4.0113,-4.007,-4.002,-3.9368,-3.8619,-3.786,-3.707,-3.6321,-5.5684,-5.5684,-5.5684,-5.5684,-5.5549,-5.4838,-5.3991,-5.3145,-5.2269,-5.1452,-5.0875,-5.0683,-5.0683,-5.0683,-5.0683,-5.0471,-4.9971,-4.9644,-4.8663,-4.7625,-4.7001,-4.6195,-4.4924,-4.4682,-4.4261,-4.3852,-4.3614,-4.3479,-4.3479,-4.3479,-4.3479,-4.3479,-4.3479,-4.3479,-4.3479,-4.3479,-4.3479,-4.3479,-4.3479,-4.3479,-4.3479,-4.3479,-4.3479,-4.3479,-4.3479,-4.3479,-4.3479,-4.3479,-4.3479,-4.3479,-4.3479,-4.3479,-4.3479,-4.3479,-4.3479,-4.3479,-4.3479,-4.3479,-4.3479,-4.3479,-4.3479,-4.3479,-4.3479,-4.3479,-4.3479,-4.3479,-4.3479,-4.3479,-4.3479,-4.3479,-4.3479,-4.3479,-4.3479,-4.3479,-4.3479,-4.3479,-4.3427,-4.3232,-4.2638,-4.1898,-4.1468,-4.103,-4.0434,-4.0113,-4.0113,-4.0113,-4.0113,-4.0311,-4.0552,-4.1241,-4.1979,-4.2503,-4.3014,-4.294,-4.2675,-4.2162,-4.1552,-4.0891,-4.0417,-4.0179,-4.0113,-4.0113,-4.0113,-4.0113,-4.0113,-4.0113,-4.0113,-4.0113,-4.0113,-3.9969,-3.9049,-3.8218,-3.769,-3.7011,-3.6196,-5.5684,-5.5684,-5.5684,-5.5607,-5.5338,-5.4587,-5.3722,-5.2876,-5.1991,-5.1279,-5.076,-5.0683,-5.0683,-5.0625,-5.0414,-5.0029,-4.9356,-4.9125,-4.8029,-4.7182,-4.6654,-4.5975,-4.5179,-4.4707,-4.4304,-4.3823,-4.3631,-4.3479,-4.3479,-4.3479,-4.3479,-4.3479,-4.3479,-4.3479,-4.3479,-4.3479,-4.3479,-4.3479,-4.3479,-4.3479,-4.3479,-4.3479,-4.3479,-4.3479,-4.3479,-4.3479,-4.3479,-4.3479,-4.3479,-4.3479,-4.3479,-4.3479,-4.3479,-4.3479,-4.3479,-4.3479,-4.3479,-4.3479,-4.3479,-4.3479,-4.3479,-4.3479,-4.3479,-4.3479,-4.3479,-4.3479,-4.3479,-4.3479,-4.3479,-4.3479,-4.3479,-4.3479,-4.3479,-4.3479,-4.3479,-4.3479,-4.3444,-4.3214,-4.2676,-4.1982,-4.1335,-4.075,-4.0262,-4.0113,-4.0113,-4.0113,-4.0096,-4.0336,-4.0648,-4.1291,-4.1979,-4.2464,-4.281,-4.2809,-4.256,-4.2103,-4.1486,-4.0797,-4.0392,-4.0121,-4.0113,-4.0113,-4.0113,-4.0113,-4.0113,-4.0113,-4.0113,-4.0113,-4.0113,-3.9679,-3.8624,-3.795,-3.7632,-3.6799,-3.5846,-5.5684,-5.5684,-5.5684,-5.5299,-5.4587,-5.3741,-5.2876,-5.2038,-5.126,-5.0818,-5.0683,-5.0683,-5.0683,-5.0558,-4.9894,-4.9529,-4.899,-4.8029,-4.724,-4.6682,-4.6154,-4.5513,-4.4788,-4.4631,-4.4252,-4.3823,-4.3597,-4.3496,-4.3479,-4.3479,-4.3479,-4.3479,-4.3479,-4.3479,-4.3479,-4.3479,-4.3479,-4.3479,-4.3479,-4.3479,-4.3479,-4.3479,-4.3479,-4.3479,-4.3479,-4.3479,-4.3479,-4.3479,-4.3479,-4.3479,-4.3479,-4.3479,-4.3479,-4.3479,-4.3479,-4.3479,-4.3479,-4.3479,-4.3479,-4.3479,-4.3479,-4.3479,-4.3479,-4.3479,-4.3479,-4.3479,-4.3479,-4.3479,-4.3479,-4.3479,-4.3479,-4.3479,-4.3479,-4.3479,-4.3479,-4.3479,-4.3462,-4.3357,-4.2791,-4.2185,-4.1534,-4.0868,-4.0286,-4.0179,-4.0113,-4.0113,-4.0146,-4.0368,-4.072,-4.1353,-4.2206,-4.2791,-4.2959,-4.294,-4.256,-4.2083,-4.149,-4.0797,-4.0392,-4.0121,-4.0113,-4.0113,-4.0113,-4.0113,-4.0113,-4.0113,-4.0087,-4.0087,-4.0113,-3.9437,-3.8386,-3.7978,-3.7777,-3.6738,-3.5554,-5.5684,-5.5665,-5.5203,-5.4838,-5.4337,-5.3049,-5.2269,-5.1798,-5.1048,-5.0683,-5.0683,-5.0683,-5.0683,-5.0519,-4.9779,-4.9125,-4.8509,-4.7413,-4.6605,-4.6259,-4.5751,-4.5323,-4.5019,-4.4849,-4.4482,-4.3927,-4.374,-4.3662,-4.358,-4.3479,-4.3479,-4.3479,-4.3479,-4.3479,-4.3479,-4.3479,-4.3479,-4.3479,-4.3479,-4.3479,-4.3479,-4.3479,-4.3479,-4.3479,-4.3479,-4.3479,-4.3479,-4.3479,-4.3479,-4.3479,-4.3479,-4.3479,-4.3479,-4.3479,-4.3479,-4.3479,-4.3479,-4.3479,-4.3479,-4.3479,-4.3479,-4.3479,-4.3479,-4.3479,-4.3479,-4.3479,-4.3479,-4.3479,-4.3479,-4.3479,-4.3479,-4.3479,-4.3479,-4.3479,-4.3479,-4.3479,-4.3462,-4.3321,-4.2995,-4.2384,-4.1768,-4.1127,-4.0521,-4.0229,-4.0121,-4.0113,-4.0121,-4.0279,-4.0689,-4.1241,-4.2226,-4.3249,-4.3303,-4.3214,-4.2696,-4.2162,-4.1599,-4.0967,-4.0417,-4.0196,-4.0121,-4.0113,-4.0113,-4.0113,-4.0113,-4.0087,-4.0087,-3.985,-3.9662,-3.8951,-3.8173,-3.7819,-3.7427,-3.6523,-3.5537,-5.5684,-5.5626,-5.4818,-5.4376,-5.403,-5.2529,-5.1769,-5.151,-5.0952,-5.0683,-5.0683,-5.0683,-5.0683,-5.0394,-4.9567,-4.8682,-4.8086,-4.7067,-4.6297,-4.5787,-4.5568,-4.54,-4.5159,-4.503,-4.4688,-4.4016,-4.3955,-4.3788,-4.358,-4.3479,-4.3479,-4.3479,-4.3479,-4.3479,-4.3479,-4.3479,-4.3479,-4.3479,-4.3479,-4.3479,-4.3479,-4.3479,-4.3479,-4.3479,-4.3479,-4.3479,-4.3479,-4.3479,-4.3479,-4.3479,-4.3479,-4.3479,-4.3479,-4.3479,-4.3479,-4.3479,-4.3479,-4.3479,-4.3479,-4.3479,-4.3479,-4.3479,-4.3479,-4.3479,-4.3479,-4.3479,-4.3479,-4.3479,-4.3479,-4.3479,-4.3479,-4.3479,-4.3479,-4.3479,-4.3479,-4.3479,-4.3479,-4.3392,-4.3142,-4.2578,-4.1997,-4.1446,-4.0868,-4.0368,-4.0171,-4.0121,-4.0146,-4.0204,-4.0744,-4.1375,-4.2286,-4.3374,-4.3444,-4.3356,-4.3032,-4.2424,-4.1796,-4.1178,-4.0625,-4.0229,-4.0146,-4.0096,-4.0113,-4.0113,-4.0113,-4.0113,-4.0087,-3.961,-3.9166,-3.8978,-3.8608,-3.76,-3.6859,-3.6053,-3.5569,-5.5684,-5.5626,-5.4818,-5.401,-5.326,-5.2308,-5.1452,-5.0894,-5.077,-5.0683,-5.0683,-5.0683,-5.0683,-5.0298,-4.9144,-4.8259,-4.8019,-4.6422,-4.5845,-4.5652,-4.5577,-4.5419,-4.5262,-4.5074,-4.4806,-4.4204,-4.4102,-4.3899,-4.3599,-4.3513,-4.3496,-4.3479,-4.3479,-4.3479,-4.3479,-4.3479,-4.3479,-4.3479,-4.3479,-4.3479,-4.3479,-4.3479,-4.3479,-4.3479,-4.3479,-4.3479,-4.3479,-4.3479,-4.3479,-4.3479,-4.3479,-4.3479,-4.3479,-4.3479,-4.3479,-4.3479,-4.3479,-4.3479,-4.3479,-4.3479,-4.3479,-4.3479,-4.3479,-4.3479,-4.3479,-4.3479,-4.3479,-4.3479,-4.3479,-4.3479,-4.3479,-4.3479,-4.3479,-4.3479,-4.3479,-4.3479,-4.3479,-4.3479,-4.3214,-4.2732,-4.2262,-4.181,-4.1291,-4.0814,-4.0254,-4.0146,-4.0196,-4.0254,-4.1213,-4.1874,-4.2562,-4.3286,-4.3444,-4.3444,-4.341,-4.2865,-4.2165,-4.1556,-4.099,-4.0497,-4.0154,-4.0146,-4.0113,-4.0113,-4.0113,-4.0113,-4.007,-3.9808,-3.961,-3.9558,-3.8978,-3.7774,-3.6859,-3.6149,-3.5733,-5.5684,-5.5568,-5.426,-5.351,-5.3106,-5.1741,-5.0971,-5.0731,-5.0683,-5.0683,-5.0683,-5.0683,-5.0683,-5.0221,-4.899,-4.8096,-4.7846,-4.6355,-4.5787,-4.5594,-4.5568,-4.5513,-4.54,-4.5332,-4.5161,-4.4701,-4.4468,-4.4161,-4.3833,-4.3629,-4.3513,-4.3479,-4.3479,-4.3479,-4.3479,-4.3479,-4.3479,-4.3479,-4.3479,-4.3479,-4.3479,-4.3479,-4.3479,-4.3479,-4.3479,-4.3479,-4.3479,-4.3479,-4.3479,-4.3479,-4.3479,-4.3479,-4.3479,-4.3479,-4.3479,-4.3479,-4.3479,-4.3479,-4.3479,-4.3479,-4.3479,-4.3479,-4.3479,-4.3479,-4.3479,-4.3479,-4.3479,-4.3479,-4.3479,-4.3479,-4.3479,-4.3479,-4.3479,-4.3479,-4.3479,-4.3479,-4.3479,-4.3479,-4.3444,-4.3032,-4.2713,-4.2362,-4.1789,-4.1241,-4.0666,-4.0179,-4.0229,-4.0483,-4.1397,-4.2144,-4.2734,-4.3232,-4.3444,-4.3479,-4.3444,-4.2995,-4.248,-4.1895,-4.1313,-4.0744,-4.0229,-4.0121,-4.0113,-4.0113,-4.0113,-4.0113,-4.0113,-4.0113,-3.9927,-3.961,-3.8789,-3.7703,-3.6905,-3.6228,-3.5863,-5.5684,-5.5511,-5.4164,-5.3433,-5.2991,-5.1395,-5.0683,-5.0683,-5.0683,-5.0683,-5.0683,-5.0683,-5.0683,-5.0231,-4.8933,-4.8115,-4.7663,-4.649,-4.5806,-4.5594,-4.5594,-4.5594,-4.5594,-4.5522,-4.5362,-4.5107,-4.4872,-4.4521,-4.3971,-4.3758,-4.3631,-4.3531,-4.3479,-4.3479,-4.3479,-4.3479,-4.3479,-4.3479,-4.3479,-4.3479,-4.3479,-4.3479,-4.3479,-4.3479,-4.3479,-4.3479,-4.3479,-4.3479,-4.3479,-4.3479,-4.3479,-4.3479,-4.3479,-4.3479,-4.3479,-4.3479,-4.3479,-4.3479,-4.3479,-4.3479,-4.3479,-4.3479,-4.3479,-4.3479,-4.3479,-4.3479,-4.3479,-4.3479,-4.3479,-4.3479,-4.3479,-4.3479,-4.3479,-4.3479,-4.3479,-4.3479,-4.3479,-4.3479,-4.3479,-4.3356,-4.3014,-4.2596,-4.2157,-4.1543,-4.0864,-4.0429,-4.0473,-4.0791,-4.1508,-4.2203,-4.2676,-4.3142,-4.3462,-4.3479,-4.3462,-4.3068,-4.2625,-4.1895,-4.1313,-4.0726,-4.0319,-4.0213,-4.013,-4.0113,-4.0113,-4.0113,-4.0113,-4.0113,-3.9808,-3.9463,-3.869,-3.7962,-3.6964,-3.6337,-3.5943,-5.5684,-5.5607,-5.4741,-5.3914,-5.3049,-5.1443,-5.075,-5.0712,-5.0683,-5.0683,-5.0683,-5.0683,-5.0635,-5.0231,-4.8759,-4.8077,-4.7586,-4.6336,-4.5594,-4.5594,-4.5594,-4.5594,-4.5594,-4.554,-4.5476,-4.5191,-4.4977,-4.4651,-4.4076,-4.394,-4.3772,-4.3563,-4.3479,-4.3479,-4.3479,-4.3479,-4.3479,-4.3479,-4.3479,-4.3479,-4.3479,-4.3479,-4.3479,-4.3479,-4.3479,-4.3479,-4.3479,-4.3479,-4.3479,-4.3479,-4.3479,-4.3479,-4.3479,-4.3479,-4.3479,-4.3479,-4.3479,-4.3479,-4.3479,-4.3479,-4.3479,-4.3479,-4.3479,-4.3479,-4.3479,-4.3479,-4.3479,-4.3479,-4.3479,-4.3479,-4.3479,-4.3479,-4.3479,-4.3479,-4.3479,-4.3479,-4.3479,-4.3479,-4.3479,-4.3479,-4.3105,-4.2653,-4.2315,-4.1831,-4.1092,-4.0734,-4.0754,-4.1162,-4.1884,-4.2711,-4.3367,-4.3798,-4.4195,-4.4176,-4.4143,-4.3358,-4.2715,-4.1984,-4.1501,-4.1157,-4.0701,-4.0434,-4.0333,-4.018,-4.0113,-4.0113,-4.0113,-4.0113,-3.9756,-3.9437,-3.9139,-3.8425,-3.732,-3.6461,-3.6086,-5.5684,-5.5568,-5.4203,-5.3491,-5.3049,-5.1991,-5.1221,-5.077,-5.0683,-5.0683,-5.0683,-5.0683,-5.0317,-4.9606,-4.8798,-4.7913,-4.7221,-4.6297,-4.5594,-4.5633,-4.5614,-4.5594,-4.5594,-4.5586,-4.5541,-4.54,-4.5222,-4.4908,-4.4419,-4.419,-4.3818,-4.358,-4.3479,-4.3479,-4.3479,-4.3479,-4.3479,-4.3479,-4.3479,-4.3479,-4.3479,-4.3479,-4.3479,-4.3479,-4.3479,-4.3479,-4.3479,-4.3479,-4.3479,-4.3479,-4.3479,-4.3479,-4.3479,-4.3479,-4.3479,-4.3479,-4.3479,-4.3479,-4.3479,-4.3479,-4.3479,-4.3479,-4.3479,-4.3479,-4.3479,-4.3479,-4.3479,-4.3479,-4.3479,-4.3479,-4.3479,-4.3479,-4.3479,-4.3479,-4.3479,-4.3479,-4.3479,-4.3479,-4.3479,-4.3479,-4.325,-4.305,-4.2787,-4.2713,-4.209,-4.1714,-4.176,-4.2015,-4.2634,-4.3778,-4.464,-4.5002,-4.5296,-4.5204,-4.4894,-4.4061,-4.3553,-4.3083,-4.2567,-4.2115,-4.1587,-4.0917,-4.0527,-4.0417,-4.0248,-4.0113,-4.0113,-4.0045,-3.9714,-3.9394,-3.9086,-3.8553,-3.7512,-3.6707,-3.6259,-5.5684,-5.553,-5.4222,-5.3472,-5.3049,-5.1972,-5.1164,-5.0741,-5.0683,-5.0683,-5.0683,-5.0673,-5.0442,-4.974,-4.8971,-4.8394,-4.7644,-4.6547,-4.6047,-4.599,-4.5691,-4.5633,-4.5594,-4.5614,-4.5586,-4.5522,-4.5371,-4.5055,-4.458,-4.4332,-4.3958,-4.3614,-4.3479,-4.3479,-4.3479,-4.3479,-4.3479,-4.3479,-4.3479,-4.3479,-4.3479,-4.3479,-4.3479,-4.3479,-4.3479,-4.3479,-4.3479,-4.3479,-4.3479,-4.3479,-4.3479,-4.3479,-4.3479,-4.3479,-4.3479,-4.3479,-4.3479,-4.3479,-4.3479,-4.3479,-4.3479,-4.3479,-4.3479,-4.3479,-4.3479,-4.3479,-4.3479,-4.3479,-4.3479,-4.3479,-4.3479,-4.3479,-4.3479,-4.3479,-4.3479,-4.3479,-4.3479,-4.3479,-4.3663,-4.3644,-4.3868,-4.3657,-4.3472,-4.3443,-4.3267,-4.3044,-4.2844,-4.3139,-4.3496,-4.4579,-4.5553,-4.5862,-4.5993,-4.5773,-4.5367,-4.4734,-4.4321,-4.4121,-4.3487,-4.2774,-4.2253,-4.1542,-4.1085,-4.0679,-4.0646,-4.051,-4.0197,-3.9952,-3.961,-3.9289,-3.9005,-3.8386,-3.7587,-3.695,-3.6368,-5.5684,-5.5568,-5.4799,-5.3914,-5.301,-5.1491,-5.0731,-5.0683,-5.0683,-5.0683,-5.0683,-5.0683,-5.0519,-5.0404,-4.9683,-4.9183,-4.8817,-4.7471,-4.7086,-4.6682,-4.622,-4.596,-4.5729,-4.5671,-4.5614,-4.5594,-4.5466,-4.5171,-4.4657,-4.4308,-4.3962,-4.3647,-4.3496,-4.3479,-4.3479,-4.3479,-4.3479,-4.3479,-4.3479,-4.3479,-4.3479,-4.3479,-4.3479,-4.3479,-4.3479,-4.3479,-4.3479,-4.3479,-4.3479,-4.3479,-4.3479,-4.3479,-4.3479,-4.3479,-4.3479,-4.3479,-4.3479,-4.3479,-4.3479,-4.3479,-4.3479,-4.3479,-4.3479,-4.3479,-4.3479,-4.3479,-4.3479,-4.3479,-4.3479,-4.3479,-4.3479,-4.3479,-4.3479,-4.3479,-4.3479,-4.3479,-4.3479,-4.3608,-4.3864,-4.4121,-4.4544,-4.4559,-4.4446,-4.4395,-4.4454,-4.4122,-4.4019,-4.4418,-4.48,-4.5317,-4.6142,-4.6413,-4.6434,-4.6195,-4.5762,-4.5375,-4.4942,-4.4718,-4.3723,-4.2971,-4.2533,-4.2236,-4.188,-4.1525,-4.1255,-4.0848,-4.0017,-3.9653,-3.9463,-3.9113,-3.837,-3.7975,-3.7084,-3.6904,-3.6415,-5.5684,-5.5549,-5.4164,-5.3414,-5.2972,-5.1395,-5.0683,-5.0683,-5.0683,-5.0683,-5.0683,-5.0683,-5.0442,-4.976,-4.949,-4.9067,-4.8529,-4.8067,-4.7855,-4.7432,-4.6874,-4.6624,-4.6317,-4.597,-4.571,-4.5594,-4.5513,-4.5234,-4.4574,-4.4194,-4.3839,-4.3549,-4.3479,-4.3479,-4.3479,-4.3479,-4.3479,-4.3479,-4.3479,-4.3479,-4.3479,-4.3479,-4.3479,-4.3479,-4.3479,-4.3479,-4.3479,-4.3479,-4.3479,-4.3479,-4.3479,-4.3479,-4.3479,-4.3479,-4.3479,-4.3479,-4.3479,-4.3479,-4.3479,-4.3479,-4.3479,-4.3479,-4.3479,-4.3479,-4.3479,-4.3479,-4.3479,-4.3479,-4.3479,-4.3479,-4.3479,-4.3479,-4.3479,-4.3479,-4.3479,-4.3479,-4.3479,-4.3552,-4.3846,-4.4452,-4.4892,-4.5567,-4.544,-4.5579,-4.5582,-4.5211,-4.5197,-4.5576,-4.5922,-4.6371,-4.6646,-4.6903,-4.6825,-4.6599,-4.6548,-4.6226,-4.5711,-4.5165,-4.4214,-4.343,-4.3115,-4.2844,-4.2625,-4.2115,-4.1454,-4.0457,-3.9395,-3.9119,-3.8924,-3.7873,-3.7128,-3.6948,-3.6752,-3.6523,-3.6291,-5.5222,-5.4991,-5.3395,-5.2529,-5.2068,-5.1154,-5.0683,-5.0683,-5.0683,-5.0683,-5.0683,-5.0683,-5.0423,-5.0048,-4.9933,-4.9529,-4.874,-4.8682,-4.8452,-4.7894,-4.7644,-4.7182,-4.6759,-4.6374,-4.597,-4.5768,-4.5504,-4.5253,-4.4561,-4.3912,-4.3496,-4.3515,-4.3479,-4.3479,-4.3479,-4.3479,-4.3479,-4.3479,-4.3479,-4.3479,-4.3479,-4.3479,-4.3479,-4.3479,-4.3479,-4.3479,-4.3479,-4.3479,-4.3479,-4.3479,-4.3479,-4.3479,-4.3479,-4.3479,-4.3479,-4.3479,-4.3479,-4.3479,-4.3479,-4.3479,-4.3479,-4.3479,-4.3479,-4.3479,-4.3479,-4.3479,-4.3479,-4.3479,-4.3479,-4.3479,-4.3479,-4.3479,-4.3479,-4.3479,-4.3479,-4.3479,-4.3479,-4.3479,-4.3975,-4.4653,-4.5389,-4.6222,-4.6587,-4.6739,-4.6623,-4.6153,-4.6106,-4.6524,-4.6735,-4.6981,-4.7156,-4.73,-4.7166,-4.6989,-4.6869,-4.6524,-4.5916,-4.5269,-4.4761,-4.4088,-4.3735,-4.347,-4.3234,-4.2399,-4.1379,-4.0251,-3.9083,-3.8557,-3.8161,-3.7144,-3.6446,-3.6415,-3.6306,-3.6054,-3.5831,-5.4453,-5.426,-5.2626,-5.1529,-5.076,-5.0712,-5.0683,-5.0683,-5.0683,-5.0683,-5.0683,-5.0683,-5.0596,-5.0279,-5.0356,-5.001,-4.951,-4.9336,-4.9221,-4.8317,-4.8279,-4.7894,-4.7298,-4.6855,-4.624,-4.5825,-4.5504,-4.5253,-4.4561,-4.3912,-4.3479,-4.3479,-4.3479,-4.3479,-4.3479,-4.3479,-4.3479,-4.3479,-4.3479,-4.3479,-4.3479,-4.3479,-4.3479,-4.3479,-4.3479,-4.3479,-4.3479,-4.3479,-4.3479,-4.3479,-4.3479,-4.3479,-4.3479,-4.3479,-4.3479,-4.3479,-4.3479,-4.3479,-4.3479,-4.3479,-4.3479,-4.3479,-4.3479,-4.3479,-4.3479,-4.3479,-4.3479,-4.3479,-4.3479,-4.3479,-4.3479,-4.3479,-4.3479,-4.3479,-4.3479,-4.3479,-4.3479,-4.3736,-4.4397,-4.5112,-4.6012,-4.6792,-4.727,-4.7345,-4.7021,-4.6756,-4.6801,-4.7194,-4.7128,-4.7237,-4.7342,-4.7385,-4.7088,-4.6756,-4.6359,-4.6014,-4.5673,-4.5214,-4.4852,-4.454,-4.4022,-4.3876,-4.3887,-4.2631,-4.1298,-4.0017,-3.8925,-3.8246,-3.7485,-3.6722,-3.6165,-3.6086,-3.5879,-3.5686,-3.5604,-5.4107,-5.3414,-5.2346,-5.1433,-5.075,-5.0683,-5.0683,-5.0683,-5.0683,-5.0683,-5.0683,-5.0654,-5.0385,-5.0029,-5.0519,-5.0231,-4.9644,-4.9952,-5.0192,-4.9702,-4.9317,-4.8509,-4.7778,-4.7221,-4.6471,-4.5864,-4.5504,-4.5211,-4.4574,-4.3927,-4.3496,-4.3513,-4.3546,-4.3614,-4.3529,-4.3529,-4.3529,-4.3496,-4.3479,-4.3479,-4.3479,-4.3479,-4.3479,-4.3479,-4.3479,-4.3479,-4.3479,-4.3479,-4.3479,-4.3479,-4.3479,-4.3479,-4.3479,-4.3479,-4.3479,-4.3479,-4.3479,-4.3479,-4.3479,-4.3479,-4.3479,-4.3479,-4.3479,-4.3479,-4.3479,-4.3479,-4.3479,-4.3479,-4.3479,-4.3479,-4.3479,-4.3479,-4.3479,-4.3479,-4.3479,-4.3479,-4.3497,-4.414,-4.48,-4.5663,-4.6562,-4.7201,-4.7702,-4.7736,-4.7388,-4.7259,-4.7237,-4.7237,-4.6774,-4.6705,-4.6887,-4.691,-4.6687,-4.6336,-4.5865,-4.5571,-4.5284,-4.5052,-4.472,-4.4473,-4.4293,-4.3927,-4.3544,-4.2435,-4.1174,-4.0078,-3.8869,-3.7522,-3.6784,-3.6196,-3.5911,-3.5799,-3.575,-3.5587,-3.5522,-5.3068,-5.2538,-5.1722,-5.1106,-5.075,-5.0683,-5.0683,-5.0683,-5.0683,-5.0683,-5.0683,-5.0654,-5.0404,-4.9981,-5.051,-5.0221,-4.9683,-5.0327,-5.0154,-4.9981,-5.0,-4.9144,-4.8375,-4.7586,-4.6624,-4.5923,-4.5319,-4.4865,-4.4508,-4.4106,-4.3742,-4.3742,-4.3804,-4.3868,-4.3756,-4.371,-4.3629,-4.3532,-4.3496,-4.3479,-4.3479,-4.3479,-4.3479,-4.3479,-4.3479,-4.3479,-4.3479,-4.3479,-4.3479,-4.3479,-4.3479,-4.3479,-4.3479,-4.3479,-4.3479,-4.3479,-4.3479,-4.3479,-4.3479,-4.3479,-4.3479,-4.3479,-4.3479,-4.3479,-4.3479,-4.3479,-4.3479,-4.3479,-4.3479,-4.3479,-4.3479,-4.3479,-4.3479,-4.3479,-4.3479,-4.3479,-4.3718,-4.4176,-4.4911,-4.5736,-4.6599,-4.7369,-4.7803,-4.8113,-4.7756,-4.7324,-4.7385,-4.7194,-4.6728,-4.6288,-4.643,-4.6377,-4.6112,-4.5749,-4.5232,-4.5035,-4.4944,-4.4703,-4.4598,-4.453,-4.4378,-4.3792,-4.3145,-4.2486,-4.1643,-4.0463,-3.9191,-3.7801,-3.6538,-3.5891,-3.5683,-3.5554,-3.5489,-3.5489,-3.5489,-5.1885,-5.1664,-5.101,-5.0702,-5.0683,-5.0683,-5.0683,-5.0683,-5.0683,-5.0683,-5.0683,-5.0683,-5.0673,-5.0558,-5.0654,-5.0067,-4.9894,-5.0385,-5.0154,-5.0115,-5.0385,-4.9394,-4.8586,-4.7942,-4.6894,-4.5899,-4.5154,-4.483,-4.458,-4.4252,-4.4091,-4.4117,-4.4233,-4.4373,-4.4117,-4.3955,-4.3833,-4.358,-4.3479,-4.3479,-4.3479,-4.3479,-4.3479,-4.3479,-4.3479,-4.3479,-4.3479,-4.3479,-4.3479,-4.3479,-4.3479,-4.3479,-4.3479,-4.3479,-4.3479,-4.3479,-4.3479,-4.3479,-4.3479,-4.3479,-4.3479,-4.3479,-4.3479,-4.3479,-4.3479,-4.3479,-4.3479,-4.3479,-4.3479,-4.3479,-4.3479,-4.3479,-4.3479,-4.3479,-4.3479,-4.3626,-4.3975,-4.4378,-4.5149,-4.5938,-4.6728,-4.7535,-4.7828,-4.8177,-4.798,-4.7578,-4.7306,-4.7021,-4.6728,-4.6353,-4.6209,-4.5858,-4.5451,-4.5025,-4.4692,-4.4692,-4.4703,-4.4665,-4.4598,-4.4598,-4.4445,-4.3842,-4.3399,-4.3181,-4.2233,-4.098,-3.9731,-3.841,-3.7172,-3.612,-3.5599,-3.5504,-3.5489,-3.5489,-3.5489,-5.151,-5.0914,-5.075,-5.0683,-5.0683,-5.0683,-5.0683,-5.0683,-5.0683,-5.0683,-5.0683,-5.0635,-5.0366,-4.9731,-5.0442,-5.0269,-4.9856,-5.0385,-5.0616,-5.0596,-5.0596,-4.9529,-4.8529,-4.7952,-4.7028,-4.6033,-4.518,-4.4896,-4.4732,-4.4553,-4.4337,-4.4132,-4.4455,-4.4441,-4.4102,-4.4001,-4.3912,-4.3662,-4.3513,-4.3479,-4.3479,-4.3479,-4.3479,-4.3479,-4.3479,-4.3479,-4.3479,-4.3479,-4.3479,-4.3479,-4.3479,-4.3479,-4.3479,-4.3479,-4.3479,-4.3479,-4.3479,-4.3479,-4.3479,-4.3479,-4.3479,-4.3479,-4.3479,-4.3479,-4.3479,-4.3479,-4.3479,-4.3479,-4.3479,-4.3479,-4.3479,-4.3479,-4.3479,-4.3479,-4.3479,-4.392,-4.4342,-4.4966,-4.57,-4.6434,-4.7186,-4.7627,-4.781,-4.7956,-4.7954,-4.7662,-4.7656,-4.7368,-4.6955,-4.6495,-4.6032,-4.5537,-4.5025,-4.4776,-4.4598,-4.4626,-4.4637,-4.4598,-4.4598,-4.4598,-4.435,-4.3842,-4.35,-4.3557,-4.2691,-4.1444,-4.0212,-3.9358,-3.8245,-3.7202,-3.6025,-3.5552,-3.5537,-3.5489,-3.5489]},{"header":{"parameterUnit":"m.s-1","parameterCategory":1,"la1":31.0,"la2":29.5877,"lo1":-88.7671,"lo2":-86.6584,"dy":0.0162,"dx":0.0185,"nx":115,"ny":88,"refTime":"2026-05-05T12:00:00:Z","depth":0,"parameterNumber":3,"parameterNumberName":"V-component_of_WINDS"},"data":[0.0,0.0,0.0,0.0,0.0,0.0,0.0,0.0,0.0,0.0,0.0,0.0,0.0,0.0,0.0,0.0,0.0,0.0,0.0,0.0,0.0,0.0,0.0,0.0,0.0,0.0,0.0,0.0,0.0,0.0,0.0,0.0,0.0,0.0,0.0,0.0,0.0,0.0,0.0,0.0,0.0,0.0,0.0,0.0,0.0,0.0,0.0,0.0,0.0,0.0,0.0,0.0,0.0,0.0,0.0,0.0,0.0,0.0,0.0,0.0,0.0,0.0,0.0,0.0,0.0,0.0,0.0,0.0,0.0,0.0,0.0,0.0,0.0,0.0,0.0,0.0,0.0,0.0,0.0,0.0,0.0,0.0,0.0,0.0,0.0,0.0,0.0,0.0,0.0,0.0,0.0,0.0,0.0,0.0,0.0,0.0,0.0,0.0,0.0,0.0,0.0,0.0,0.0,0.0,0.0,0.0,0.0,0.0,0.0,0.0,0.0,0.0,0.0,0.0,0.0,0.0,0.0,0.0,0.0,0.0,0.0,0.0,0.0,0.0,0.0,0.0,0.0,0.0,0.0,0.0,0.0,0.0,0.0,0.0,0.0,0.0,0.0,0.0,0.0,0.0,0.0,0.0,0.0,0.0,0.0,0.0,0.0,0.0,0.0,0.0,0.0,0.0,0.0,0.0,0.0,0.0,0.0,0.0,0.0,0.0,0.0,0.0,0.0,0.0,0.0,0.0,0.0,0.0,0.0,0.0,0.0,0.0,0.0,0.0,0.0,0.0,0.0,0.0,0.0,0.0,0.0,0.0,0.0,0.0,0.0,0.0,0.0,0.0,0.0,0.0,0.0,0.0,0.0,0.0,0.0,0.0,0.0,0.0,0.0,0.0,0.0,0.0,0.0,0.0,0.0,0.0,0.0,0.0,0.0,0.0,0.0,0.0,0.0,0.0,0.0,0.0,0.0,0.0,0.0,0.0,0.0,0.0,0.0,0.0,0.0,0.0,0.0,0.0,0.0,0.0,0.0,0.0,0.0,0.0,0.0,0.0,0.0,0.0,0.0,0.0,0.0,0.0,0.0,0.0,0.0,0.0,0.0,0.0,0.0,0.0,0.0,0.0,0.0,0.0,0.0,0.0,0.0,0.0,0.0,0.0,0.0,0.0,0.0,0.0,0.0,0.0,0.0,0.0,0.0,0.0,0.0,0.0,0.0,0.0,0.0,0.0,0.0,0.0,0.0,0.0,0.0,0.0,0.0,0.0,0.0,0.0,0.0,0.0,0.0,0.0,0.0,0.0,0.0,0.0,0.0,0.0,0.0,0.0,0.0,0.0,0.0,0.0,0.0,0.0,0.0,0.0,0.0,0.0,0.0,0.0,0.0,0.0,0.0,0.0,0.0,0.0,0.0,0.0,0.0,0.0,0.0,0.0,0.0,0.0,0.0,0.0,0.0,0.0,0.0,0.0,0.0,0.0,0.0,0.0,0.0,0.0,0.0,0.0,0.0,0.0,0.0,0.0,0.0,0.0,0.0,0.0,0.0,0.0,0.0,0.0,0.0,0.0,0.0,0.0,0.0,0.0,0.0,0.0,0.0,0.0,0.0,0.0,0.0,0.0,0.0,0.0,0.0,0.0,0.0,0.0,0.0,0.0,0.0,0.0,0.0,0.0,0.0,0.0,0.0,0.0,0.0,0.0,0.0,0.0,0.0,0.0,0.0,0.0,0.0,0.0,0.0,0.0,0.0,0.0,0.0,0.0,0.0,0.0,0.0,0.0,0.0,0.0,0.0,0.0,0.0,0.0,0.0,0.0,0.0,0.0,0.0,0.0,0.0,0.0,0.0,0.0,0.0,0.0,0.0,0.0,0.0,0.0,0.0,0.0,0.0,0.0,0.0,0.0,0.0,0.0,0.0,0.0,0.0,0.0,0.0,0.0,0.0,0.0,0.0,0.0,0.0,0.0,0.0,0.0,0.0,0.0,0.0,0.0,0.0,0.0,0.0,0.0,0.0,0.0,0.0,0.0,0.0,0.0,0.0,0.0,0.0,0.0,0.0,0.0,0.0,0.0,0.0,0.0,0.0,0.0,0.0,0.0,0.0,0.0,0.0,0.0,0.0,0.0,0.0,0.0,0.0,0.0,0.0,0.0,0.0,0.0,0.0,0.0,0.0,0.0,0.0,0.0,0.0,0.0,0.0,0.0,0.0,0.0,0.0,0.0,0.0,0.0,0.0,0.0,0.0,0.0,0.0,0.0,0.0,0.0,0.0,0.0,0.0,0.0,0.0,0.0,0.0,0.0,0.0,0.0,0.0,0.0,0.0,0.0,0.0,0.0,0.0,0.0,0.0,0.0,0.0,0.0,0.0,0.0,0.0,0.0,0.0,0.0,0.0,0.0,0.0,0.0,0.0,0.0,0.0,0.0,0.0,0.0,0.0,0.0,0.0,0.0,0.0,0.0,0.0,0.0,0.0,0.0,0.0,0.0,0.0,0.0,0.0,0.0,0.0,0.0,0.0,0.0,0.0,0.0,0.0,0.0,0.0,0.0,0.0,0.0,0.0,0.0,0.0,0.0,0.0,0.0,0.0,0.0,0.0,0.0,0.0,0.0,0.0,0.0,0.0,0.0,0.0,0.0,0.0,0.0,0.0,0.0,0.0,0.0,0.0,0.0,0.0,0.0,0.0,0.0,0.0,0.0,0.0,0.0,0.0,0.0,0.0,0.0,0.0,0.0,0.0,0.0,0.0,0.0,0.0,0.0,0.0,0.0,0.0,0.0,0.0,0.0,0.0,0.0,0.0,0.0,0.0,0.0,0.0,0.0,0.0,0.0,0.0,0.0,0.0,0.0,0.0,0.0,0.0,0.0,0.0,0.0,0.0,0.0,0.0,0.0,0.0,0.0,0.0,0.0,0.0,0.0,0.0,0.0,0.0,0.0,0.0,0.0,0.0,0.0,0.0,0.0,0.0,0.0,0.0,0.0,0.0,0.0,0.0,0.0,0.0,0.0,0.0,0.0,0.0,0.0,0.0,0.0,0.0,0.0,0.0,0.0,0.0,0.0,0.0,0.0,0.0,0.0,0.0,0.0,0.0,0.0,0.0,0.0,0.0,0.0,0.0,0.0,0.0,0.0,0.0,0.0,0.0,0.0,0.0,0.0,0.0,0.0,0.0,0.0,0.0,0.0,0.0,0.0,0.0,0.0,0.0,0.0,0.0,0.0,0.0,0.0,0.0,0.0,0.0,0.0,0.0,0.0,0.0,0.0,0.0,0.0,0.0,0.0,0.0,0.0,0.0,0.0,0.0,0.0,0.0,0.0,0.0,0.0,0.0,0.0,0.0,0.0,0.0,0.0,0.0,0.0,0.0,0.0,0.0,0.0,0.0,0.0,0.0,0.0,0.0,0.0,0.0,0.0,0.0,0.0,0.0,0.0,0.0,0.0,0.0,0.0,0.0,0.0,0.0,0.0,0.0,0.0,0.0,0.0,0.0,0.0,0.0,0.0,0.0,0.0,0.0,0.0,0.0,0.0,0.0,0.0,0.0,0.0,0.0,0.0,0.0,0.0,0.0,0.0,0.0,0.0,0.0,0.0,0.0,0.0,0.0,0.0,0.0,0.0,0.0,0.0,0.0,0.0,0.0,0.0,0.0,0.0,0.0,0.0,0.0,0.0,0.0,0.0,0.0,0.0,0.0,0.0,0.0,0.0,0.0,0.0,0.0,0.0,0.0,0.0,0.0,0.0,0.0,0.0,0.0,0.0,0.0,0.0,0.0,0.0,0.0,0.0,0.0,0.0,0.0,0.0,0.0,0.0,0.0,0.0,0.0,0.0,0.0,0.0,0.0,0.0,0.0,0.0,0.0,0.0,0.0,0.0,0.0,0.0,0.0,0.0,0.0,0.0,0.0,0.0,0.0,0.0,0.0,0.0,0.0,0.0,0.0,0.0,0.0,0.0,0.0,0.0,0.0,0.0,0.0,0.0,0.0,0.0,0.0,0.0,0.0,0.0,0.0,0.0,0.0,0.0,0.0,0.0,0.0,0.0,0.0,0.0,0.0,0.0,0.0,0.0,0.0,0.0,0.0,0.0,0.0,0.0,0.0,0.0,0.0,0.0,0.0,0.0,0.0,0.0,0.0,0.0,0.0,0.0,0.0,0.0,0.0,0.0,0.0,0.0,0.0,0.0,0.0,0.0,0.0,0.0,0.0,0.0,0.0,0.0,0.0,0.0,0.0,0.0,0.0,0.0,0.0,0.0,0.0,0.0,0.0,0.0,0.0,0.0,0.0,0.0,0.0,0.0,0.0,0.0,0.0,0.0,0.0,0.0,0.0,0.0,0.0,0.0,0.0,0.0,0.0,0.0,0.0,0.0,0.0,0.0,0.0,0.0,0.0,0.0,0.0,0.0,0.0,0.0,0.0,0.0,0.0,0.0,0.0,0.0,0.0,0.0,0.0,0.0,0.0,0.0,0.0,0.0,0.0,0.0,0.0,0.0,0.0,0.0,0.0,0.0,0.0,0.0,0.0,0.0,0.0,0.0,0.0,0.0,0.0,0.0,0.0,0.0,0.0,0.0,0.0,0.0,0.0,0.0,0.0,0.0,0.0,0.0,0.0,0.0,0.0,0.0,0.0,0.0,0.0,0.0,0.0,0.0,0.0,0.0,0.0,0.0,0.0,0.0,0.0,0.0,0.0,0.0,0.0,0.0,0.0,0.0,0.0,0.0,0.0,0.0,0.0,0.0,0.0,0.0,0.0,0.0,0.0,0.0,0.0,0.4751,0.4751,0.1699,0.0,0.0,0.0,0.0,0.0,0.0,0.0,0.0,0.0,0.0,0.0,0.0,0.0,0.0,0.0,0.0,0.0,0.0,0.0,0.0,0.0,0.0,0.0,0.0,0.0,0.0,0.0,0.0,0.0,0.0,0.0,0.0,0.0,0.0,0.0,0.0,0.0,0.0,0.0,0.0,0.0,0.0,0.0,0.0,0.0,0.0,0.0,0.0,0.0,0.0,0.0,0.0,0.0,0.0,0.0,0.0,0.0,0.0,0.0,0.0,0.0,0.0,0.0,0.0,0.0,0.0,0.0,0.0,0.0,0.0,0.0,0.0,0.0,0.0,0.0,0.0,0.0,0.0,0.0,0.0,0.0,0.0,0.0,0.0,0.0,0.0,0.0,0.0,0.0,0.0,0.0,0.0,0.0,0.0,0.0,0.0,0.0,0.0,0.0,0.0,0.0,0.0,0.0,0.0,0.0,0.0,0.0,0.0,0.0,0.0,0.0,0.0,0.0,0.0,0.1725,0.0,0.0,0.0,0.0,0.0,0.0,0.0,0.0,0.0,0.0,0.0,0.0,0.0,0.0,0.0,0.0,0.0,0.0,0.0,0.0,0.0,0.0,0.0,0.0,0.0,0.0,0.0,0.0,0.0,0.0,0.0,0.0,0.0,0.0,0.0,0.0,0.0,0.0,0.0,0.0,0.0,0.0,0.0,0.0,0.0,0.0,0.0,0.0,0.0,0.0,0.0,0.0,0.0,0.0,0.0,0.0,0.0,0.0,0.0,0.0,0.0,0.0,0.0,0.0,0.0,0.0,0.0,0.0,0.0,0.0,0.0,0.0,0.0,0.0,0.0,0.0,0.0,0.0,0.0,0.0,0.0,0.0,0.0,0.0,0.0,0.0,0.0,0.0,0.0,0.0,0.0,0.0,0.0,0.0,0.0,0.0,0.0,0.0,0.0,0.0,0.0,0.0,0.0,0.0,0.0,0.0,0.0,0.0,0.0,0.0,0.0,0.0,0.4673,0.4862,0.1743,0.0,0.0,0.0,0.0,0.0,0.0,0.0,0.0,0.0,0.0,0.0,0.0,0.0,0.0,0.0,0.0,0.0,0.0,0.0,0.0,0.0,0.0,0.0,0.0,0.0,0.0,0.0,0.0,0.0,0.0,0.0,0.0,0.0,0.0,0.0,0.0,0.0,0.0,0.0,0.0,0.0,0.0,0.0,0.0,0.0,0.0,0.0,0.0,0.0,0.0,0.0,0.0,0.0,0.0,0.0,0.0,0.0,0.0,0.0,0.0,0.0,0.0,0.0,0.0,0.0,0.0,0.0,0.0,0.0,0.0,0.0,0.0,0.0,0.0,0.0,0.0,0.0,0.0,0.0,0.0,0.0,0.0,0.0,0.0,0.0,0.0,0.0,0.0,0.0,0.0,0.0,0.0,0.0,0.0,0.0,0.0,0.0,0.0,0.0,0.0,0.0,0.0,0.0,0.0,0.0,0.0,0.0,0.0,0.0,0.0,0.0,0.0,0.4628,0.4868,0.1707,0.0,0.0,0.0,0.0,0.0,0.0,0.0,0.0,0.0,0.0,0.0,0.0,0.0,0.0,0.0,0.0,0.0,0.0,0.0,0.0,0.0,0.0,0.0,0.0,0.0,0.0,0.0,0.0,0.0,0.0,0.0,0.0,0.0,0.0,0.0,0.0,0.0,0.0,0.0,0.0,0.0,0.0,0.0,0.0,0.0,0.0,0.0,0.0,0.0,0.0,0.0,0.0,0.0,0.0,0.0,0.0,0.0,0.0,0.0,0.0,0.0,0.0,0.0,0.0,0.0,0.0,0.0,0.0,0.0,0.0,0.0,0.0,0.0,0.0,0.0,0.0,0.0,0.0,0.0,0.0,0.0,0.0,0.0,0.0,0.0,0.0,0.0,0.0,0.0,0.0,0.0,0.0,0.0,0.0,0.0,0.0,0.0,0.0,0.0,0.0,0.0,0.0,0.0,0.0,0.0,0.0,0.0,0.0,0.0,0.0,0.0,0.6659,0.4861,0.4173,0.1506,0.0,0.0,0.0,0.0,0.0,0.0,0.0,0.0,0.0,0.0,0.0,0.0,0.0,0.0,0.0,0.0,0.0,0.0,0.0,0.0,0.0,0.0,0.0,0.0,0.0,0.0,0.0,0.0,0.0,0.0,0.0,0.0,0.0,0.0,0.0,0.0,0.0,0.0,0.0,0.0,0.0,0.0,0.0,0.0,0.0,0.0,0.0,0.0,0.0,0.0,0.0,0.0,0.0,0.0,0.0,0.0,0.0,0.0,0.0,0.0,0.0,0.0,0.0,0.0,0.0,0.0,0.0,0.0,0.0,0.0,0.0,0.0,0.0,0.0,0.0,0.0,0.0,0.0,0.0,0.0,0.0,0.0,0.0,0.0,0.0,0.0,0.0,0.0,0.0,0.0,0.0,0.0,0.0,0.0,0.0,0.0,0.0,0.0,0.0,0.0,0.0,0.0,0.0,0.0,0.0,0.0,0.0,0.0,0.0,0.0,0.9378,0.7677,0.5453,0.2708,0.0926,0.0,0.0,0.0,0.0,0.0,0.0,0.0,0.0,0.0,0.0,0.0,0.0,0.0,0.0,0.0,0.0,0.0,0.0,0.0,0.0,0.0,0.0,0.0,0.0,0.0,0.0,0.0,0.0,0.0,0.0,0.0,0.0,0.0,0.0,0.0,0.0,0.0,0.0,0.0,0.0,0.0,0.0,0.0,0.0,0.0,0.0,0.0,0.0,0.0,0.0,0.0,0.0,0.0,0.0,0.0,0.0,0.0,0.0,0.0,0.0,0.0,0.0,0.0,0.0,0.0,0.0,0.0,0.0,0.0,0.0,0.0,0.0,0.0,0.0,0.0,0.0,0.0,0.0,0.0,0.0,0.0,0.0,0.0,0.0,0.0,0.0,0.0,0.0,0.0,0.0,0.0,0.0,0.0,0.0,0.0,0.0,0.0,0.0,0.0,0.0,0.0,0.0,0.0,0.0,0.0,0.0,0.0,0.0,0.0,0.0,0.9168,0.6814,0.4454,0.2405,0.0795,0.0,0.0,0.0,0.0,0.0,0.0,0.0,0.0,0.0,0.0,0.0,0.0,0.0,0.0,0.0,0.0,0.0,0.0,0.0,0.0,0.0,0.0,0.0,0.0,0.0,0.0,0.0,0.0,0.0,0.0,0.0,0.0,0.0,0.0,0.0,0.0,0.0,0.0,0.0,0.0,0.0,0.0,0.0,0.0,0.0,0.0,0.0,0.0,0.0,0.0,0.0,0.0,0.0,0.0,0.0,0.0,0.0,0.0,0.0,0.0,0.0,0.0,0.0,0.0,0.0,0.0,0.0,0.0,0.0,0.0,0.0,0.0,0.0,0.0,0.0,0.0,0.0,0.0,0.0,0.0,0.0,0.0,0.0,0.0,0.0,0.0,0.0,0.0,0.0,0.0,0.0,0.0,0.0,0.0,0.0,0.0,0.0,0.0,0.0,0.0,0.0,0.0,0.0,0.0,0.0,0.0,0.0,0.0,0.0,0.0,0.909,0.0,0.4223,0.3117,0.1065,-0.0218,0.0,0.0,0.0,0.0,0.0,0.0,0.0,0.0,0.0,0.0,0.0,0.0,0.0,0.0,0.0,0.0,0.0,0.0,0.0,0.0,0.0,0.0,0.0,0.0,0.0,0.0,0.0,0.0,0.0,0.0,0.0,0.0,0.0,0.0,0.0,0.0,0.0,0.0,0.0,0.0,0.0,0.0,0.0,0.0,0.0,0.0,0.0,0.0,0.0,0.0,0.0,0.0,0.0,0.0,0.0,0.0,0.0,0.0,0.0,0.0,0.0,0.0,0.0,0.0,0.0,0.0,0.0,0.0,0.0,0.0,0.0,0.0,0.0,0.0,0.0,0.0,0.0,0.0,0.0,0.0,0.0,0.0,0.0,0.0,0.0,0.0,0.0,0.0,0.0,0.0,0.0,0.0,0.0,0.0,0.0,0.0,0.0,0.0,0.0,0.0,0.0,0.0,0.0,0.0,0.0,0.0,0.0,0.0,0.8859,0.9087,0.637,0.487,0.4814,0.1678,-0.0651,0.0,0.0,0.0,0.0,0.0,0.0,0.0,0.0,0.0,0.0,0.0,0.0,0.0,0.0,0.0,0.0,0.0,0.0,0.0,0.0,0.0,0.0,0.0,0.0,0.0,0.0,0.0,0.0,0.0,0.0,0.0,0.0,0.0,0.0,0.0,0.0,0.0,0.0,0.0,0.0,0.0,0.0,0.0,0.0,0.0,0.0,0.0,0.0,0.0,0.0,0.0,0.0,0.0,0.0,0.0,0.0,0.0,0.0,0.0,0.0,0.0,0.0,0.0,0.0,0.0,0.0,0.0,0.0,0.0,0.0,0.0,0.0,0.0,0.0,0.0,0.0,0.0,0.0,0.0,0.0,0.0,0.0,0.0,0.0,0.0,0.0,0.0,0.0,0.0,0.0,0.0,0.0,0.0,0.0,0.0,0.0,0.0,0.0,0.0,0.0,0.0,0.0,0.0,0.0,0.0,0.0,0.0,0.0,0.0,0.8952,0.6214,0.475,0.4676,0.1681,-0.06,0.0,0.0,0.0,0.0,0.0,0.0,0.0,0.0,0.0,0.0,0.0,0.0,0.0,0.0,0.0,0.0,0.0,0.0,0.0,0.0,0.0,0.0,0.0,0.0,0.0,0.0,0.0,0.0,0.0,0.0,0.0,0.0,0.0,0.0,0.0,0.0,0.0,0.0,0.0,0.0,0.0,0.0,0.0,0.0,0.0,0.0,0.0,0.0,0.0,0.0,0.0,0.0,0.0,0.0,0.0,0.0,0.0,0.0,0.0,0.0,0.0,0.0,0.0,0.0,0.0,0.0,0.0,0.0,0.0,0.0,0.0,0.0,0.0,0.0,0.0,0.0,0.0,0.0,0.0,0.0,0.0,0.0,0.0,0.0,0.0,0.0,0.0,0.0,0.0,0.0,0.0,0.0,0.0,0.0,0.0,0.0,0.0,0.0,0.0,0.0,0.0,0.0,0.0,0.0,0.0,0.0,0.0,0.0,0.0,0.8972,0.6744,0.535,0.4823,0.2247,-0.0218,-0.2567,0.0,0.0,0.0,0.0,0.0,0.0,0.0,0.0,0.0,0.0,0.0,0.0,0.0,0.0,0.0,0.0,0.0,0.0,0.0,0.0,0.0,0.0,0.0,0.0,0.0,0.0,0.0,0.0,0.0,0.0,0.0,0.0,0.0,0.0,0.0,0.0,0.0,0.0,0.0,0.0,0.0,0.0,0.0,0.0,0.0,0.0,0.0,0.0,0.0,0.0,0.0,0.0,0.0,0.0,0.0,0.0,0.0,0.0,0.0,0.0,0.0,0.0,0.0,0.0,0.0,0.0,0.0,0.0,0.0,0.0,0.0,0.0,0.0,0.0,0.0,0.0,0.0,0.0,0.0,0.0,0.0,0.0,0.0,0.0,0.0,0.0,0.0,0.0,0.0,0.0,0.0,0.0,0.0,0.0,0.0,0.0,0.0,0.0,0.0,0.0,0.0,0.0,0.0,0.0,0.0,0.0,0.0,0.0,0.9238,0.792,0.6511,0.4951,0.333,0.0436,0.0,0.0,0.0,0.0,0.0,0.0,0.0,0.0,0.0,0.0,0.0,0.0,0.0,0.0,0.0,0.0,0.0,0.0,0.0,0.0,0.0,0.0,0.0,0.0,0.0,0.0,0.0,0.0,0.0,0.0,0.0,0.0,0.0,0.0,0.0,0.0,0.0,0.0,0.0,0.0,0.0,0.0,0.0,0.0,0.0,0.0,0.0,0.0,0.0,0.0,0.0,0.0,0.0,0.0,0.0,0.0,0.0,0.0,0.0,0.0,0.0,0.0,0.0,0.0,0.0,0.0,0.0,0.0,0.0,0.0,0.0,0.0,0.0,0.0,0.0,0.0,0.0,0.0,0.0,0.0,0.0,0.0,0.0,0.0,0.0,0.0,0.0,0.0,0.0,0.0,0.0,0.0,0.0,0.0,0.0,0.0,0.0,0.0,0.0,0.0,0.0,0.0,0.0,0.0,0.0,0.0,0.0,0.0,0.0,0.9535,0.9146,0.7636,0.5003,0.3332,0.0444,0.0,0.0,0.0,0.0,0.0,0.0,0.0,0.0,0.0,0.0,0.0,0.0,0.0,0.0,0.0,0.0,0.0,0.0,0.0,0.0,0.0,0.0,0.0,0.0,0.0,0.0,0.0,0.0,0.0,0.0,0.0,0.0,0.0,0.0,0.0,0.0,0.0,0.0,0.0,0.0,0.0,0.0,0.0,0.0,0.0,0.0,0.0,0.0,0.0,0.0,0.0,0.0,0.0,0.0,0.0,0.0,0.0,0.0,0.0,0.0,0.0,0.0,0.0,0.0,0.0,0.0,0.0,0.0,0.0,0.0,0.0,0.0,0.0,0.0,0.0,0.0,0.0,0.0,0.0,0.0,0.0,0.0,0.0,0.0,0.0,0.0,0.0,0.0,0.0,0.0,0.0,0.0,0.0,0.0,0.0,0.0,0.0,0.0,0.0,0.0,0.0,0.0,0.0,0.0,0.0,0.0,0.0,0.0,1.1324,0.9569,0.9632,0.8153,0.4976,0.3985,0.141,0.0,0.0,0.0,0.0,0.0,0.0,0.0,0.0,0.0,0.0,0.0,0.0,0.0,0.0,0.0,0.0,0.0,0.0,0.0,0.0,0.0,0.0,0.0,0.0,0.0,0.0,0.0,0.0,0.0,0.0,0.0,0.0,0.0,0.0,0.0,0.0,0.0,0.0,0.0,0.0,0.0,0.0,0.0,0.0,0.0,0.0,0.0,0.0,0.0,0.0,0.0,0.0,0.0,0.0,0.0,0.0,0.0,0.0,0.0,0.0,0.0,0.0,0.0,0.0,0.0,0.0,0.0,0.0,0.0,0.0,0.0,0.0,0.0,0.0,0.0,0.0,0.0,0.0,0.0,0.0,0.0,0.0,0.0,0.0,0.0,0.0,0.0,0.0,0.0,0.0,0.0,0.0,0.0,0.0,0.0,0.0,0.0,0.0,0.0,0.0,0.0,0.0,0.0,0.0,0.0,0.0,0.0,0.0,1.2355,0.9545,0.9683,0.8224,0.5096,0.4941,0.2747,0.0,0.0,0.0,0.0,0.0,0.0,0.0,0.0,0.0,0.0,0.0,0.0,0.0,0.0,0.0,0.0,0.0,0.0,0.0,0.0,0.0,0.0,0.0,0.0,0.0,0.0,0.0,0.0,0.0,0.0,0.0,0.0,0.0,0.0,0.0,0.0,0.0,0.0,0.0,0.0,0.0,0.0,0.0,0.0,0.0,0.0,0.0,0.0,0.0,0.0,0.0,0.0,0.0,0.0,0.0,0.0,0.0,0.0,0.0,0.0,0.0,0.0,0.0,0.0,0.0,0.0,0.0,0.0,0.0,0.0,0.0,0.0,0.0,0.0,0.0,0.0,0.0,0.0,0.0,0.0,0.0,0.0,0.0,0.0,0.0,0.0,0.0,0.0,0.0,0.0,0.0,0.0,0.0,0.0,0.0,0.0,0.0,0.0,0.0,0.0,0.0,0.0,0.0,0.0,0.0,0.0,0.0,0.0,1.2423,0.978,0.9788,0.8224,0.4977,0.4888,0.273,0.0,0.0,0.0,0.0,0.0,0.0,0.0,0.0,0.0,0.0,0.0,0.0,0.0,0.0,0.0,0.0,0.0,0.0,0.0,0.0,0.0,0.0,0.0,0.0,0.0,0.0,0.0,0.0,0.0,0.0,0.0,0.0,0.0,0.0,0.0,0.0,0.0,0.0,0.0,0.0,0.0,0.0,0.0,0.0,0.0,0.0,0.0,0.0,0.1594,0.0,0.0,0.0,0.0,0.0,0.0,0.0,0.0,0.0,0.0,0.0,0.0,0.0,0.0,0.0,0.0,0.0,0.0,0.0,0.0,0.0,0.0,0.0,0.0,0.0,0.0,0.0,0.0,0.0,0.0,0.0,0.0,0.0,0.0,0.0,0.0,0.0,0.0,0.0,0.0,0.0,0.0,0.0,0.0,0.0,0.0,0.0,0.0,0.0,0.0,0.0,0.0,0.0,0.0,0.0,0.0,0.0,0.0,0.0,1.2575,0.9837,0.9788,0.8224,0.5093,0.4909,0.3034,0.0,0.0,0.0,0.0,0.0,0.0,0.0,0.0,0.0,0.0,0.0,0.0,0.0,0.0,0.0,0.0,0.0,0.0,0.0,0.0,0.0,0.0,0.0,0.0,0.0,0.0,0.0,0.0,0.0,0.0,0.0,0.0,0.0,0.0,0.0,0.0,0.0,0.0,0.0,0.0,0.0,0.0,0.0,0.0,0.0,0.0,0.0,0.0,0.0,0.0,0.0,0.0,0.0,0.0,0.0,0.0,0.0,0.0,0.0,0.0,0.0,0.0,0.0,0.0,0.0,0.0,0.0,0.0,0.0,0.0,0.0,0.0,0.0,0.0,0.0,0.0,0.0,0.0,0.0,0.0,0.0,0.0,0.0,0.0,0.0,0.0,0.0,0.0,0.0,0.0,0.0,0.0,0.0,0.0,0.0,0.0,0.0,0.0,0.0,0.0,0.0,0.0,0.0,0.0,0.0,0.0,0.0,1.3627,1.2642,0.9761,0.9758,0.8346,0.5403,0.5008,0.3467,0.0505,0.0,0.0,0.0,0.0,0.0,0.0,0.0,0.0,0.0,0.0,0.0,0.0,0.0,0.0,0.0,0.0,0.0,0.0,0.0,0.0,0.0,0.0,0.0,0.0,0.0,0.0,0.0,0.0,0.0,0.0,0.0,0.0,0.0,0.0,0.0,0.0,0.0,0.0,1.0386,1.0711,0.0,0.0,0.0,0.0,0.0,0.0,0.0,0.0,0.2332,0.0,0.0,0.0,0.0,0.0,0.0,0.0,0.0,0.0,0.0,0.0,0.0,0.0,0.0,0.0,0.0,0.0,0.0,0.0,0.0,0.0,0.0,0.0,0.0,0.0,0.0,0.0,0.0,0.0,0.0,0.0,0.0,0.0,0.0,0.0,0.0,0.0,0.0,0.0,0.0,0.0,0.0,0.0,0.0,0.0,0.0,0.0,0.0,0.0,0.0,0.0,0.0,0.0,0.0,0.0,0.0,1.3521,1.344,1.2263,0.9835,0.9808,0.8897,0.705,0.5659,0.4044,0.2183,0.0,0.0,0.0,0.0,0.0,0.0,0.0,0.0,0.0,0.0,0.0,0.0,0.0,0.0,0.0,0.0,0.0,0.0,0.0,0.0,0.0,0.0,0.0,0.0,0.0,0.0,0.0,0.0,0.0,0.0,0.0,0.0,0.0,0.0,0.0,0.0,0.0,0.0,0.0,1.0687,0.9854,0.0,0.0,0.0,0.0,0.0,0.0,0.0,0.0,0.2495,0.0,0.0,0.0,0.0,0.0,0.0,0.0,0.0,0.0,0.0,0.0,0.0,0.0,0.0,0.0,0.0,0.0,0.0,0.0,0.0,0.0,0.0,0.0,0.0,0.0,0.0,0.0,0.0,0.0,0.0,0.0,0.0,0.0,0.0,0.0,0.0,0.0,0.0,0.0,0.0,0.0,0.0,0.0,0.0,0.0,0.0,0.0,0.0,0.0,0.0,0.0,0.0,0.0,0.0,0.0,1.3231,1.3705,1.2583,0.993,0.9819,0.8987,0.7336,0.6411,0.5131,0.0,0.0,0.0,0.0,0.0,0.0,0.0,0.0,0.0,0.0,0.0,0.0,0.0,0.0,0.0,0.0,0.0,0.0,0.0,0.0,0.0,0.0,0.0,0.0,0.0,0.0,0.0,0.0,0.0,0.0,0.0,0.0,0.0,0.0,0.0,0.0,0.0,0.0,0.0,0.0,1.0314,1.0209,0.8041,0.0,0.0,0.0,0.0,0.0,0.0,0.5141,0.4298,0.0,0.0,0.0,0.0,0.0,0.0,0.0,0.0,0.0,0.0,0.0,0.0,0.0,0.0,0.0,0.0,0.0,0.0,0.0,0.0,0.0,0.0,0.0,0.0,0.0,0.0,0.0,0.0,0.0,0.0,0.0,0.0,0.0,0.0,0.0,0.0,0.0,0.0,0.0,0.0,0.0,0.0,0.0,0.0,0.0,0.0,0.0,0.0,0.0,0.0,0.0,0.0,0.0,0.0,0.0,1.2467,1.367,1.2853,0.9892,0.9778,0.9039,0.7646,0.714,0.6193,0.0,0.0,0.0,0.0,0.0,0.0,0.0,0.0,0.0,0.0,0.0,0.0,0.0,0.0,0.0,0.0,0.0,0.0,0.0,0.0,0.0,0.0,0.0,0.0,0.0,0.0,0.0,0.0,0.0,0.0,0.0,0.0,0.0,0.0,0.0,0.0,0.0,0.0,0.0,0.0,0.0,1.0538,0.8949,0.8713,0.0,0.0,0.0,0.0,0.67,0.6455,0.0,0.0,0.0,0.0,0.0,0.0,0.0,0.0,0.0,0.0,0.0,0.0,0.0,0.0,0.0,0.0,0.0,0.0,0.0,0.0,0.0,0.0,0.0,0.0,0.0,0.0,0.0,0.0,0.0,0.0,0.0,0.0,0.0,0.0,0.0,0.0,0.0,0.0,0.0,0.0,0.0,0.0,0.0,0.0,0.0,0.0,0.0,0.0,0.0,0.0,0.0,0.0,0.0,0.0,0.0,0.0,1.1248,1.2668,1.2205,0.9793,0.9632,0.9439,0.9114,0.7678,0.6756,0.0,0.0,0.0,0.0,0.0,0.0,0.0,0.0,0.0,0.0,0.0,0.0,0.0,0.0,0.0,0.0,0.0,0.0,0.0,0.0,0.0,0.0,0.0,0.0,0.0,0.0,0.0,0.0,0.0,0.0,0.0,0.0,0.0,0.0,0.0,0.0,0.0,0.0,0.0,0.0,0.0,1.0667,0.8963,0.8713,0.8699,0.0,0.0,0.8403,0.8243,0.7337,0.0,0.0,0.0,0.0,0.0,0.0,0.0,0.0,0.0,0.0,0.0,0.0,0.0,0.0,0.0,0.0,0.0,0.0,0.0,0.0,0.0,0.0,0.0,0.0,0.0,0.0,0.0,0.0,0.0,0.0,0.0,0.0,0.0,0.0,0.0,0.0,0.0,0.0,0.0,0.0,0.0,0.0,0.0,0.0,0.0,0.0,0.0,0.0,0.0,0.0,0.0,0.0,0.0,0.0,0.0,1.1387,1.0845,1.1895,1.1507,0.959,0.9479,0.9408,0.9256,0.8404,0.7862,0.0,0.0,0.0,0.0,0.0,0.0,0.0,0.0,0.0,0.0,0.0,0.0,0.0,0.0,0.0,0.0,0.0,0.0,0.0,0.0,0.0,0.0,0.0,0.0,0.0,0.0,0.0,0.0,0.0,0.0,0.0,0.0,0.0,0.0,0.0,0.0,0.0,0.0,0.0,0.0,0.0,0.0,0.8896,0.8842,0.0,0.0,0.0,0.8584,0.8496,0.0,0.0,0.0,0.0,0.0,0.0,0.0,0.0,0.0,0.0,0.0,0.0,0.0,0.0,0.0,0.0,0.0,0.0,0.0,0.0,0.0,0.0,0.0,0.0,0.0,0.0,0.0,0.0,0.0,0.0,0.0,0.0,0.0,0.0,0.0,0.0,0.0,0.0,0.0,0.0,0.0,0.0,0.0,0.0,0.0,0.0,0.0,0.0,0.0,0.0,0.0,0.0,0.0,0.0,0.0,0.0,0.0,1.0255,1.1166,1.0914,0.9381,0.9327,0.9309,0.9103,0.8849,0.0,0.0,0.0,0.0,0.0,0.0,0.0,0.0,0.0,0.0,0.0,0.0,0.0,0.0,0.0,0.0,0.0,0.0,0.0,0.0,0.0,0.0,0.0,0.0,0.0,0.0,0.0,0.7475,0.0,0.0,0.0,0.0,0.0,0.0,0.0,0.0,0.0,0.0,0.0,0.0,0.0,0.0,0.8794,0.8814,0.8861,0.8841,0.0,0.0,0.9251,0.9131,1.0241,1.1053,0.0,0.0,0.0,0.0,0.0,0.0,0.0,0.0,0.0,0.0,0.0,0.0,0.0,0.0,0.0,0.0,0.0,0.0,0.0,0.0,0.0,0.0,0.0,0.0,0.0,0.0,0.0,0.0,0.0,0.0,0.0,0.0,0.0,0.0,0.0,0.0,0.0,0.0,0.0,0.0,0.0,0.0,0.0,0.0,0.0,0.0,0.0,0.0,0.0,0.0,0.0,0.0,0.0,0.0,1.0092,0.8925,1.0489,1.0614,0.9281,0.9228,0.9096,0.8957,0.874,0.8574,0.0,0.0,0.0,0.0,0.0,0.0,0.0,0.0,0.0,0.0,0.0,0.0,0.0,0.0,0.0,0.0,0.0,0.0,0.0,0.0,0.0,0.0,0.0,0.0,0.0,0.0,0.0,0.0,0.0,0.0,0.0,0.0,0.0,0.0,0.0,0.0,0.0,0.0,0.0,0.0,0.0,0.8876,0.8743,0.8845,0.8878,0.0,0.9923,1.0764,1.0699,1.2063,1.2901,1.2329,0.0,0.0,0.0,0.0,0.0,0.0,0.0,0.0,0.0,0.0,0.0,0.0,0.0,0.0,0.0,0.0,0.0,0.0,0.0,0.0,0.0,0.0,0.0,0.0,0.0,0.0,0.0,0.0,0.0,0.0,0.0,0.0,0.0,0.0,0.0,0.0,0.0,0.0,0.0,0.0,0.0,0.0,0.0,0.0,0.0,0.0,0.0,0.0,0.0,0.0,0.0,0.0,0.0,0.9084,0.8627,0.9406,1.0005,1.0334,0.9461,0.9386,1.0135,0.9122,0.8431,0.0,0.0,0.0,0.0,0.0,0.0,0.0,0.0,0.0,0.0,0.0,0.0,0.0,0.0,0.0,0.0,0.0,0.0,0.0,0.0,0.0,0.0,0.0,0.0,0.0,0.0,0.0,0.0,0.7834,0.7848,0.7894,0.0,0.0,0.0,0.0,0.0,0.0,0.0,0.0,0.0,0.0,0.9019,1.0012,0.9439,0.0,0.0,0.9917,0.962,0.9574,1.1314,1.262,1.2334,1.3967,0.0,0.0,0.0,0.0,0.0,0.0,0.0,0.0,0.0,0.0,0.0,0.0,0.0,0.0,0.0,0.0,0.0,0.0,0.0,0.0,0.0,0.0,0.0,0.0,0.0,0.0,0.0,0.0,0.0,0.0,0.0,0.0,0.0,0.0,0.0,0.0,0.0,0.0,0.0,0.0,0.0,0.0,0.0,0.0,0.0,0.0,0.0,0.0,0.0,0.0,0.0,0.0,0.8535,0.8535,0.9211,0.9998,1.0975,1.0381,1.0293,1.0693,0.963,0.8702,0.0,0.0,0.0,0.0,0.0,0.0,0.0,0.0,0.0,0.0,0.0,0.0,0.0,0.0,0.0,0.0,0.0,0.0,0.0,0.0,0.0,0.0,0.0,0.0,0.0,0.0,0.0,0.0,0.7894,0.8066,0.8517,0.0,0.0,0.0,0.0,0.0,0.0,0.0,0.0,0.0,0.0,0.8959,1.0245,0.9588,0.9427,1.0891,1.0621,1.0284,1.0535,1.2488,1.3815,1.348,0.0,0.0,0.0,0.0,0.0,0.0,0.0,0.0,0.0,0.0,0.0,0.0,0.0,0.0,0.0,0.0,0.0,0.0,0.0,0.0,0.0,0.0,0.0,0.0,0.0,0.0,0.0,0.2181,0.0,0.0,0.4181,0.0,0.0,0.0,0.0,0.0,0.0,0.0,0.0,0.0,0.0,0.0,0.0,0.0,0.0,0.0,0.0,0.0,0.0,0.0,0.0,0.0,0.0,0.8479,0.8486,1.0108,1.0908,1.0798,1.199,1.1944,1.0556,1.0268,0.9485,0.8137,0.0,0.0,0.0,0.0,0.0,0.0,0.0,0.0,0.0,0.0,0.0,0.0,0.0,0.0,0.0,0.0,0.0,0.0,0.0,0.0,0.0,0.0,0.0,0.0,0.0,0.0,0.8035,0.8035,0.852,0.0,0.0,0.0,0.0,0.0,0.0,0.0,0.0,0.0,0.8647,0.8535,0.8647,0.8999,0.8992,0.9592,1.1,1.2295,1.351,1.4548,1.6187,1.7223,0.0,0.0,0.0,0.0,0.0,0.0,0.0,0.0,0.0,0.0,0.0,0.0,0.0,0.0,0.0,0.0,0.0,0.0,0.0,0.0,0.0,0.0,0.0,0.0,0.0,0.0,0.0,0.3861,0.3871,0.0,0.0,0.0,0.0,0.0,0.0,0.0,0.0,0.0,0.0,0.0,0.8538,0.8537,0.0,0.0,0.0,0.0,0.0,0.0,0.0,0.0,0.0,0.0,0.0,0.0,0.8384,0.8531,0.9937,1.1133,1.2034,1.2377,1.271,1.2984,1.2053,1.1208,1.0486,0.0,0.0,0.0,0.0,0.0,0.0,0.0,0.0,0.0,0.0,0.0,0.0,0.0,0.0,0.0,0.0,0.0,0.0,0.0,0.0,0.0,0.0,0.0,0.0,0.0,0.829,0.0,0.0,0.0,0.0,0.0,0.0,0.0,0.0,0.0,0.0,1.0103,0.9672,0.8532,0.9392,1.0457,1.1483,1.172,1.2349,0.0,0.0,0.0,0.0,0.0,0.0,0.0,0.0,0.0,0.0,0.0,0.0,0.0,0.0,2.3875,2.3317,2.2982,2.2805,2.2805,0.0,0.0,0.0,0.0,0.0,0.0,0.0,0.0,0.0,0.0,0.0,0.0,0.0,0.0,0.5587,0.561,0.5433,0.0,0.0,0.0,0.0,0.0,0.0,0.0,0.0,0.8726,0.8784,0.8645,0.8689,0.8659,0.856,0.8469,0.8319,0.0,0.0,0.0,0.0,0.0,0.0,0.0,0.0,0.9021,0.9168,1.0922,1.2324,1.3209,1.3582,1.3885,1.4137,1.2794,1.1986,1.1716,1.0686,1.0067,0.0,0.0,0.0,0.0,0.0,0.0,0.0,0.0,0.0,0.0,0.0,0.0,0.0,0.0,0.0,0.0,0.0,0.0,0.0,0.0,0.0,0.0,0.0,0.9098,0.0,0.0,0.0,0.0,0.0,0.0,0.0,0.0,0.0,1.1752,1.1577,1.1015,0.9431,1.0621,1.1797,1.2288,0.0,0.0,0.0,0.0,0.0,0.0,0.0,1.5532,1.5449,1.6155,1.7391,1.9185,2.2054,2.4362,2.4993,0.0,0.0,2.4933,2.4756,2.4639,2.4639,2.4414,2.4202,2.4312,2.4774,2.5285,0.0,0.0,0.0,0.0,0.5107,0.0,0.0,0.0,0.7169,0.7295,0.0,0.7137,0.0,0.0,0.0,0.0,0.8313,0.872,0.0,0.0,0.9053,0.9072,0.8875,0.8788,0.872,0.8716,0.871,0.8557,0.8279,0.8176,0.8045,0.0,0.0,0.0,0.0,0.0,1.0205,1.0319,1.3079,1.4412,1.4141,1.552,1.5519,1.404,1.2727,1.2042,1.1873,1.1795,1.159,1.1218,1.0015,0.0,0.0,0.0,0.0,0.0,0.0,0.0,0.0,0.0,0.0,0.0,0.0,0.0,0.0,0.0,0.0,0.0,0.0,0.0,0.0,1.0646,0.0,0.0,0.0,0.0,0.0,0.0,0.0,0.0,0.0,1.5393,1.4416,1.4266,1.349,1.1221,0.0,0.0,0.0,0.0,1.3965,1.5304,1.547,1.5864,1.6995,1.7382,1.7368,1.6814,0.0,0.0,2.0594,2.3492,2.5373,2.5127,2.5371,2.5645,2.5606,2.5293,2.5106,2.5077,2.4496,2.4277,2.5096,2.5272,2.5695,0.5925,0.0,0.0,0.0,0.0,0.721,0.819,0.951,0.9172,0.9048,0.9124,0.8686,0.0,0.0,0.0,0.0,0.0,0.0,0.875,0.872,0.891,0.8977,0.8937,0.8838,0.8817,0.8814,0.871,0.8611,0.8473,0.9173,0.9033,0.8038,0.0,0.0,0.0,0.0,1.0581,1.1649,1.3265,1.4105,1.4118,1.5322,1.5721,1.5248,1.4902,1.4673,1.464,1.3649,1.3065,1.2917,1.1438,0.0,0.0,0.0,0.0,0.0,0.0,0.0,0.0,0.0,0.0,0.0,0.0,0.0,0.0,0.0,0.0,0.0,0.0,0.0,1.1882,1.1375,1.1572,0.0,0.0,0.0,0.0,0.0,0.0,0.0,0.0,0.0,1.5732,1.4978,1.3814,0.0,0.0,1.4451,1.3866,1.5235,1.6499,1.6929,1.6988,0.0,1.7416,1.7407,1.7266,1.7099,1.7785,1.8895,2.0443,2.2228,2.3739,2.4433,2.4697,2.4795,2.4758,2.4961,2.5096,2.5114,2.5247,2.5375,2.5443,2.6515,2.7694,0.8358,0.749,0.7275,0.7765,0.877,0.8614,0.9256,1.0388,1.0056,0.9944,0.9981,0.9588,0.9286,0.9052,0.8784,0.0,0.0,0.0,0.8801,0.8804,0.8841,0.8937,0.8937,0.8937,0.8937,0.893,0.932,0.942,0.9306,1.0459,1.0517,0.9558,0.0,0.9944,1.0779,1.1263,1.2001,1.2866,1.4057,1.4683,1.4753,1.5482,1.5825,1.5825,1.5825,1.5825,1.5778,1.4986,1.4472,1.4366,1.2928,1.2055,0.0,0.0,0.0,0.0,0.0,0.0,0.0,0.0,0.0,0.0,0.0,1.3737,1.3798,0.0,0.0,0.0,1.4582,1.3984,1.3476,1.2868,0.0,0.0,0.0,0.0,0.0,0.0,0.0,1.4837,1.5393,1.5939,1.6239,1.5667,1.4733,1.3423,1.4912,1.5845,1.4995,0.0,1.7589,1.7589,1.7589,1.7542,1.7428,1.732,1.7159,1.7038,1.7953,1.9138,2.0377,2.1678,2.299,2.4081,2.4424,2.4424,2.4424,2.4502,2.4675,2.4812,2.5005,2.5314,2.5881,2.7043,2.8029,1.0721,1.0697,1.0429,1.0317,1.0314,1.0304,1.0297,1.0287,1.0134,1.0141,1.0239,0.9937,0.972,0.9547,0.9084,0.0,0.8733,0.8821,0.8881,0.8937,0.8937,0.8937,0.8937,0.8937,0.8875,0.8916,1.0112,1.0566,1.047,1.1709,1.2256,1.2047,1.2188,1.2188,1.2139,1.3247,1.3926,1.407,1.5201,1.5778,1.5778,1.5825,1.5825,1.5825,1.5825,1.5825,1.5825,1.5778,1.5712,1.5405,1.4418,1.3567,1.3037,0.0,0.0,0.0,0.0,0.0,0.0,0.0,0.0,0.0,0.0,0.0,0.0,0.0,0.0,0.0,1.5364,0.0,1.5751,1.4734,0.0,0.0,0.0,1.4409,1.5365,1.5665,1.5825,1.5825,0.0,0.0,1.6199,1.6288,1.5836,1.4761,1.6075,1.6684,1.5293,1.6502,1.7508,1.7475,1.7508,1.7467,1.7206,1.7119,1.6998,1.6764,1.7676,1.8821,2.0206,2.1359,2.273,2.4019,2.4261,2.4287,2.4261,2.3984,2.3867,2.4228,2.412,2.4591,2.6451,2.6911,2.7429,1.0721,1.0714,1.0646,1.0616,1.0605,1.049,1.0439,1.0429,1.0287,1.0181,1.0086,0.9791,0.9513,0.9313,0.915,0.9022,0.8889,0.8868,0.8937,0.8937,0.8937,0.8937,0.8937,0.8937,0.8876,0.8818,1.0057,1.0556,1.0387,1.2539,1.3586,1.3457,1.437,1.437,1.344,1.3728,1.4364,1.5343,1.5635,1.5825,1.5825,1.5825,1.5825,1.5825,1.5825,1.5825,1.5825,1.5825,1.5798,1.5678,1.5232,1.4956,1.4813,1.4078,0.0,0.0,0.0,0.0,0.0,0.0,0.0,0.0,0.0,1.5028,1.4639,0.0,1.5304,0.0,1.5109,1.5316,1.5772,1.5343,0.0,0.0,1.5494,1.546,1.5684,1.5738,1.5825,1.5825,1.5825,1.5811,1.5925,1.5932,1.5808,1.5544,1.6233,1.6627,1.6067,1.6469,1.6914,1.6927,1.6941,1.6887,1.6814,1.662,1.6466,1.6386,1.6477,1.7253,1.939,1.9983,2.0909,2.2885,2.3437,2.3393,2.3422,2.3305,2.3296,2.3462,2.4022,2.4965,2.6349,2.7208,2.8096,1.0721,1.0721,1.0721,1.0721,1.0711,1.0558,1.0493,1.0477,1.027,1.0068,0.9967,0.968,0.9476,0.9252,0.9241,0.9072,0.8885,0.8937,0.8937,0.8937,0.8937,0.8937,0.8937,0.8937,0.8859,0.8763,1.0587,1.1329,1.1271,1.3603,1.4812,1.4758,1.5439,1.5439,1.48,1.4752,1.5099,1.5778,1.5825,1.5825,1.5825,1.5825,1.5825,1.5825,1.5825,1.5825,1.5825,1.5825,1.5772,1.5645,1.5484,1.5337,1.5211,1.4897,1.4583,0.0,0.0,0.0,0.0,0.0,0.0,0.0,0.0,0.0,0.0,0.0,1.5331,1.5216,1.5271,1.5484,1.5751,1.5638,1.5651,1.5812,1.5825,1.5825,1.5825,1.5825,1.5825,1.5825,1.5825,1.5825,1.5825,1.5825,1.5825,1.5825,1.6112,1.6306,1.6306,1.652,1.6707,1.6707,1.6707,1.6653,1.654,1.6266,1.6079,1.6066,1.5939,1.6608,1.9039,1.9497,2.0268,2.2545,2.3101,2.3101,2.3101,2.3101,2.3101,2.3256,2.3996,2.5126,2.6265,2.6964,2.7815,1.0721,1.0721,1.0721,1.0711,1.068,1.0527,1.0463,1.0446,1.0105,0.9974,0.9943,0.973,0.9527,0.9429,0.9279,0.9076,0.8885,0.8937,0.8937,0.8937,0.8937,0.8937,0.8937,0.8937,0.8849,0.8783,1.1041,1.2166,1.2228,1.4431,1.5635,1.5778,1.5825,1.5825,1.5825,1.5825,1.5825,1.5825,1.5825,1.5825,1.5825,1.5825,1.5825,1.5825,1.5825,1.5825,1.5825,1.5825,1.5712,1.5464,1.5451,1.5337,1.5084,1.5082,1.4883,0.0,1.4816,0.0,0.0,0.0,0.0,0.0,0.0,0.0,0.0,1.5431,1.5451,1.5451,1.5685,1.5825,1.5825,1.5825,1.5825,1.5825,1.5825,1.5825,1.5825,1.5825,1.5825,1.5825,1.5825,1.5825,1.5825,1.5825,1.5825,1.5825,1.5804,1.5959,1.6166,1.6406,1.6547,1.6593,1.6593,1.6446,1.6246,1.6005,1.5852,1.5838,1.5832,1.6655,1.9077,1.9497,2.0268,2.2457,2.3101,2.3101,2.3101,2.3101,2.3101,2.3135,2.3996,2.5126,2.6182,2.673,2.7383,1.0721,1.0721,1.0721,1.0649,1.0524,1.0378,1.0321,1.0307,1.0127,0.992,0.9852,0.9683,0.9523,0.9374,0.9275,0.9072,0.894,0.8937,0.8937,0.8937,0.8937,0.8937,0.8937,0.8937,0.8791,0.8639,1.0044,1.1184,1.1962,1.3516,1.48,1.5778,1.5825,1.5825,1.5825,0.0,0.0,0.0,1.5825,1.5825,1.5825,1.5825,1.5825,1.5825,1.5825,0.0,1.5825,1.5825,1.5758,1.5704,1.5704,0.0,0.0,0.0,0.0,0.0,0.0,0.0,0.0,0.0,0.0,0.0,1.5344,1.5344,1.5398,1.5611,1.5698,1.5704,1.5751,1.5825,1.5825,1.5825,1.5825,1.5825,1.5825,1.5825,1.5825,1.5825,1.5825,1.5825,1.5825,1.5825,1.5825,1.5825,1.5825,1.5825,1.5825,1.5852,1.5905,1.5985,1.6005,1.5992,1.5991,1.5992,1.5871,1.5818,1.5825,1.5825,1.5825,1.6788,1.8894,1.9497,2.0314,2.2633,2.3101,2.3101,2.3101,2.3101,2.3144,2.3101,2.4049,2.5126,2.6265,2.7209,2.8187,1.0721,1.0721,1.0721,1.0629,0.0,1.0341,1.0236,1.0154,1.0002,0.9832,0.9805,0.9591,0.9452,0.9367,0.9147,0.9008,0.8937,0.8937,0.8937,0.8937,0.8937,0.8937,0.8881,0.8862,0.8706,0.8587,1.0399,1.1468,1.2009,1.3884,1.5146,1.5778,1.5825,1.5825,1.5825,1.5825,1.5825,1.5825,1.5825,1.5825,1.5825,1.5825,1.5825,1.5825,1.5825,0.0,0.0,0.0,0.0,0.0,0.0,0.0,0.0,0.0,0.0,1.5398,1.5391,1.5324,1.519,1.5311,1.5451,1.5598,1.5605,1.5611,1.5611,1.5698,1.5825,1.5825,1.5825,1.5825,1.5825,1.5825,1.5825,1.5825,1.5825,1.5825,1.5825,1.5825,1.5825,1.5825,1.5825,1.5825,1.5825,1.5825,1.5825,1.5825,1.5825,1.5825,1.5825,1.5825,1.5825,1.5825,1.5825,1.5825,1.5825,1.5825,1.5825,1.5825,1.5825,1.6842,1.9085,1.9497,2.0268,2.2501,2.3101,2.3101,2.3101,2.3101,2.3256,2.3887,2.484,2.5953,2.7035,2.7723,2.8438,1.0721,1.0717,1.0694,1.0595,1.0443,1.03,1.0154,0.994,0.9876,0.0,0.0,0.9496,0.9367,0.932,0.9059,0.8937,0.8937,0.8937,0.8937,0.8937,0.8937,0.8937,0.8875,0.8781,0.8628,0.8636,1.0561,1.1667,1.1999,1.4076,1.5391,1.5778,1.5825,1.5825,1.5825,1.5825,1.5825,1.5825,1.5825,1.5825,1.5825,1.5825,1.5825,1.5825,1.5825,1.5825,1.5825,1.5825,1.5671,1.5484,1.5471,1.5478,1.5471,1.5471,1.5578,1.5758,1.5825,1.5825,1.5825,1.5825,1.5825,1.5825,1.5825,1.5825,1.5825,1.5825,1.5825,1.5825,1.5825,1.5825,1.5825,1.5825,1.5825,1.5825,1.5825,1.5825,1.5825,1.5825,1.5825,1.5825,1.5825,1.5825,1.5825,1.5825,1.5825,1.5825,1.5825,1.5825,1.5825,1.5825,1.5825,1.5825,1.5825,1.5825,1.5825,1.5825,1.5825,1.5825,1.5825,1.6702,1.8764,1.9497,2.0458,2.2677,2.3091,2.3101,2.3101,2.3101,2.3517,2.4585,2.5714,2.6789,2.7815,2.8255,2.8727,1.0721,1.0707,1.0578,1.0439,1.03,1.0148,0.993,0.9852,0.9768,0.9754,0.9625,0.9456,0.9367,0.9231,0.9011,0.8937,0.8937,0.8937,0.8937,0.8937,0.8937,0.8937,0.8875,0.8784,0.8632,0.8531,0.8745,0.9883,1.177,1.2334,1.3547,1.554,1.5825,1.5825,1.5825,1.5825,1.5825,1.5825,1.5825,1.5825,1.5825,1.5825,1.5825,1.5825,1.5825,1.5825,1.5825,1.5825,1.5764,1.5772,1.5724,1.5718,1.5772,1.5758,1.5738,1.5778,1.5825,1.5825,1.5825,1.5825,1.5825,1.5825,1.5825,1.5825,1.5825,1.5825,1.5825,1.5825,1.5825,1.5825,1.5825,1.5825,1.5825,1.5825,1.5825,1.5825,1.5825,1.5825,1.5825,1.5825,1.5825,1.5825,1.5825,1.5825,1.5825,1.5825,1.5825,1.5825,1.5825,1.5825,1.5825,1.5825,1.5825,1.5825,1.5825,1.5825,1.5825,1.5825,1.5825,1.6608,1.9085,1.9497,2.0404,2.2677,2.3091,2.3101,2.3101,2.3101,2.3637,2.467,2.5797,2.683,2.7976,2.8858,2.9534,1.0721,1.07,1.0558,1.0412,1.0263,1.0029,0.9886,0.9822,0.9819,0.9741,0.9598,0.9449,0.9354,0.9204,0.9001,0.8937,0.8937,0.8937,0.8937,0.8937,0.8937,0.8937,0.8861,0.8696,0.8913,0.9551,1.0058,1.121,1.2915,1.3692,1.4663,1.573,1.5825,1.5825,1.5825,1.5825,1.5825,1.5825,1.5825,1.5825,1.5825,1.5825,1.5825,1.5825,1.5825,1.5825,1.5825,1.5825,1.5825,1.5825,1.5825,1.5825,1.5825,1.5825,1.5825,1.5825,1.5825,1.5825,1.5825,1.5825,1.5825,1.5825,1.5825,1.5825,1.5825,1.5825,1.5825,1.5825,1.5825,1.5825,1.5825,1.5825,1.5825,1.5825,1.5825,1.5825,1.5825,1.5825,1.5825,1.5825,1.5825,1.5825,1.5825,1.5825,1.5825,1.5825,1.5825,1.5825,1.5825,1.5825,1.5825,1.5825,1.5825,1.5825,1.5825,1.5825,1.5825,1.5825,1.5825,1.6842,1.8948,1.9497,2.0539,2.2545,2.3101,2.3101,2.3101,2.3101,2.3844,2.5389,2.6058,2.7046,2.853,2.9495,2.974,1.07,1.0656,1.0507,1.0341,1.0158,0.9924,0.9819,0.9819,0.9819,0.9724,0.9554,0.9432,0.9279,0.91,0.8984,0.8937,0.8937,0.8937,0.8937,0.8937,0.8937,0.8865,0.8862,0.8604,0.9134,1.03,1.1141,1.228,1.3824,1.4902,1.5534,1.5778,1.5825,1.5825,1.5825,1.5825,1.5825,1.5825,1.5825,1.5825,1.5825,1.5825,1.5825,1.5825,1.5825,1.5825,1.5825,1.5825,1.5825,1.5825,1.5825,1.5825,1.5825,1.5825,1.5825,1.5825,1.5825,1.5825,1.5825,1.5825,1.5825,1.5825,1.5825,1.5825,1.5825,1.5825,1.5825,1.5825,1.5825,1.5825,1.5825,1.5825,1.5825,1.5825,1.5825,1.5825,1.5825,1.5825,1.5825,1.5825,1.5825,1.5825,1.5825,1.5825,1.5825,1.5825,1.5825,1.5825,1.5825,1.5825,1.5825,1.5872,1.6015,1.6109,1.592,1.6157,1.6109,1.592,1.6103,1.7257,1.8948,1.967,2.0674,2.2589,2.3101,2.3101,2.3101,2.3101,2.4016,2.5766,2.6442,2.7191,2.9209,2.9702,2.9779,1.0639,1.0504,1.0365,1.0127,0.988,0.9836,0.9819,0.9819,0.9819,0.9659,0.9418,0.9384,0.9225,0.8925,0.8892,0.8937,0.8937,0.8937,0.8937,0.8937,0.8937,0.8811,0.8733,0.8613,0.9076,1.0137,1.0334,1.1745,1.3926,1.4118,1.4704,1.5676,1.5825,1.5825,1.5825,1.5825,1.5825,1.5825,1.5825,1.5825,1.5825,1.5825,1.5825,1.5825,1.5825,1.5825,1.5825,1.5825,1.5825,1.5825,1.5825,1.5825,1.5825,1.5825,1.5825,1.5825,1.5825,1.5825,1.5825,1.5825,1.5825,1.5825,1.5825,1.5825,1.5825,1.5825,1.5825,1.5825,1.5825,1.5825,1.5825,1.5825,1.5825,1.5825,1.5825,1.5825,1.5825,1.5825,1.5825,1.5825,1.5825,1.5825,1.5825,1.5825,1.5825,1.5825,1.5825,1.5825,1.5825,1.5825,1.592,1.6062,1.6756,1.6943,1.6339,1.685,1.6943,1.6244,1.681,1.8002,1.9314,2.0486,2.1614,2.2643,2.3101,2.3101,2.3101,2.3178,2.3887,2.5641,2.6524,2.7221,2.9118,2.9779,2.9779,1.0629,1.048,1.0341,1.01,0.9839,0.9819,0.9819,0.9819,0.9819,0.9656,0.9398,0.9381,0.9218,0.894,0.8937,0.8937,0.8937,0.8937,0.8937,0.8937,0.8937,0.8859,0.876,0.9388,1.024,1.1408,1.1992,1.3253,1.4752,1.5003,1.5289,1.573,1.5825,1.5825,1.5825,1.5825,1.5825,1.5825,1.5825,1.5825,1.5825,1.5825,1.5825,1.5825,1.5825,1.5825,1.5825,1.5825,1.5825,1.5825,1.5825,1.5825,1.5825,1.5825,1.5825,1.5825,1.5825,1.5825,1.5825,1.5825,1.5825,1.5825,1.5825,1.5825,1.5825,1.5825,1.5825,1.5825,1.5825,1.5825,1.5825,1.5825,1.5825,1.5825,1.5825,1.5825,1.5825,1.5825,1.5825,1.5825,1.5825,1.5825,1.5825,1.5825,1.5825,1.5825,1.5825,1.5825,1.5825,1.5825,1.6157,1.6897,1.7948,1.8133,1.7264,1.7271,1.7684,1.7902,1.777,1.8234,2.0124,2.0845,2.1712,2.2916,2.3047,2.3101,2.3101,2.3178,2.3681,2.5305,2.6953,2.7947,2.9507,2.9792,2.9779,1.0571,1.0415,1.0236,1.0025,0.9825,0.9819,0.9819,0.9812,0.9781,0.9618,0.9388,0.9337,0.9178,0.896,0.8937,0.8937,0.8937,0.8937,0.8937,0.8878,0.8841,0.8798,0.8749,0.9835,1.0977,1.2133,1.3283,1.4507,1.5683,1.5825,1.5825,1.5825,1.5825,1.5825,1.5825,1.5825,1.5825,1.5825,1.5825,1.5825,1.5825,1.5825,1.5825,1.5825,1.5825,1.5825,1.5825,1.5825,1.5825,1.5825,1.5825,1.5825,1.5825,1.5825,1.5825,1.5825,1.5825,1.5825,1.5825,1.5825,1.5825,1.5825,1.5825,1.5825,1.5825,1.5825,1.5825,1.5825,1.5825,1.5825,1.5825,1.5825,1.5825,1.5825,1.5825,1.5825,1.5825,1.5825,1.5825,1.5825,1.5825,1.5825,1.5825,1.5825,1.5825,1.5825,1.5825,1.5825,1.5825,1.5825,1.6251,1.7498,1.8672,1.9047,1.8373,1.868,1.9039,1.9085,1.891,1.9497,2.1069,2.1391,2.1845,2.3003,2.3091,2.3101,2.3101,2.3178,2.3681,2.5126,2.6685,2.8307,2.9585,2.974,2.9779,1.0419,1.0256,0.9968,0.9846,0.9819,0.9819,0.9819,0.9812,0.9683,0.953,0.9374,0.9292,0.9079,0.8885,0.8937,0.8937,0.8937,0.8937,0.8937,0.8868,0.8794,0.8642,0.8591,0.9654,1.0829,1.2001,1.3414,1.4657,1.5778,1.5825,1.5825,1.5825,1.5825,1.5825,1.5825,1.5825,1.5825,1.5825,1.5825,1.5825,1.5825,1.5825,1.5825,1.5825,1.5825,1.5825,1.5825,1.5825,1.5825,1.5825,1.5825,1.5825,1.5825,1.5825,1.5825,1.5825,1.5825,1.5825,1.5825,1.5825,1.5825,1.5825,1.5825,1.5825,1.5825,1.5825,1.5825,1.5825,1.5825,1.5825,1.5825,1.5825,1.5825,1.5825,1.5825,1.5825,1.5825,1.5825,1.5825,1.5825,1.5825,1.5825,1.5825,1.5825,1.5825,1.5825,1.5825,1.5825,1.5825,1.5825,1.6386,1.749,1.8634,1.9451,1.9497,1.9898,2.0169,2.0305,2.0576,2.1025,2.1525,2.2076,2.2677,2.3047,2.3091,2.3101,2.3101,2.3517,2.4264,2.5462,2.6778,2.8239,2.9534,2.974,2.9779,1.0351,1.0117,0.991,0.9819,0.9819,0.9819,0.9819,0.9805,0.9673,0.9523,0.9371,0.9275,0.9072,0.8937,0.8937,0.8937,0.8937,0.8937,0.8937,0.8865,0.8781,0.8628,0.8738,1.0505,1.1607,1.217,1.4076,1.5337,1.573,1.5825,1.5825,1.5825,1.5825,1.5825,1.5825,1.5825,1.5825,1.5825,1.5825,1.5825,1.5825,1.5825,1.5825,1.5825,1.5825,1.5825,1.5825,1.5825,1.5825,1.5825,1.5825,1.5825,1.5825,1.5825,1.5825,1.5825,1.5825,1.5825,1.5825,1.5825,1.5825,1.5825,1.5825,1.5825,1.5825,1.5825,1.5825,1.5825,1.5825,1.5825,1.5825,1.5825,1.5825,1.5825,1.5825,1.5825,1.5825,1.5825,1.5825,1.5825,1.5825,1.5825,1.5825,1.5825,1.5825,1.5825,1.5825,1.5825,1.5825,1.5825,1.6251,1.7498,1.8726,1.9761,2.0621,2.0935,2.1203,2.1525,2.1845,2.1898,2.2262,2.2545,2.3047,2.3091,2.3101,2.3101,2.3101,2.3178,2.4092,2.563,2.6994,2.7947,2.9417,2.9624,2.974,1.0205,0.9916,0.9863,0.9819,0.9819,0.9819,0.9795,0.9741,0.9598,0.9452,0.93,0.915,0.9028,0.8895,0.8937,0.8937,0.8937,0.8937,0.8916,0.8855,0.8706,0.856,0.8768,1.0521,1.1643,1.2257,1.4561,1.5825,1.5825,1.5825,1.5825,1.5825,1.5825,1.5825,1.5825,1.5825,1.5825,1.5825,1.5825,1.5825,1.5825,1.5825,1.5825,1.5825,1.5825,1.5825,1.5825,1.5825,1.5825,1.5825,1.5825,1.5825,1.5825,1.5825,1.5825,1.5825,1.5825,1.5825,1.5825,1.5825,1.5825,1.5825,1.5825,1.5825,1.5825,1.5825,1.5825,1.5825,1.5825,1.5825,1.5825,1.5825,1.5825,1.5825,1.5825,1.5825,1.5825,1.5825,1.5825,1.5825,1.5825,1.5825,1.5825,1.5825,1.5825,1.5825,1.5825,1.5825,1.5825,1.5825,1.6244,1.7505,1.8726,1.9898,2.0935,2.1569,2.1987,2.2306,2.2403,2.2545,2.2677,2.296,2.3101,2.3101,2.3101,2.3101,2.3101,2.3101,2.4092,2.563,2.6502,2.7331,2.8502,2.9534,2.9663,0.9975,0.9839,0.9819,0.9819,0.9819,0.9819,0.9741,0.9615,0.9462,0.9378,0.9231,0.9015,0.8898,0.8937,0.8937,0.8937,0.8937,0.8937,0.8817,0.8747,0.8577,0.8431,0.8453,0.9775,1.1194,1.2334,1.4609,1.5778,1.5825,1.5825,1.5825,1.5825,1.5825,1.5825,1.5825,1.5825,1.5825,1.5825,1.5825,1.5825,1.5825,1.5825,1.5825,1.5825,1.5825,1.5825,1.5825,1.5825,1.5825,1.5825,1.5825,1.5825,1.5825,1.5825,1.5825,1.5825,1.5825,1.5825,1.5825,1.5825,1.5825,1.5825,1.5825,1.5825,1.5825,1.5825,1.5825,1.5825,1.5825,1.5825,1.5825,1.5825,1.5825,1.5825,1.5825,1.5825,1.5825,1.5825,1.5825,1.5825,1.5825,1.5825,1.5825,1.5825,1.5825,1.5825,1.5825,1.5825,1.5825,1.5825,1.6339,1.7358,1.8365,1.9405,2.0809,2.2129,2.2589,2.296,2.2916,2.296,2.2916,2.3101,2.3101,2.3101,2.3101,2.3101,2.3101,2.3178,2.3681,2.4925,2.5755,2.6842,2.8028,2.9067,2.9624,1.0056,0.9832,0.9819,0.9819,0.9819,0.9819,0.9741,0.9598,0.9449,0.9296,0.9147,0.9001,0.8937,0.8937,0.8937,0.8937,0.8937,0.8881,0.8854,0.8774,0.8604,0.8514,0.8781,1.0386,1.2474,1.437,1.5391,1.5825,1.5825,1.5825,1.5825,1.5825,1.5825,1.5825,1.5825,1.5825,1.5825,1.5825,1.5825,1.5825,1.5825,1.5825,1.5825,1.5825,1.5825,1.5825,1.5825,1.5825,1.5825,1.5825,1.5825,1.5825,1.5825,1.5825,1.5825,1.5825,1.5825,1.5825,1.5825,1.5825,1.5825,1.5825,1.5825,1.5825,1.5825,1.5825,1.5825,1.5825,1.5825,1.5825,1.5825,1.5825,1.5825,1.5825,1.5825,1.5825,1.5825,1.5825,1.5825,1.5825,1.5825,1.5825,1.5825,1.5825,1.5832,1.5872,1.5872,1.5825,1.5825,1.5872,1.5825,1.6433,1.7537,1.8503,1.9459,2.0494,2.1266,2.1996,2.2413,2.296,2.3047,2.3101,2.3101,2.3101,2.3101,2.3101,2.3101,2.3309,2.3724,2.4553,2.5641,2.6748,2.7896,2.8727,2.9482,0.9998,0.9825,0.9819,0.9819,0.9819,0.9819,0.9741,0.9598,0.9449,0.9293,0.9204,0.9005,0.8937,0.8937,0.8937,0.8937,0.8937,0.8937,0.8937,0.8848,0.8689,0.852,0.8754,1.0839,1.2624,1.4274,1.5343,1.5778,1.5825,1.5825,1.5825,1.5825,1.5825,1.5825,1.5825,1.5825,1.5825,1.5825,1.5825,1.5825,1.5825,1.5825,1.5825,1.5825,1.5825,1.5825,1.5825,1.5825,1.5825,1.5825,1.5825,1.5825,1.5825,1.5825,1.5825,1.5825,1.5825,1.5825,1.5825,1.5825,1.5825,1.5825,1.5825,1.5825,1.5825,1.5825,1.5825,1.5825,1.5825,1.5825,1.5825,1.5825,1.5825,1.5825,1.5825,1.5825,1.5825,1.5825,1.5825,1.5825,1.5825,1.5825,1.5825,1.5825,1.6062,1.6292,1.6109,1.6109,1.6204,1.6109,1.5967,1.6103,1.7077,1.7731,1.787,1.8772,1.9807,2.0719,2.1587,2.2359,2.2906,2.3047,2.3101,2.3101,2.3101,2.3101,2.3101,2.3101,2.343,2.452,2.5347,2.6461,2.7533,2.891,2.9663,0.9832,0.9819,0.9819,0.9819,0.9819,0.9819,0.973,0.9578,0.9445,0.934,0.9183,0.8994,0.8937,0.8937,0.8937,0.8937,0.8937,0.8937,0.8937,0.8896,0.8754,0.8603,0.8969,1.0915,1.2145,1.2818,1.4758,1.573,1.5825,1.5825,1.5825,1.5825,1.5825,1.5825,1.5825,1.5825,1.5825,1.5825,1.5825,1.5825,1.5825,1.5825,1.5825,1.5825,1.5825,1.5825,1.5825,1.5825,1.5825,1.5825,1.5825,1.5825,1.5825,1.5825,1.5825,1.5825,1.5825,1.5825,1.5825,1.5825,1.5825,1.5825,1.5825,1.5825,1.5825,1.5825,1.5825,1.5825,1.5825,1.5825,1.5825,1.5825,1.5825,1.5825,1.5825,1.5825,1.5825,1.5825,1.5825,1.5832,1.5825,1.5872,1.5967,1.6008,1.6749,1.7084,1.681,1.703,1.699,1.6763,1.6062,1.6292,1.6803,1.6897,1.7084,1.735,1.8388,1.9405,2.0449,2.1543,2.2545,2.2862,2.3101,2.3101,2.3101,2.3101,2.3101,2.3101,2.3101,2.3594,2.4638,2.5891,2.7261,2.8593,2.9663,0.9859,0.9822,0.9819,0.9819,0.9819,0.9819,0.9673,0.9456,0.9405,0.9242,0.9032,0.8905,0.8937,0.8937,0.8937,0.8937,0.8937,0.8937,0.8937,0.8913,0.8784,0.9048,0.9712,1.1105,1.2382,1.3392,1.4902,1.5825,1.5825,1.5825,1.5825,1.5825,1.5825,1.5825,1.5825,1.5825,1.5825,1.5825,1.5825,1.5825,1.5825,1.5825,1.5825,1.5825,1.5825,1.5825,1.5825,1.5825,1.5825,1.5825,1.5825,1.5825,1.5825,1.5825,1.5825,1.5825,1.5825,1.5825,1.5825,1.5825,1.5825,1.5825,1.5825,1.5825,1.5825,1.5825,1.5825,1.5825,1.5825,1.5825,1.5825,1.5825,1.5825,1.5825,1.5825,1.5825,1.5825,1.5825,1.5825,1.5872,1.6622,1.6615,1.656,1.7296,1.8172,1.8002,1.8087,1.8126,1.7909,1.7458,1.681,1.6015,1.6103,1.6204,1.6292,1.6473,1.707,1.8087,1.9231,2.0494,2.1632,2.2545,2.2872,2.3101,2.3101,2.3101,2.3101,2.3101,2.3101,2.3101,2.4606,2.6099,2.7017,2.8171,2.9287,0.99,0.9822,0.9819,0.9819,0.9819,0.9819,0.969,0.9493,0.9401,0.9252,0.9052,0.896,0.8937,0.8937,0.8937,0.8937,0.8937,0.8937,0.8937,0.8841,0.8713,0.8848,0.9581,1.0986,1.2328,1.3151,1.4949,1.573,1.5825,1.5825,1.5825,1.5825,1.5825,1.5825,1.5825,1.5825,1.5825,1.5825,1.5825,1.5825,1.5825,1.5825,1.5825,1.5825,1.5825,1.5825,1.5825,1.5825,1.5825,1.5825,1.5825,1.5825,1.5825,1.5825,1.5825,1.5825,1.5825,1.5825,1.5825,1.5825,1.5825,1.5825,1.5825,1.5825,1.5825,1.5825,1.5825,1.5825,1.5825,1.5825,1.5825,1.5825,1.5825,1.5825,1.5825,1.5825,1.5825,1.5825,1.6109,1.6574,1.7178,1.777,1.7296,1.8718,1.9231,1.9285,1.9268,1.9047,1.8642,1.8102,1.7365,1.648,1.5872,1.592,1.6015,1.6103,1.6513,1.7444,1.9047,2.0133,2.1454,2.2545,2.2818,2.3101,2.3101,2.3101,2.3101,2.3101,2.3101,2.3594,2.501,2.5975,2.6801,2.7787,2.8897,0.9819,0.9819,0.9819,0.9819,0.9819,0.9819,0.972,0.9568,0.9435,0.9279,0.911,0.8988,0.894,0.8937,0.8937,0.8937,0.8937,0.8937,0.8893,0.8798,0.8615,0.864,0.9105,1.0936,1.1901,1.2479,1.4567,1.5635,1.5825,1.5825,1.5825,1.5825,1.5825,1.5825,1.5825,1.5825,1.5825,1.5825,1.5825,1.5825,1.5825,1.5825,1.5825,1.5825,1.5825,1.5825,1.5825,1.5825,1.5825,1.5825,1.5825,1.5825,1.5825,1.5825,1.5825,1.5825,1.5825,1.5825,1.5825,1.5825,1.5825,1.5825,1.5825,1.5825,1.5825,1.5825,1.5825,1.5825,1.5825,1.5825,1.5825,1.5825,1.5825,1.5825,1.5825,1.5825,1.5825,1.5825,1.6292,1.7505,1.7731,1.8449,1.9131,1.9761,2.0215,2.0367,2.0449,2.0359,1.9687,1.8918,1.7863,1.6622,1.615,1.5825,1.5825,1.5872,1.6332,1.7109,1.9077,2.0584,2.2041,2.2916,2.3003,2.3101,2.3101,2.3101,2.3101,2.3101,2.3101,2.3517,2.4467,2.5389,2.6295,2.7481,2.8624,0.9819,0.9819,0.9819,0.9819,0.9819,0.9815,0.9673,0.9435,0.9398,0.9239,0.9025,0.8895,0.894,0.8937,0.8937,0.8937,0.8937,0.8923,0.8825,0.8577,0.8533,0.8988,0.9684,1.1179,1.1853,1.2581,1.4567,1.573,1.5825,1.5825,1.5825,1.5825,1.5825,1.5825,1.5825,1.5825,1.5825,1.5825,1.5825,1.5825,1.5825,1.5825,1.5825,1.5825,1.5825,1.5825,1.5825,1.5825,1.5825,1.5825,1.5825,1.5825,1.5825,1.5825,1.5825,1.5825,1.5825,1.5825,1.5825,1.5825,1.5825,1.5825,1.5825,1.5825,1.5825,1.5825,1.5825,1.5825,1.5825,1.5825,1.5825,1.5825,1.5825,1.5825,1.5825,1.5825,1.5825,1.5825,1.6386,1.7544,1.8549,1.9222,1.9625,2.1355,2.1721,2.1534,2.1543,2.1721,2.0863,1.9724,1.8411,1.703,1.6197,1.5872,1.592,1.6197,1.7109,1.7794,1.9526,2.0944,2.2457,2.3101,2.3101,2.3101,2.3101,2.3101,2.3101,2.3101,2.3101,2.3507,2.4006,2.5136,2.6243,2.7348,2.8414,0.9819,0.9819,0.9819,0.9819,0.9819,0.9815,0.9652,0.9418,0.9381,0.9218,0.8984,0.8937,0.8937,0.8937,0.8937,0.8937,0.8937,0.8875,0.8774,0.8547,0.8525,0.8727,0.9375,1.097,1.2188,1.3011,1.4806,1.573,1.5825,1.5825,1.5825,1.5825,1.5825,1.5825,1.5825,1.5825,1.5825,1.5825,1.5825,1.5825,1.5825,1.5825,1.5825,1.5825,1.5825,1.5825,1.5825,1.5825,1.5825,1.5825,1.5825,1.5825,1.5825,1.5825,1.5825,1.5825,1.5825,1.5825,1.5825,1.5825,1.5825,1.5825,1.5825,1.5825,1.5825,1.5825,1.5825,1.5825,1.5825,1.5825,1.5825,1.5825,1.5825,1.5825,1.5825,1.5825,1.5825,1.5825,1.6567,1.8041,1.9093,2.0133,2.1221,2.2448,2.2677,2.2315,2.2271,2.2359,2.1168,2.0042,1.8918,1.763,1.648,1.592,1.5967,1.6702,1.8072,1.9123,2.0477,2.1623,2.2731,2.3003,2.3101,2.3101,2.3101,2.3101,2.3101,2.3101,2.3135,2.3387,2.4006,2.5126,2.6243,2.7348,2.8438,0.9819,0.9819,0.9819,0.9819,0.9819,0.9791,0.9632,0.9401,0.9357,0.9181,0.8922,0.8937,0.8937,0.8937,0.8937,0.8937,0.893,0.8879,0.872,0.8509,0.8438,0.8834,0.9466,1.1068,1.277,1.4172,1.5296,1.5778,1.5825,1.5825,1.5825,1.5825,1.5825,1.5825,1.5825,1.5825,1.5825,1.5825,1.5825,1.5825,1.5825,1.5825,1.5825,1.5825,1.5825,1.5825,1.5825,1.5825,1.5825,1.5825,1.5825,1.5825,1.5825,1.5825,1.5825,1.5825,1.5825,1.5825,1.5825,1.5825,1.5825,1.5825,1.5825,1.5825,1.5825,1.5825,1.5825,1.5825,1.5825,1.5825,1.5825,1.5825,1.5825,1.5825,1.5825,1.5825,1.5825,1.592,1.7257,1.881,1.9497,2.0223,2.1676,2.3003,2.3047,2.3101,2.3047,2.2687,2.1534,2.026,1.9093,1.7863,1.6615,1.6433,1.6574,1.7436,1.881,2.0124,2.1391,2.2129,2.295,2.3003,2.3101,2.3101,2.3101,2.3101,2.3101,2.3101,2.3178,2.3299,2.4006,2.5126,2.6243,2.736,2.849,0.9819,0.9819,0.9819,0.9819,0.9802,0.97,0.9551,0.9378,0.9313,0.91,0.8954,0.8937,0.8937,0.8937,0.8937,0.8937,0.8903,0.8818,0.8659,0.8469,0.8474,0.8957,1.0681,1.1409,1.3113,1.4956,1.5778,1.5778,1.5825,1.5825,1.5825,1.5825,1.5825,1.5825,1.5825,1.5825,1.5825,1.5825,1.5825,1.5825,1.5825,1.5825,1.5825,1.5825,1.5825,1.5825,1.5825,1.5825,1.5825,1.5825,1.5825,1.5825,1.5825,1.5825,1.5825,1.5825,1.5825,1.5825,1.5825,1.5825,1.5825,1.5825,1.5825,1.5825,1.5825,1.5825,1.5825,1.5825,1.5825,1.5825,1.5825,1.5825,1.5825,1.5825,1.5825,1.5825,1.5967,1.6574,1.7677,1.9177,1.9679,2.0314,2.1952,2.3101,2.3101,2.3101,2.3101,2.2731,2.1898,2.0531,1.9131,1.7902,1.6615,1.6897,1.7271,1.8403,1.9633,2.0899,2.1987,2.2492,2.3047,2.3047,2.3101,2.3101,2.3101,2.3101,2.3101,2.3101,2.3135,2.3222,2.4125,2.5199,2.6326,2.7493,2.8569,0.9819,0.9819,0.9819,0.9819,0.9795,0.9669,0.952,0.9371,0.9275,0.9072,0.8971,0.8937,0.8937,0.8937,0.8937,0.8899,0.8811,0.8754,0.8581,0.8397,0.8446,0.9136,1.0993,1.1556,1.3006,1.4513,1.5391,1.5825,1.5825,1.5825,1.5825,1.5825,1.5825,1.5825,1.5825,1.5825,1.5825,1.5825,1.5825,1.5825,1.5825,1.5825,1.5825,1.5825,1.5825,1.5825,1.5825,1.5825,1.5825,1.5825,1.5825,1.5825,1.5825,1.5825,1.5825,1.5825,1.5825,1.5825,1.5825,1.5825,1.5825,1.5825,1.5825,1.5825,1.5825,1.5825,1.5825,1.5825,1.5825,1.5825,1.5825,1.5825,1.5825,1.5825,1.5825,1.5825,1.5967,1.6433,1.7716,1.926,2.0169,2.1132,2.2413,2.3101,2.3101,2.3101,2.3101,2.2633,2.2076,2.0674,1.9131,1.7987,1.6889,1.7077,1.7677,1.8772,2.0042,2.14,2.2403,2.2906,2.3101,2.3101,2.3101,2.3101,2.3101,2.3101,2.3101,2.3101,2.3101,2.3309,2.4638,2.5839,2.6637,2.7637,2.8791,0.9819,0.9819,0.9819,0.9805,0.9758,0.9625,0.9473,0.9323,0.9167,0.9042,0.895,0.8937,0.8937,0.8927,0.8889,0.8821,0.8703,0.8662,0.8469,0.8319,0.8279,0.8937,1.043,1.1458,1.2861,1.4663,1.5343,1.5825,1.5825,1.5825,1.5825,1.5825,1.5825,1.5825,1.5825,1.5825,1.5825,1.5825,1.5825,1.5825,1.5825,1.5825,1.5825,1.5825,1.5825,1.5825,1.5825,1.5825,1.5825,1.5825,1.5825,1.5825,1.5825,1.5825,1.5825,1.5825,1.5825,1.5825,1.5825,1.5825,1.5825,1.5825,1.5825,1.5825,1.5825,1.5825,1.5825,1.5825,1.5825,1.5825,1.5825,1.5825,1.5825,1.5825,1.5825,1.5825,1.592,1.648,1.7623,1.9077,2.044,2.1667,2.2721,2.3101,2.3101,2.3101,2.3091,2.2589,2.1898,2.0531,1.9131,1.8079,1.7296,1.735,1.7902,1.8856,2.0178,2.1578,2.2448,2.3047,2.3101,2.3101,2.3101,2.3101,2.3101,2.3101,2.3101,2.3101,2.3101,2.3724,2.5263,2.6265,2.6719,2.7919,2.9287,0.9819,0.9819,0.9819,0.9751,0.9625,0.9476,0.9323,0.9234,0.9039,0.896,0.8937,0.8937,0.8937,0.8858,0.8798,0.8733,0.8638,0.8469,0.833,0.8231,0.819,0.926,1.1219,1.175,1.3108,1.4663,1.5439,1.5778,1.5825,1.5825,1.5825,1.5825,1.5825,1.5825,1.5825,1.5825,1.5825,1.5825,1.5825,1.5825,1.5825,1.5825,1.5825,1.5825,1.5825,1.5825,1.5825,1.5825,1.5825,1.5825,1.5825,1.5825,1.5825,1.5825,1.5825,1.5825,1.5825,1.5825,1.5825,1.5825,1.5825,1.5825,1.5825,1.5825,1.5825,1.5825,1.5825,1.5825,1.5825,1.5825,1.5825,1.5825,1.5825,1.5825,1.5825,1.5825,1.5872,1.6157,1.7343,1.8672,2.0034,2.1445,2.2677,2.2906,2.3101,2.3101,2.3003,2.2492,2.1765,2.0449,1.8626,1.7343,1.6976,1.7023,1.7902,1.8902,2.0124,2.1578,2.2448,2.3047,2.3101,2.3101,2.3101,2.3101,2.3101,2.3101,2.3144,2.3144,2.3101,2.4049,2.5588,2.6224,2.6513,2.7999,2.9702,0.9819,0.9815,0.9734,0.9669,0.9581,0.9354,0.9275,0.9133,0.9001,0.8937,0.8937,0.8937,0.8937,0.8851,0.8777,0.8662,0.8554,0.836,0.8218,0.8157,0.8222,0.9015,1.0342,1.0974,1.2231,1.422,1.4848,1.5194,1.5486,1.5825,1.5825,1.5825,1.5825,1.5825,1.5825,1.5825,1.5825,1.5825,1.5825,1.5825,1.5825,1.5825,1.5825,1.5825,1.5825,1.5825,1.5825,1.5825,1.5825,1.5825,1.5825,1.5825,1.5825,1.5825,1.5825,1.5825,1.5825,1.5825,1.5825,1.5825,1.5825,1.5825,1.5825,1.5825,1.5825,1.5825,1.5825,1.5825,1.5825,1.5825,1.5825,1.5825,1.5825,1.5825,1.5825,1.5825,1.5872,1.6197,1.6936,1.8265,1.9588,2.0899,2.2173,2.2818,2.3047,2.3101,2.3047,2.2731,2.1863,2.0674,1.858,1.6332,1.6244,1.6426,1.7576,1.8772,1.9898,2.1212,2.2403,2.2916,2.3047,2.3101,2.3101,2.3101,2.3101,2.3144,2.3144,2.3474,2.3714,2.4755,2.587,2.6419,2.7005,2.8343,2.9753,0.9819,0.9808,0.9666,0.9588,0.9527,0.9262,0.9187,0.9083,0.8984,0.8937,0.8937,0.8937,0.8937,0.8886,0.874,0.8584,0.8479,0.8299,0.8163,0.8022,0.8137,0.8825,0.9805,1.0293,1.1453,1.3878,1.407,1.4704,1.5486,1.5825,1.5825,1.5825,1.5825,1.5825,1.5825,1.5825,1.5825,1.5825,1.5825,1.5825,1.5825,1.5825,1.5825,1.5825,1.5825,1.5825,1.5825,1.5825,1.5825,1.5825,1.5825,1.5825,1.5825,1.5825,1.5825,1.5825,1.5825,1.5825,1.5825,1.5825,1.5825,1.5825,1.5825,1.5825,1.5825,1.5825,1.5825,1.5825,1.5825,1.5825,1.5825,1.5825,1.5825,1.5825,1.5825,1.5825,1.5825,1.6062,1.6615,1.7909,1.9139,2.0215,2.1445,2.2492,2.296,2.3047,2.3003,2.2862,2.1721,2.0404,1.8442,1.6055,1.592,1.6103,1.6842,1.8172,1.9434,2.0755,2.1943,2.2818,2.3003,2.3091,2.3101,2.3101,2.3101,2.3101,2.3144,2.38,2.4414,2.4713,2.5252,2.6696,2.7775,2.9,2.9714,0.9819,0.9808,0.9666,0.9523,0.9391,0.9282,0.9072,0.8974,0.8895,0.8937,0.8937,0.8937,0.8937,0.8869,0.8665,0.8509,0.8521,0.8133,0.8032,0.7998,0.8088,0.8726,0.9414,1.0096,1.1068,1.3199,1.3536,1.437,1.5493,1.573,1.5778,1.5825,1.5825,1.5825,1.5825,1.5825,1.5825,1.5825,1.5825,1.5825,1.5825,1.5825,1.5825,1.5825,1.5825,1.5825,1.5825,1.5825,1.5825,1.5825,1.5825,1.5825,1.5825,1.5825,1.5825,1.5825,1.5825,1.5825,1.5825,1.5825,1.5825,1.5825,1.5825,1.5825,1.5825,1.5825,1.5825,1.5825,1.5825,1.5825,1.5825,1.5825,1.5825,1.5825,1.5825,1.5825,1.5825,1.5825,1.648,1.7591,1.8596,1.9497,2.0531,2.1587,2.2775,2.3003,2.2916,2.2775,2.0773,1.936,1.7848,1.6292,1.592,1.592,1.6015,1.721,1.8718,1.9988,2.1168,2.2217,2.295,2.3003,2.3101,2.3101,2.3101,2.3101,2.3135,2.3507,2.38,2.3887,2.4713,2.6449,2.7775,2.8819,2.9456,0.9819,0.9798,0.9568,0.9435,0.9364,0.9123,0.8988,0.8888,0.8937,0.8937,0.8937,0.8937,0.8937,0.8855,0.8638,0.8535,0.849,0.8174,0.8022,0.7988,0.8137,0.8333,0.8722,0.9069,0.9702,1.1404,1.228,1.3343,1.4507,1.5289,1.573,1.5825,1.5825,1.5825,1.5825,1.5825,1.5825,1.5825,1.5825,1.5825,1.5825,1.5825,1.5825,1.5825,1.5825,1.5825,1.5825,1.5825,1.5825,1.5825,1.5825,1.5825,1.5825,1.5825,1.5825,1.5825,1.5825,1.5825,1.5825,1.5825,1.5825,1.5825,1.5825,1.5825,1.5825,1.5825,1.5825,1.5825,1.5825,1.5825,1.5825,1.5825,1.5825,1.5825,1.5825,1.5825,1.5825,1.5825,1.592,1.6897,1.7638,1.8365,1.9542,2.0674,2.1908,2.2906,2.2818,2.2325,2.0359,1.8764,1.7483,1.6379,1.592,1.5825,1.592,1.6936,1.8141,1.9314,2.0486,2.1721,2.2818,2.3047,2.3101,2.3101,2.3101,2.3101,2.3101,2.3101,2.3343,2.38,2.501,2.6584,2.7747,2.8688,2.9236,0.9819,0.9788,0.9551,0.9422,0.9344,0.9062,0.8937,0.8937,0.8937,0.8937,0.8937,0.8937,0.8937,0.8801,0.8628,0.8538,0.8404,0.8197,0.8025,0.7988,0.7988,0.7988,0.7988,0.8283,0.892,0.9948,1.0877,1.2086,1.4022,1.4854,1.5343,1.5683,1.5825,1.5825,1.5825,1.5825,1.5825,1.5825,1.5825,1.5825,1.5825,1.5825,1.5825,1.5825,1.5825,1.5825,1.5825,1.5825,1.5825,1.5825,1.5825,1.5825,1.5825,1.5825,1.5825,1.5825,1.5825,1.5825,1.5825,1.5825,1.5825,1.5825,1.5825,1.5825,1.5825,1.5825,1.5825,1.5825,1.5825,1.5825,1.5825,1.5825,1.5825,1.5825,1.5825,1.5825,1.5825,1.5825,1.5825,1.6103,1.6943,1.7917,1.888,2.015,2.1785,2.2583,2.2262,2.1632,2.0133,1.868,1.7623,1.6615,1.5872,1.5825,1.5872,1.7019,1.8148,1.9314,2.0486,2.1712,2.258,2.2925,2.311,2.3101,2.3101,2.3101,2.3101,2.3101,2.3507,2.4006,2.5126,2.6213,2.7602,2.8518,2.9106,0.9819,0.9805,0.9652,0.9507,0.9354,0.9013,0.8892,0.8885,0.8937,0.8937,0.8937,0.8937,0.8871,0.8801,0.8598,0.8531,0.8391,0.817,0.7988,0.7988,0.7988,0.7988,0.7988,0.8184,0.8531,0.9657,1.0435,1.1599,1.3686,1.4118,1.4752,1.5534,1.5825,1.5825,1.5825,1.5825,1.5825,1.5825,1.5825,1.5825,1.5825,1.5825,1.5825,1.5825,1.5825,1.5825,1.5825,1.5825,1.5825,1.5825,1.5825,1.5825,1.5825,1.5825,1.5825,1.5825,1.5825,1.5825,1.5825,1.5825,1.5825,1.5825,1.5825,1.5825,1.5825,1.5825,1.5825,1.5825,1.5825,1.5825,1.5825,1.5825,1.5825,1.5825,1.5825,1.5825,1.5825,1.5825,1.5825,1.5825,1.6763,1.7831,1.8619,1.9729,2.1563,2.2232,2.1784,2.0917,1.9754,1.8738,1.7742,1.6867,1.6086,1.6079,1.6285,1.7134,1.8187,1.9355,2.0635,2.1941,2.2736,2.3169,2.3227,2.314,2.3101,2.3101,2.3101,2.3101,2.3594,2.4049,2.4457,2.5493,2.7052,2.8295,2.8897,0.9819,0.9798,0.9557,0.9432,0.9354,0.9167,0.9032,0.8895,0.8937,0.8937,0.8937,0.8937,0.8872,0.8747,0.8604,0.8448,0.8326,0.8163,0.7988,0.7995,0.7992,0.7988,0.7988,0.8038,0.8287,0.8825,0.9509,1.073,1.2528,1.3247,1.4555,1.5486,1.5825,1.5825,1.5825,1.5825,1.5825,1.5825,1.5825,1.5825,1.5825,1.5825,1.5825,1.5825,1.5825,1.5825,1.5825,1.5825,1.5825,1.5825,1.5825,1.5825,1.5825,1.5825,1.5825,1.5825,1.5825,1.5825,1.5825,1.5825,1.5825,1.5825,1.5825,1.5825,1.5825,1.5825,1.5825,1.5825,1.5825,1.5825,1.5825,1.5825,1.5825,1.5825,1.5825,1.5825,1.5825,1.5825,1.5825,1.5825,1.6386,1.7997,1.905,1.9917,2.1504,2.2473,2.2263,2.1177,1.9994,1.8978,1.7979,1.7162,1.6486,1.6453,1.6729,1.7746,1.8712,1.9862,2.1165,2.2511,2.3112,2.3504,2.3398,2.3276,2.3179,2.3101,2.3101,2.3178,2.3627,2.4082,2.4542,2.5336,2.6819,2.7976,2.8648,0.9819,0.9791,0.9561,0.9429,0.9354,0.9164,0.9022,0.8947,0.8937,0.8937,0.8937,0.8878,0.8838,0.8771,0.8635,0.8533,0.8401,0.8208,0.8119,0.8109,0.8005,0.7995,0.7988,0.7992,0.8038,0.8283,0.8871,1.0092,1.1945,1.2764,1.4124,1.5391,1.5825,1.5825,1.5825,1.5825,1.5825,1.5825,1.5825,1.5825,1.5825,1.5825,1.5825,1.5825,1.5825,1.5825,1.5825,1.5825,1.5825,1.5825,1.5825,1.5825,1.5825,1.5825,1.5825,1.5825,1.5825,1.5825,1.5825,1.5825,1.5825,1.5825,1.5825,1.5825,1.5825,1.5825,1.5825,1.5825,1.5825,1.5825,1.5825,1.5825,1.5825,1.5825,1.5825,1.5825,1.5825,1.5825,1.5892,1.5885,1.6184,1.7805,1.9526,2.0431,2.1513,2.2169,2.2721,2.1508,2.0225,1.9095,1.8116,1.7319,1.674,1.6717,1.7301,1.8472,1.9444,2.0457,2.186,2.3345,2.3602,2.3984,2.3721,2.3486,2.3467,2.3389,2.3149,2.3299,2.38,2.4253,2.467,2.5588,2.6748,2.7654,2.8478,0.9819,0.9798,0.9663,0.9507,0.9347,0.9079,0.8888,0.8937,0.8937,0.8937,0.8937,0.8937,0.8851,0.8831,0.876,0.8672,0.8608,0.837,0.8303,0.8231,0.815,0.8052,0.8012,0.8002,0.7992,0.7988,0.8478,0.9653,1.1653,1.2915,1.4178,1.5296,1.5778,1.5825,1.5825,1.5825,1.5825,1.5825,1.5825,1.5825,1.5825,1.5825,1.5825,1.5825,1.5825,1.5825,1.5825,1.5825,1.5825,1.5825,1.5825,1.5825,1.5825,1.5825,1.5825,1.5825,1.5825,1.5825,1.5825,1.5825,1.5825,1.5825,1.5825,1.5825,1.5825,1.5825,1.5825,1.5825,1.5825,1.5825,1.5825,1.5825,1.5825,1.5825,1.5825,1.5825,1.5825,1.5872,1.5965,1.6059,1.6213,1.7496,1.9499,2.0702,2.1442,2.2421,2.2793,2.1784,2.0476,1.9003,1.806,1.7353,1.6958,1.6928,1.7853,1.9319,2.0541,2.1569,2.3065,2.4436,2.4495,2.4385,2.418,2.3975,2.3818,2.3702,2.369,2.3767,2.4006,2.45,2.5577,2.616,2.7441,2.7683,2.8386,0.9819,0.9795,0.9551,0.9418,0.934,0.9062,0.8937,0.8937,0.8937,0.8937,0.8937,0.8937,0.8838,0.8774,0.8726,0.8652,0.8557,0.8476,0.8438,0.8364,0.8265,0.8221,0.8167,0.8106,0.8008,0.7988,0.8333,0.9357,1.1891,1.3301,1.4615,1.5689,1.5825,1.5825,1.5825,1.5825,1.5825,1.5825,1.5825,1.5825,1.5825,1.5825,1.5825,1.5825,1.5825,1.5825,1.5825,1.5825,1.5825,1.5825,1.5825,1.5825,1.5825,1.5825,1.5825,1.5825,1.5825,1.5825,1.5825,1.5825,1.5825,1.5825,1.5825,1.5825,1.5825,1.5825,1.5825,1.5825,1.5825,1.5825,1.5825,1.5825,1.5825,1.5825,1.5825,1.5825,1.5825,1.5852,1.5959,1.6179,1.6339,1.7435,1.9464,2.0651,2.1437,2.2603,2.2719,2.1678,2.0746,1.9267,1.8433,1.777,1.7974,1.818,1.9043,2.04,2.162,2.2827,2.4131,2.5011,2.4893,2.4736,2.4609,2.4438,2.4175,2.4249,2.4378,2.4563,2.4798,2.6273,2.7348,2.7591,2.7884,2.8215,2.8545,0.9737,0.9696,0.9415,0.9262,0.9181,0.8962,0.8937,0.8937,0.8937,0.8937,0.8937,0.8937,0.8834,0.8825,0.8804,0.8733,0.8594,0.8584,0.8543,0.8445,0.8401,0.8319,0.8245,0.8177,0.8106,0.8019,0.8382,0.9361,1.194,1.4268,1.5778,1.5784,1.5825,1.5825,1.5825,1.5825,1.5825,1.5825,1.5825,1.5825,1.5825,1.5825,1.5825,1.5825,1.5825,1.5825,1.5825,1.5825,1.5825,1.5825,1.5825,1.5825,1.5825,1.5825,1.5825,1.5825,1.5825,1.5825,1.5825,1.5825,1.5825,1.5825,1.5825,1.5825,1.5825,1.5825,1.5825,1.5825,1.5825,1.5825,1.5825,1.5825,1.5825,1.5825,1.5825,1.5825,1.5825,1.5825,1.6005,1.6197,1.6857,1.7801,1.9,2.0202,2.1186,2.1829,2.1745,2.0836,2.026,1.958,1.9052,1.8692,1.9236,1.9764,2.0684,2.1448,2.2457,2.3565,2.4557,2.5198,2.5187,2.5098,2.4961,2.4726,2.4496,2.4666,2.4839,2.54,2.5922,2.736,2.8347,2.8386,2.8557,2.8937,2.9275,0.9602,0.9568,0.9279,0.9086,0.895,0.8885,0.8937,0.8937,0.8937,0.8937,0.8937,0.8937,0.8865,0.8866,0.8879,0.8818,0.873,0.8699,0.8679,0.852,0.8513,0.8445,0.834,0.8262,0.8153,0.8029,0.8382,0.9361,1.194,1.4268,1.5825,1.5825,1.5825,1.5825,1.5825,1.5825,1.5825,1.5825,1.5825,1.5825,1.5825,1.5825,1.5825,1.5825,1.5825,1.5825,1.5825,1.5825,1.5825,1.5825,1.5825,1.5825,1.5825,1.5825,1.5825,1.5825,1.5825,1.5825,1.5825,1.5825,1.5825,1.5825,1.5825,1.5825,1.5825,1.5825,1.5825,1.5825,1.5825,1.5825,1.5825,1.5825,1.5825,1.5825,1.5825,1.5825,1.5825,1.5919,1.6159,1.642,1.6861,1.7786,1.8501,1.9672,2.0385,2.0939,2.0837,2.0033,2.0187,1.993,1.9731,1.9627,2.0231,2.0939,2.1803,2.2567,2.3335,2.4295,2.5118,2.5392,2.5352,2.5332,2.5274,2.4987,2.4631,2.5006,2.5338,2.6041,2.6924,2.7988,2.8767,2.8897,2.9184,2.9482,2.9611,0.954,0.9418,0.9289,0.9069,0.8892,0.8937,0.8937,0.8937,0.8937,0.8937,0.8937,0.8875,0.8828,0.8821,0.8851,0.8801,0.8754,0.8808,0.8794,0.8764,0.8696,0.8554,0.8425,0.8326,0.8194,0.8035,0.8382,0.9558,1.1891,1.422,1.5778,1.573,1.5581,1.5391,1.5629,1.5629,1.5629,1.5778,1.5825,1.5825,1.5825,1.5825,1.5825,1.5825,1.5825,1.5825,1.5825,1.5825,1.5825,1.5825,1.5825,1.5825,1.5825,1.5825,1.5825,1.5825,1.5825,1.5825,1.5825,1.5825,1.5825,1.5825,1.5825,1.5825,1.5825,1.5825,1.5825,1.5825,1.5825,1.5825,1.5825,1.5825,1.5825,1.5825,1.5825,1.5825,1.5832,1.6066,1.6306,1.6677,1.7005,1.7531,1.8251,1.8864,1.9568,1.9878,1.993,1.993,2.0947,2.11,2.0692,2.0641,2.1092,2.1853,2.2868,2.3534,2.4205,2.4716,2.543,2.5548,2.5508,2.5361,2.5204,2.4934,2.4801,2.5349,2.6095,2.7074,2.7971,2.8791,2.9145,2.9314,2.9404,2.9663,2.974,0.9357,0.9323,0.912,0.9011,0.8892,0.8937,0.8937,0.8937,0.8937,0.8937,0.8937,0.8875,0.8831,0.8757,0.8906,0.8855,0.876,0.8817,0.8787,0.8757,0.876,0.8665,0.853,0.8391,0.8221,0.8149,0.9426,1.0823,1.2134,1.359,1.4902,1.4902,1.4657,1.4465,1.48,1.4997,1.5289,1.5737,1.5778,1.5825,1.5825,1.5825,1.5825,1.5825,1.5825,1.5825,1.5825,1.5825,1.5825,1.5825,1.5825,1.5825,1.5825,1.5825,1.5825,1.5825,1.5825,1.5825,1.5825,1.5825,1.5825,1.5825,1.5825,1.5825,1.5825,1.5825,1.5825,1.5825,1.5825,1.5825,1.5825,1.5825,1.5825,1.5825,1.5825,1.5825,1.5912,1.6079,1.6346,1.6647,1.6961,1.7358,1.7873,1.8048,1.8812,1.9723,1.9627,2.0033,2.1049,2.1954,2.1651,2.1811,2.2366,2.3185,2.4304,2.4707,2.4913,2.5421,2.5684,2.5645,2.5557,2.5283,2.5036,2.4964,2.527,2.6089,2.6873,2.7653,2.8546,2.9324,2.9546,2.9702,2.9779,2.9779,2.9779,0.9207,0.911,0.8994,0.894,0.8937,0.8937,0.8937,0.8937,0.8937,0.8937,0.8937,0.8937,0.8878,0.8858,0.8875,0.8828,0.8798,0.8828,0.8787,0.878,0.8828,0.871,0.8567,0.8507,0.8269,0.8818,1.001,1.097,1.1945,1.3108,1.3638,1.3488,1.3102,1.2619,1.3488,1.407,1.4507,1.5486,1.5825,1.5825,1.5825,1.5825,1.5825,1.5825,1.5825,1.5825,1.5825,1.5825,1.5825,1.5825,1.5825,1.5825,1.5825,1.5825,1.5825,1.5825,1.5825,1.5825,1.5825,1.5825,1.5825,1.5825,1.5825,1.5825,1.5825,1.5825,1.5825,1.5825,1.5825,1.5825,1.5825,1.5825,1.5825,1.5825,1.5825,1.5879,1.6005,1.6152,1.6433,1.672,1.7007,1.736,1.7467,1.7594,1.8178,1.9102,1.9716,2.0385,2.1049,2.1862,2.2165,2.2926,2.385,2.4766,2.5479,2.5479,2.5421,2.5528,2.5684,2.5684,2.5596,2.5312,2.5183,2.5246,2.5691,2.6296,2.7052,2.7779,2.8717,2.9446,2.9739,2.9792,2.9779,2.9779,2.9779,0.9083,0.8977,0.8892,0.8937,0.8937,0.8937,0.8937,0.8937,0.8937,0.8937,0.8937,0.8871,0.8824,0.8713,0.8838,0.8807,0.8791,0.8828,0.8868,0.8865,0.8865,0.8733,0.8557,0.8455,0.8292,0.8844,0.9706,1.0779,1.1361,1.2042,1.2818,1.344,1.2328,1.2377,1.3536,1.3926,1.4268,1.5194,1.573,1.5825,1.5825,1.5825,1.5825,1.5825,1.5825,1.5825,1.5825,1.5825,1.5825,1.5825,1.5825,1.5825,1.5825,1.5825,1.5825,1.5825,1.5825,1.5825,1.5825,1.5825,1.5825,1.5825,1.5825,1.5825,1.5825,1.5825,1.5825,1.5825,1.5825,1.5825,1.5825,1.5825,1.5825,1.5825,1.5825,1.5985,1.6139,1.6366,1.6633,1.6901,1.7174,1.7335,1.7402,1.7573,1.7691,1.8355,1.8532,1.9258,2.0538,2.1558,2.2576,2.3642,2.4766,2.5333,2.5684,2.5635,2.5577,2.5684,2.5684,2.5684,2.5605,2.5312,2.5241,2.5338,2.5651,2.6149,2.6933,2.7558,2.8171,2.8805,2.95,2.9765,2.9753,2.9779,2.9779]}]]